[[{"header":{"parameterUnit":"m.s-1","parameterCategory":1,"la1":30.6,"la2":29.2853,"lo1":-89.7004,"lo2":-87.6739,"dx":0.0162,"dy":0.0183,"nx":112,"ny":82,"refTime":"2022-12-02T06:00:00:Z","depth":0,"parameterNumber":2,"parameterNumberName":"U-component_of_WINDS"},"data":[0.0,0.0,0.0,0.0,0.0,0.0,0.0,0.0,0.0,0.0,0.0,0.0,0.0,0.0,0.0,0.0,0.0,0.0,0.0,0.0,0.0,0.0,0.0,0.0,0.0,0.0,0.0,0.0,0.0,0.0,0.0,0.0,0.0,0.0,0.0,0.0,0.0,0.0,0.0,0.0,0.0,0.0,0.0,0.0,0.0,0.0,0.0,0.0,0.0,0.0,0.0,0.0,0.0,0.0,0.0,0.0,0.0,0.0,0.0,0.0,0.0,0.0,0.0,0.0,0.0,0.0,0.0,0.0,0.0,0.0,0.0,0.0,0.0,0.0,0.0,0.0,0.0,0.0,0.0,0.0,0.0,0.0,0.0,0.0,0.0,0.0,0.0,0.0,0.0,0.0,-4.1605,-4.3806,-4.5504,-4.6484,-4.6484,-4.5469,-4.3789,-4.1367,0.0,0.0,0.0,0.0,0.0,0.0,0.0,0.0,0.0,0.0,0.0,0.0,0.0,0.0,0.0,0.0,0.0,0.0,0.0,0.0,0.0,0.0,0.0,0.0,0.0,0.0,0.0,0.0,0.0,0.0,0.0,0.0,0.0,0.0,0.0,0.0,0.0,0.0,0.0,0.0,0.0,0.0,0.0,0.0,0.0,0.0,0.0,0.0,0.0,0.0,0.0,0.0,0.0,0.0,0.0,0.0,0.0,0.0,0.0,0.0,0.0,0.0,0.0,0.0,0.0,0.0,0.0,0.0,0.0,0.0,0.0,0.0,0.0,0.0,0.0,0.0,0.0,0.0,0.0,0.0,0.0,0.0,0.0,0.0,0.0,0.0,0.0,0.0,0.0,0.0,0.0,0.0,0.0,0.0,0.0,0.0,0.0,0.0,0.0,0.0,0.0,0.0,0.0,0.0,-4.1386,-4.5466,-4.6797,-4.7383,-4.7383,-4.5234,-4.3125,-4.1328,0.0,0.0,0.0,0.0,0.0,0.0,0.0,0.0,0.0,0.0,0.0,0.0,0.0,0.0,0.0,0.0,0.0,0.0,0.0,0.0,0.0,0.0,0.0,0.0,0.0,0.0,0.0,0.0,0.0,0.0,0.0,0.0,0.0,0.0,0.0,0.0,0.0,0.0,0.0,0.0,0.0,0.0,0.0,0.0,0.0,0.0,0.0,0.0,0.0,0.0,0.0,0.0,0.0,0.0,0.0,0.0,0.0,0.0,0.0,0.0,0.0,0.0,0.0,0.0,0.0,0.0,0.0,0.0,0.0,0.0,0.0,0.0,0.0,0.0,0.0,0.0,0.0,0.0,0.0,0.0,0.0,0.0,0.0,0.0,0.0,0.0,0.0,0.0,0.0,0.0,0.0,0.0,0.0,0.0,0.0,0.0,0.0,0.0,0.0,0.0,0.0,0.0,0.0,-4.2646,-4.4649,-4.6796,-4.7344,-4.7617,-4.7617,-4.5195,-4.2969,-4.1328,-3.957,0.0,0.0,0.0,0.0,0.0,0.0,0.0,0.0,0.0,0.0,0.0,0.0,0.0,0.0,0.0,0.0,0.0,0.0,0.0,0.0,0.0,0.0,0.0,0.0,0.0,0.0,0.0,0.0,0.0,0.0,0.0,0.0,0.0,0.0,0.0,0.0,0.0,0.0,0.0,0.0,0.0,0.0,0.0,0.0,0.0,0.0,0.0,0.0,0.0,0.0,0.0,0.0,0.0,0.0,0.0,0.0,0.0,0.0,0.0,0.0,0.0,0.0,0.0,0.0,0.0,0.0,0.0,0.0,0.0,0.0,0.0,0.0,0.0,0.0,0.0,0.0,0.0,0.0,0.0,0.0,0.0,0.0,0.0,0.0,0.0,0.0,0.0,0.0,0.0,0.0,0.0,0.0,0.0,0.0,0.0,0.0,0.0,0.0,0.0,0.0,0.0,0.0,-4.5359,-4.7721,-4.7617,-4.7773,-4.7812,-4.7617,-4.5391,-4.3203,-4.1328,-3.9766,0.0,0.0,0.0,0.0,0.0,0.0,0.0,0.0,0.0,0.0,0.0,0.0,0.0,0.0,0.0,0.0,0.0,0.0,0.0,0.0,0.0,0.0,0.0,0.0,0.0,0.0,0.0,0.0,0.0,0.0,0.0,0.0,0.0,0.0,0.0,0.0,0.0,0.0,0.0,0.0,0.0,0.0,0.0,0.0,0.0,0.0,0.0,0.0,0.0,0.0,0.0,0.0,0.0,0.0,0.0,0.0,0.0,0.0,0.0,0.0,0.0,0.0,0.0,0.0,0.0,0.0,0.0,0.0,0.0,0.0,0.0,0.0,0.0,0.0,0.0,0.0,0.0,0.0,0.0,0.0,0.0,0.0,0.0,0.0,0.0,0.0,0.0,0.0,0.0,0.0,0.0,0.0,0.0,0.0,0.0,0.0,0.0,0.0,0.0,0.0,0.0,0.0,-4.5566,-4.8476,-4.7695,-4.832,-4.8476,-4.7656,-4.5937,-4.3867,-4.1367,-4.0312,0.0,0.0,0.0,0.0,0.0,0.0,0.0,0.0,0.0,0.0,0.0,0.0,0.0,0.0,0.0,0.0,0.0,0.0,0.0,0.0,0.0,0.0,0.0,0.0,0.0,0.0,0.0,0.0,0.0,0.0,0.0,0.0,0.0,0.0,0.0,0.0,0.0,0.0,0.0,0.0,0.0,0.0,0.0,0.0,0.0,0.0,0.0,0.0,0.0,0.0,0.0,0.0,0.0,0.0,0.0,0.0,0.0,0.0,0.0,0.0,0.0,0.0,0.0,0.0,0.0,0.0,0.0,0.0,0.0,0.0,0.0,0.0,0.0,0.0,0.0,0.0,0.0,0.0,0.0,0.0,0.0,0.0,0.0,0.0,0.0,0.0,0.0,0.0,0.0,0.0,0.0,0.0,0.0,0.0,0.0,0.0,0.0,0.0,0.0,0.0,0.0,0.0,-4.5737,-4.8779,-4.9041,-4.9489,-4.957,-4.9258,-4.7148,-4.4922,-4.2891,0.0,0.0,0.0,0.0,0.0,0.0,0.0,0.0,0.0,0.0,0.0,0.0,0.0,0.0,0.0,0.0,0.0,0.0,0.0,0.0,0.0,0.0,0.0,0.0,0.0,0.0,0.0,0.0,0.0,0.0,0.0,0.0,0.0,0.0,0.0,0.0,0.0,0.0,0.0,0.0,0.0,0.0,0.0,0.0,0.0,0.0,0.0,0.0,0.0,0.0,0.0,0.0,0.0,0.0,0.0,0.0,0.0,0.0,0.0,0.0,0.0,0.0,0.0,0.0,0.0,0.0,0.0,0.0,0.0,0.0,0.0,0.0,0.0,0.0,0.0,0.0,0.0,0.0,0.0,0.0,0.0,0.0,0.0,0.0,0.0,0.0,0.0,0.0,0.0,0.0,0.0,0.0,0.0,0.0,0.0,0.0,0.0,0.0,0.0,0.0,0.0,0.0,-4.2252,-4.644,-4.9586,-5.0293,-5.045,-5.0426,-5.0234,-4.832,-4.625,-4.4258,0.0,0.0,0.0,0.0,0.0,0.0,0.0,0.0,0.0,0.0,0.0,0.0,0.0,0.0,0.0,0.0,0.0,0.0,0.0,0.0,0.0,0.0,0.0,0.0,0.0,0.0,0.0,0.0,0.0,0.0,0.0,0.0,0.0,0.0,0.0,0.0,0.0,0.0,0.0,0.0,0.0,0.0,0.0,0.0,0.0,0.0,0.0,0.0,0.0,0.0,0.0,0.0,0.0,0.0,0.0,0.0,0.0,0.0,0.0,0.0,0.0,0.0,0.0,0.0,0.0,0.0,0.0,0.0,0.0,0.0,0.0,0.0,0.0,0.0,0.0,0.0,0.0,0.0,0.0,0.0,0.0,0.0,0.0,0.0,0.0,0.0,0.0,0.0,0.0,0.0,0.0,0.0,0.0,0.0,0.0,0.0,0.0,0.0,0.0,0.0,0.0,0.0,-4.3111,-4.7778,-5.104,-5.118,-5.1227,-5.0943,-5.0273,-4.9414,-4.7812,0.0,0.0,0.0,0.0,0.0,0.0,0.0,0.0,0.0,0.0,0.0,0.0,0.0,0.0,0.0,0.0,0.0,0.0,0.0,0.0,0.0,0.0,0.0,0.0,0.0,0.0,0.0,0.0,0.0,0.0,0.0,0.0,0.0,0.0,0.0,0.0,0.0,0.0,0.0,0.0,0.0,0.0,0.0,0.0,0.0,0.0,0.0,0.0,0.0,0.0,0.0,0.0,0.0,0.0,0.0,0.0,0.0,0.0,0.0,0.0,0.0,0.0,0.0,0.0,0.0,0.0,0.0,0.0,0.0,0.0,0.0,0.0,0.0,0.0,0.0,0.0,0.0,0.0,0.0,0.0,0.0,0.0,0.0,0.0,0.0,0.0,0.0,0.0,0.0,0.0,0.0,0.0,0.0,0.0,0.0,0.0,0.0,0.0,0.0,0.0,0.0,0.0,0.0,-4.3875,-4.8034,-5.0946,-5.099,-5.159,-5.1686,-5.0988,-4.9584,-4.8464,-4.7773,0.0,0.0,0.0,0.0,0.0,0.0,0.0,0.0,0.0,0.0,0.0,0.0,0.0,0.0,0.0,0.0,0.0,0.0,0.0,0.0,0.0,0.0,0.0,0.0,0.0,0.0,0.0,0.0,0.0,0.0,0.0,0.0,0.0,0.0,0.0,0.0,0.0,0.0,0.0,0.0,0.0,0.0,0.0,0.0,0.0,0.0,0.0,0.0,0.0,0.0,0.0,0.0,0.0,0.0,0.0,0.0,0.0,0.0,0.0,0.0,0.0,0.0,0.0,0.0,0.0,0.0,0.0,0.0,0.0,0.0,0.0,0.0,0.0,0.0,0.0,0.0,0.0,0.0,0.0,0.0,0.0,0.0,0.0,0.0,0.0,0.0,0.0,0.0,0.0,0.0,0.0,0.0,0.0,0.0,0.0,0.0,0.0,0.0,0.0,0.0,0.0,0.0,-4.4701,-4.8913,-5.1686,-5.1424,-5.2181,-5.2458,-5.169,-5.041,-4.9703,-4.9793,0.0,0.0,0.0,0.0,0.0,0.0,0.0,0.0,0.0,0.0,0.0,0.0,0.0,0.0,0.0,0.0,0.0,0.0,0.0,0.0,0.0,0.0,0.0,0.0,0.0,0.0,0.0,0.0,0.0,0.0,0.0,0.0,0.0,0.0,0.0,0.0,0.0,0.0,0.0,0.0,0.0,0.0,0.0,0.0,0.0,0.0,0.0,0.0,0.0,0.0,0.0,0.0,0.0,0.0,0.0,0.0,0.0,0.0,0.0,0.0,0.0,0.0,0.0,0.0,0.0,0.0,0.0,0.0,0.0,0.0,0.0,0.0,0.0,0.0,0.0,0.0,0.0,0.0,0.0,0.0,0.0,0.0,0.0,0.0,0.0,0.0,0.0,0.0,0.0,0.0,0.0,0.0,0.0,0.0,0.0,0.0,0.0,0.0,0.0,0.0,0.0,0.0,-4.5748,-5.0202,-5.2984,-5.2152,-5.2864,-5.3063,-5.2258,-5.1496,-5.1122,-5.1174,0.0,0.0,0.0,0.0,0.0,0.0,0.0,0.0,0.0,0.0,0.0,0.0,0.0,0.0,0.0,0.0,0.0,0.0,0.0,0.0,0.0,0.0,0.0,0.0,0.0,0.0,0.0,0.0,0.0,0.0,0.0,0.0,0.0,0.0,0.0,0.0,0.0,0.0,0.0,0.0,0.0,0.0,0.0,0.0,0.0,0.0,0.0,0.0,0.0,0.0,0.0,0.0,0.0,0.0,0.0,0.0,0.0,0.0,0.0,0.0,-4.197,-3.913,0.0,0.0,0.0,0.0,0.0,0.0,0.0,0.0,0.0,0.0,0.0,0.0,0.0,0.0,0.0,0.0,0.0,0.0,0.0,0.0,0.0,0.0,0.0,0.0,0.0,0.0,0.0,0.0,0.0,0.0,0.0,0.0,0.0,0.0,0.0,0.0,0.0,0.0,0.0,0.0,-4.7625,-5.1471,-5.3646,-5.2117,-5.2705,-5.2691,-5.1319,-5.0977,-5.0927,-5.1117,-5.0166,0.0,0.0,0.0,0.0,0.0,0.0,0.0,0.0,0.0,0.0,0.0,0.0,0.0,0.0,0.0,0.0,0.0,0.0,0.0,0.0,0.0,0.0,0.0,0.0,0.0,0.0,0.0,0.0,0.0,0.0,0.0,0.0,0.0,0.0,0.0,0.0,0.0,0.0,0.0,0.0,0.0,0.0,0.0,0.0,0.0,0.0,0.0,0.0,0.0,0.0,0.0,0.0,0.0,0.0,0.0,0.0,0.0,0.0,0.0,-4.5432,-4.2624,0.0,0.0,0.0,0.0,0.0,0.0,0.0,0.0,0.0,0.0,0.0,0.0,0.0,0.0,0.0,0.0,0.0,0.0,0.0,0.0,0.0,0.0,0.0,0.0,0.0,0.0,0.0,0.0,0.0,0.0,0.0,0.0,0.0,0.0,0.0,0.0,0.0,0.0,0.0,0.0,-4.8856,-5.2087,-5.3818,-5.2077,-5.2692,-5.2714,-5.1494,-5.134,-5.1586,-5.2175,-5.1493,0.0,0.0,0.0,0.0,0.0,0.0,0.0,0.0,0.0,0.0,0.0,0.0,0.0,0.0,0.0,0.0,0.0,0.0,0.0,0.0,0.0,0.0,0.0,0.0,0.0,0.0,0.0,0.0,0.0,0.0,0.0,0.0,0.0,0.0,0.0,0.0,0.0,0.0,0.0,0.0,0.0,0.0,0.0,0.0,0.0,0.0,0.0,0.0,0.0,0.0,0.0,0.0,0.0,-5.0366,-5.0712,-5.0673,-4.9933,-5.001,-5.0596,-4.8471,-4.6201,-4.397,-4.4124,0.0,0.0,0.0,0.0,0.0,0.0,0.0,0.0,0.0,0.0,0.0,0.0,0.0,0.0,0.0,0.0,0.0,0.0,0.0,0.0,0.0,0.0,-4.6547,-4.597,-4.7471,-4.824,-4.547,0.0,0.0,0.0,0.0,0.0,0.0,0.0,0.0,0.0,0.0,0.0,-5.0202,-5.2779,-5.4049,-5.2308,-5.2779,-5.2779,-5.1769,-5.1808,-5.2175,-5.2871,-5.2628,-5.1634,0.0,0.0,0.0,0.0,0.0,0.0,0.0,0.0,0.0,0.0,0.0,0.0,0.0,0.0,0.0,0.0,0.0,0.0,0.0,0.0,0.0,0.0,0.0,0.0,0.0,0.0,0.0,0.0,0.0,0.0,0.0,0.0,-3.7924,-3.8719,0.0,0.0,0.0,0.0,0.0,0.0,0.0,0.0,0.0,0.0,0.0,0.0,0.0,-4.7855,-4.8702,-4.9817,-5.0404,-5.0519,-5.0635,-5.0712,-5.0712,-5.0596,-5.0596,-5.0673,-5.0327,0.0,-4.7509,-4.8279,0.0,0.0,0.0,0.0,0.0,0.0,0.0,0.0,0.0,0.0,0.0,0.0,0.0,0.0,0.0,0.0,0.0,0.0,0.0,0.0,0.0,0.0,-5.1231,-5.1856,-5.2279,-5.2395,-5.1972,-4.8394,-4.5248,-4.5133,-4.521,-4.5509,0.0,0.0,0.0,0.0,0.0,0.0,-5.2895,-5.4357,-5.4895,-5.3203,-5.3126,-5.2549,-5.0971,-5.151,-5.1674,-5.1106,-5.2437,-5.1848,-4.8631,-4.9442,0.0,0.0,0.0,0.0,0.0,0.0,0.0,0.0,0.0,0.0,0.0,0.0,0.0,0.0,0.0,0.0,0.0,0.0,0.0,0.0,0.0,0.0,0.0,0.0,0.0,0.0,0.0,0.0,0.0,-3.77,-3.867,-4.1895,-4.1523,-4.1451,0.0,0.0,0.0,0.0,0.0,0.0,0.0,0.0,0.0,-5.0154,-4.9817,-4.9971,-5.0818,-5.1164,-5.1625,-5.2125,-5.2587,-5.2818,-5.2818,-5.2818,-5.2549,-5.2125,-5.2125,-5.1395,-5.0231,-5.0164,-4.9481,-4.8365,0.0,0.0,0.0,0.0,-4.524,-4.5355,-4.6317,-4.6624,-4.6778,-4.7625,0.0,0.0,0.0,0.0,0.0,0.0,0.0,-4.8125,-4.9702,-5.101,-5.2115,-5.301,-5.3203,-5.3203,-5.3203,-5.1433,-4.9586,-4.8634,-4.8817,-4.9279,-4.9654,-5.1433,0.0,0.0,0.0,-5.5818,-5.4164,-5.4972,-5.5241,-5.4049,-5.3933,-5.3241,-5.151,-5.2164,-5.2279,-5.1433,-5.2666,-5.2733,-5.1215,-5.0736,-4.9453,0.0,0.0,0.0,0.0,0.0,0.0,0.0,0.0,0.0,0.0,0.0,0.0,0.0,0.0,0.0,0.0,0.0,0.0,0.0,0.0,0.0,0.0,0.0,0.0,0.0,0.0,0.0,0.0,-3.9684,-4.0956,-4.5631,-4.5368,-4.5473,0.0,0.0,0.0,0.0,0.0,0.0,-4.9356,-4.9625,-5.0702,-5.2818,-5.1895,-5.1818,-5.2846,-5.2846,-5.3087,-5.3549,-5.4203,-5.4395,-5.4164,-5.4164,-5.3818,-5.3203,-5.3203,-5.2818,-5.2154,-5.1356,-5.0894,-5.0635,-4.9971,-4.9971,-5.0202,-4.874,-4.8048,-4.8125,-4.9779,-5.0356,-5.0471,-5.1125,-5.1318,-5.1048,-4.9548,0.0,0.0,0.0,0.0,-5.0356,-5.1625,-5.2279,-5.2779,-5.3626,-5.3857,-5.3857,-5.3857,-5.3857,-5.3356,-5.1664,-5.1818,-5.2231,-5.2231,-5.3664,0.0,-5.4511,-5.5945,-5.6483,-5.5011,-5.5318,-5.5395,-5.4587,-5.4511,-5.3895,-5.2346,-5.2818,-5.2818,-5.1962,-5.2798,-5.3163,-5.2738,-5.2013,-5.1058,-4.9866,0.0,0.0,0.0,0.0,0.0,0.0,0.0,0.0,0.0,0.0,0.0,0.0,0.0,0.0,0.0,0.0,0.0,0.0,0.0,0.0,0.0,0.0,0.0,0.0,0.0,0.0,0.0,0.0,0.0,-4.9989,-4.9615,0.0,0.0,0.0,0.0,-5.1558,-5.0904,-5.1202,-5.2856,-5.1471,-5.2135,-5.5395,-5.3933,-5.3857,-5.5472,-5.5511,-5.5164,-5.4434,-5.4472,-5.4087,-5.328,-5.328,-5.3241,-5.3203,-5.3203,-5.3164,-5.3087,-5.2192,-5.1395,-5.0712,-5.0635,-5.0173,-4.9625,-5.1115,-5.1164,-5.075,-5.2433,-5.301,-5.301,-5.3049,-5.3087,-5.2895,-5.2,-5.1692,0.0,0.0,-5.2385,-5.2346,-5.4818,-5.4895,-5.4587,-5.5395,-5.5549,-5.5549,-5.5549,-5.5549,-5.5088,-5.3395,-5.3126,-5.3126,-5.3126,0.0,-5.5395,-5.4626,-5.5945,-5.6676,-5.5742,-5.5665,-5.5395,-5.4587,-5.4511,-5.4126,-5.3203,-5.3164,-5.2818,-5.1962,-5.2713,-5.2492,-5.0885,-5.2412,-5.2121,-4.9667,-4.9729,0.0,0.0,0.0,0.0,0.0,0.0,0.0,0.0,0.0,0.0,0.0,0.0,0.0,0.0,0.0,0.0,0.0,0.0,0.0,0.0,0.0,0.0,0.0,0.0,0.0,0.0,0.0,0.0,-5.1266,-5.125,0.0,-5.2702,-5.1548,-5.101,-5.1846,-5.2664,-5.3395,-5.401,-5.5011,-5.5895,-5.6522,-5.5395,-5.5088,-5.5703,-5.5203,-5.478,-5.4511,-5.5011,-5.5126,-5.4818,-5.4818,-5.4818,-5.478,-5.4241,-5.4049,-5.3972,-5.3087,-5.2895,-5.3203,-5.3703,-5.3741,-5.351,-5.4126,-5.4164,-5.401,-5.4587,-5.4818,-5.4626,-5.3549,-5.2818,-5.2192,-5.1395,-5.151,-5.2077,-5.2972,-5.3741,-5.4664,-5.6175,-5.6742,-5.7011,-5.7319,-5.7357,-5.7357,-5.7357,-5.7357,-5.7049,-5.5857,-5.5203,-5.4818,-5.4818,-5.6242,-5.728,-5.7011,-5.7896,-5.8088,-5.6714,-5.656,-5.6214,-5.5357,-5.528,-5.4934,-5.4126,-5.4049,-5.3664,-5.2779,-5.3549,-5.351,-5.2356,-5.3485,-5.3481,-5.2067,-5.2186,-5.1916,0.0,0.0,0.0,0.0,0.0,0.0,0.0,0.0,0.0,0.0,0.0,0.0,0.0,0.0,0.0,0.0,0.0,0.0,0.0,0.0,0.0,0.0,0.0,0.0,0.0,-4.7681,-4.9336,-5.2155,-5.2136,-5.2231,-5.3087,-5.2433,-5.2318,-5.3126,-5.4511,-5.5318,-5.5318,-5.7203,-5.8165,-5.7857,-5.728,-5.7126,-5.7434,-5.6896,-5.6626,-5.6626,-5.7165,-5.728,-5.6973,-5.6973,-5.6819,-5.6549,-5.6011,-5.578,-5.5742,-5.5164,-5.528,-5.5703,-5.5088,-5.4857,-5.4895,-5.5203,-5.528,-5.5318,-5.5588,-5.5703,-5.5511,-5.4395,-5.3664,-5.3087,-5.2549,-5.2741,-5.3318,-5.3895,-5.4857,-5.5818,-5.6406,-5.7203,-5.7857,-5.7857,-5.8088,-5.8204,-5.7934,-5.7857,-5.7588,-5.6753,-5.6549,-5.6472,-5.6203,-5.7357,-5.8319,-5.8319,-5.8742,-5.8588,-5.7176,-5.6983,-5.6676,-5.578,-5.5703,-5.5472,-5.4934,-5.5434,-5.5164,-5.3741,-5.4703,-5.4703,-5.328,-5.4857,-5.5401,-5.4636,-5.5061,-5.4688,-5.3379,0.0,0.0,0.0,0.0,0.0,0.0,0.0,0.0,0.0,0.0,0.0,0.0,0.0,0.0,0.0,0.0,0.0,0.0,0.0,0.0,0.0,0.0,0.0,-4.8667,-4.8438,-4.9644,-5.2877,-5.2462,-5.2923,-5.5434,-5.4934,-5.4818,-5.5665,-5.656,-5.706,-5.7137,-5.7973,-5.8819,-5.955,-5.9588,-5.9973,-6.0819,-6.0819,-6.0819,-6.0781,-6.0819,-6.0396,-5.955,-5.955,-5.9088,-5.8357,-5.8357,-5.8319,-5.8319,-5.8319,-5.8319,-5.7973,-5.4626,-5.3318,-5.3433,-5.4241,-5.4549,-5.4664,-5.5434,-5.5703,-5.5703,-5.5665,-5.5665,-5.5665,-5.5626,-5.5626,-5.5665,-5.5665,-5.5703,-5.5742,-5.5742,-5.6406,-5.706,-5.706,-5.7703,-5.8088,-5.7214,-5.706,-5.6791,-5.5895,-5.7165,-5.805,-5.7137,-5.7742,-5.8319,-5.8319,-5.8319,0.0,-5.7137,-5.7022,-5.6676,-5.5818,-5.5742,-5.5742,-5.5742,-5.728,-5.7203,-5.4703,-5.606,-5.5818,-5.3356,-5.6434,-5.778,-5.6917,-5.8017,-5.7478,-5.5134,0.0,0.0,0.0,0.0,0.0,0.0,0.0,0.0,0.0,0.0,0.0,0.0,0.0,0.0,0.0,0.0,0.0,0.0,0.0,0.0,0.0,-4.9104,-5.107,-5.1075,-5.1541,-5.2416,-5.3982,-5.3356,-5.3356,-5.4703,-5.4049,-5.4434,-5.6483,-5.7434,-5.8473,-5.9704,-6.1127,-6.1743,-6.1408,-6.1408,-6.1512,-6.1755,-6.1755,-6.1435,-6.0819,-6.1435,-6.1293,-6.0435,-6.0435,-5.9973,-5.9165,-5.9165,-5.8858,-5.8319,-5.8319,-5.8319,-5.8127,-5.6549,-5.5983,-5.5895,-5.5511,-5.5357,-5.5395,-5.5626,-5.5703,-5.5588,-5.5011,-5.4818,-5.4703,-5.4087,-5.4318,-5.4818,-5.4818,-5.5703,-5.6637,-5.6637,-5.728,-5.7934,-5.7934,-5.8127,-5.8242,-5.7973,-5.7934,-5.7665,-5.683,-5.8011,-5.8511,-5.6434,-5.778,-5.8973,-5.8396,-5.8819,-5.8858,-5.805,-5.7396,-5.6907,-5.6676,-5.6637,-5.6637,-5.6637,-5.7099,-5.678,-5.5434,-5.578,-5.5472,-5.4203,-5.5049,-5.518,-5.4409,-5.5932,-5.6466,0.0,0.0,0.0,0.0,0.0,0.0,0.0,0.0,0.0,0.0,0.0,0.0,0.0,0.0,0.0,0.0,0.0,0.0,0.0,0.0,0.0,0.0,-5.1273,-5.3079,-5.2636,-5.2627,-5.3126,-5.4357,-5.3741,-5.3664,-5.4895,-5.4549,-5.528,-5.7857,-5.8858,-5.9935,-6.1281,-6.2935,-6.3628,-6.3166,-6.3524,-6.3678,-6.3678,-6.3678,-6.3447,-6.2935,-6.3435,-6.3243,-6.2397,-6.2397,-6.1935,-6.1089,-6.1089,-6.0627,-5.9896,-5.9896,-5.9665,-5.9242,0.0,0.0,0.0,0.0,-5.678,-5.678,-5.678,-5.678,-5.6703,-5.6242,-5.6088,-5.6011,-5.5511,-5.5703,-5.6088,-5.6088,-5.678,-5.755,-5.755,-5.8165,-5.8819,-5.8819,-5.9088,-5.9242,-5.8896,-5.8819,-5.855,-5.7703,-5.8588,0.0,-5.7088,-5.8588,-5.9896,-5.9435,-5.9742,-5.9742,-5.8896,-5.8357,-5.7934,-5.7588,-5.755,-5.755,-5.755,-5.8204,0.0,0.0,0.0,-5.7088,-5.6626,-5.6318,0.0,0.0,0.0,0.0,0.0,0.0,0.0,0.0,-5.4566,-5.3772,0.0,0.0,0.0,0.0,0.0,0.0,0.0,0.0,0.0,0.0,0.0,0.0,0.0,0.0,0.0,0.0,-5.389,-5.5353,-5.3745,-5.2743,-5.2771,-5.4318,-5.3895,-5.4087,-5.5703,-5.6011,-5.7165,-5.9627,-6.0589,-6.1512,-6.2486,-6.3935,0.0,0.0,0.0,-6.5897,-6.5897,-6.5897,-6.5897,-6.5897,-6.5897,-6.5474,-6.4743,-6.4743,-6.4205,-6.3308,-6.3308,-6.2781,-6.1947,-6.1947,-6.1512,-6.0627,-5.905,-5.8396,-5.8319,-5.8319,-5.8319,-5.8319,-5.8319,0.0,0.0,-5.8319,-5.8319,-5.8319,-5.8319,-5.8319,-5.8319,-5.8319,-5.8319,-5.8319,-5.8319,-5.8819,-5.9358,-5.9358,-5.9973,-6.0319,-5.9511,-5.9358,-5.9165,-5.8434,-5.8934,-5.9281,-5.855,-5.9742,-6.0781,-6.0666,-6.0666,-6.0358,-5.9588,-5.9435,-5.9127,-5.8511,-5.8434,0.0,-5.8434,-5.9781,-5.9627,-5.7291,-5.855,-5.9358,-5.9358,-5.8781,-5.8776,-5.9395,-5.8821,-5.7814,-5.6365,-5.6452,-5.6606,-5.6716,-5.6499,-5.5549,0.0,0.0,0.0,0.0,0.0,0.0,0.0,0.0,0.0,0.0,0.0,0.0,0.0,0.0,0.0,-5.2972,-5.3662,-5.4385,-5.528,-5.4666,-5.425,-5.4465,-5.4934,-5.5626,-5.6637,-5.7973,-5.955,-6.1447,-6.2358,-6.3512,-6.5089,-6.5474,-6.5628,-6.5628,-6.582,-6.5897,-6.5897,-6.5897,-6.5897,-6.5897,-6.5897,0.0,-6.5628,-6.5628,-6.4782,-6.3308,-6.3308,-6.2435,-6.105,-6.105,-6.0935,-6.0704,-5.9665,-5.8858,-5.8319,-5.8319,-5.8319,-5.8319,-5.8319,-5.8319,-5.8319,-5.8319,-5.8319,-5.8319,-5.8319,-5.8319,0.0,-5.8319,-5.8319,-5.8319,-5.8319,-5.8434,-5.855,-5.855,-5.8665,-5.8742,-5.8588,-5.855,-5.8511,-5.8319,-5.8934,-5.9435,-5.9281,-6.0127,-6.055,-5.9858,-5.9742,-5.9704,-5.9511,-5.8934,-5.8704,-5.9204,-5.9281,-5.9281,-5.9281,-5.9588,-5.9242,-5.8127,-5.8357,-5.855,-5.855,-5.8413,-5.8088,-5.752,-5.7508,-5.7024,-5.6064,-5.6897,-5.7312,-5.7299,-5.6816,-5.6364,0.0,0.0,0.0,0.0,0.0,0.0,0.0,0.0,0.0,0.0,0.0,-5.1172,-5.2461,0.0,-5.3256,-5.3642,-5.4368,-5.5135,-5.5792,-5.5924,-5.5921,-5.5845,-5.6133,-5.7022,-5.8753,-5.9665,-6.105,-6.3205,-6.3705,-6.4512,-6.582,-6.6282,-6.6513,-6.6513,-6.6936,-6.7167,-6.7167,-6.7167,-6.7167,-6.7167,-6.7167,-6.7167,-6.7128,-6.6705,-6.6013,-6.5166,-6.4782,-6.3897,-6.2627,-6.1781,-6.1447,-6.1358,-6.0473,-5.9896,-5.955,-5.955,-5.955,-5.955,-5.955,-5.955,-5.955,-5.955,-5.955,-5.955,-5.955,-5.955,-5.955,-5.955,-5.955,-5.955,-5.955,-5.955,-5.955,-5.955,-5.955,-5.955,-5.955,-5.955,-5.955,-5.955,-5.9896,-6.0165,-6.0165,-6.0512,-6.0666,-6.0204,-6.0165,-6.0165,-6.0165,-5.9781,-5.9704,-6.0127,-6.0165,-6.0165,-6.0165,-5.9742,-5.9319,-5.8934,-5.8511,-5.8319,-5.8319,-5.8371,-5.8211,-5.7757,-5.7878,-5.7794,-5.7448,-5.7944,-5.8233,-5.8353,-5.8042,-5.7615,0.0,0.0,0.0,0.0,0.0,0.0,0.0,-4.9453,-4.9726,-5.2812,-5.2891,-5.2851,-5.4258,-5.4241,-5.4125,-5.4289,-5.54,-5.6236,-5.6258,-5.6978,-5.7568,-5.7723,-5.7748,-5.8561,-6.0589,-6.1243,-6.2397,-6.4436,-6.4897,-6.5397,-6.609,-6.6898,-6.7359,-6.7359,-6.8052,-6.8385,-6.8385,-6.8385,-6.8385,-6.8385,-6.8385,-6.8385,-6.8398,-6.7667,-6.7167,-6.6821,-6.582,-6.5013,-6.4243,-6.2897,-6.232,-6.2243,-6.155,-6.1281,-6.1243,-6.0935,-6.0781,-6.0781,-6.0781,-6.0781,-6.0781,-6.0781,-6.0781,-6.0781,-6.0781,-6.0781,-6.0781,-6.0781,-6.0781,-6.0781,-6.0781,-6.0781,-6.0781,-6.0781,-6.0781,-6.0781,-6.0781,-6.0781,-6.0781,-6.0781,-6.0781,-6.0781,-6.0781,-6.0781,-6.0781,-6.0781,-6.0781,-6.0781,-6.0781,-6.0781,-6.0781,-6.0781,-6.0781,-6.0781,-6.0781,-6.0165,-5.9742,-5.9742,-5.9127,-5.8781,-5.8781,-5.8877,-5.8943,-5.8943,-5.9085,-5.9199,-5.9295,-5.9361,-5.9444,-5.96,-5.9644,-5.9053,-4.5508,-4.4726,-4.5625,-4.8828,-4.8945,-4.9414,0.0,-5.3906,-5.3828,-5.5781,-5.6094,-5.6094,-5.6289,-5.5573,-5.5226,-5.5962,-5.6274,-5.6656,-5.7382,-5.8116,-5.8809,-5.958,-6.0094,-6.0473,-6.0781,-6.2858,-6.4282,-6.4589,-6.5974,-6.6859,-6.6974,-6.7782,-6.8244,-6.8244,-6.8359,-6.8385,-6.8385,-6.8385,-6.8385,-6.8385,-6.8385,-6.8385,-6.8385,-6.8321,-6.7436,-6.5936,-6.432,-6.3538,-6.3435,-6.3243,-6.3166,-6.3166,-6.3051,-6.3012,-6.2858,-6.1358,-6.0781,-6.0781,-6.0781,-6.0781,-6.0781,-6.0781,-6.0781,-6.0781,-6.0781,-6.0781,-6.0781,-6.0781,-6.0781,-6.0781,-6.0781,-6.0781,-6.0781,-6.0781,-6.0781,-6.0781,-6.0781,-6.0781,-6.0781,-6.0781,-6.0781,-6.0781,-6.0781,-6.0781,-6.0781,-6.0781,-6.0781,-6.0781,-6.0781,-6.0781,-6.0781,-6.0781,-6.0781,-6.0781,-6.0781,-6.0704,-6.0666,-6.0666,-6.055,-6.0512,-6.0512,-6.0546,-6.0519,-6.0519,-6.0683,-6.0738,-6.0763,-6.0929,-6.1045,-6.1066,-6.1208,-6.0446,-4.8984,-4.9101,-4.9961,-5.1914,-5.1758,-5.1836,-5.4648,-5.4648,-5.4648,-5.6875,-5.7344,-5.7344,-5.7344,-5.6938,-5.6602,-5.6511,-5.6885,-5.7448,-5.8262,-5.8996,-5.973,-6.0483,-6.1561,-6.2243,-6.2243,-6.4128,-6.5551,-6.6013,-6.7167,-6.7859,-6.7859,-6.8667,-6.9167,-6.9167,-6.9629,-6.986,-6.986,-6.986,-6.986,-6.986,-6.986,-6.986,-6.986,-6.936,-6.8205,-6.6551,-6.582,-6.5243,-6.4782,-6.4282,-6.4051,-6.4012,-6.3512,-6.3308,-6.3166,-6.1973,-6.1562,-6.1473,-6.0973,-6.0781,-6.0781,-6.0781,-6.0781,-6.0781,-6.0781,-6.0781,-6.0781,-6.0781,-6.0781,-6.0781,-6.0781,-6.0781,-6.0781,-6.0781,-6.0781,-6.0781,-6.0781,-6.0781,-6.0781,-6.0781,-6.1204,-6.1562,-6.1562,-6.1935,-6.2243,-6.2243,-6.1435,-6.0781,-6.0781,-6.0781,-6.0781,-6.0781,-6.0781,-6.0781,-6.0781,-6.0781,-6.0781,-6.0781,-6.0781,-6.0781,-6.0781,-6.0781,-6.0781,-6.0781,-6.0916,-6.0997,-6.1006,-6.1207,-6.1334,-6.1404,-6.1488,-6.1186,-5.1875,-5.2383,-5.2969,-5.4062,-5.3867,-5.3828,-5.5312,-5.5156,-5.5312,-5.7461,-5.789,-5.7969,-5.8203,-5.8194,-5.7952,-5.7382,-5.8155,-5.8916,-5.9265,-6.0105,-6.089,-6.1376,-6.2738,-6.3743,-6.4012,-6.5359,-6.6551,-6.7398,-6.8282,-6.8783,-6.8783,-6.959,-7.0014,-7.0014,-7.0591,-7.0898,-7.0898,-7.0898,-7.0898,-7.0898,-7.0898,-7.0898,-7.086,-7.0052,-6.9013,-6.7782,-6.7321,-6.6782,-6.6167,-6.532,-6.4974,-6.4897,-6.4282,-6.4012,-6.3935,-6.3089,-6.2627,-6.232,-6.1704,-6.1473,-6.1473,-6.1473,-6.1473,-6.1435,-6.1243,-6.1166,-6.1089,-6.0858,-6.0781,-6.0781,-6.0781,-6.0781,-6.0781,-6.0781,-6.0973,-6.1166,-6.1166,-6.132,-6.1473,-6.1473,-6.2012,-6.2435,-6.2435,-6.2897,-6.3308,-6.3308,-6.2281,-6.1473,-6.1473,-6.1473,-6.1473,-6.1473,-6.1473,-6.1473,-6.1473,-6.1473,-6.1473,-6.1473,-6.1473,-6.1473,-6.1473,-6.1473,-6.1473,-6.1473,-6.1569,-6.1631,-6.1631,-6.1801,-6.1906,-6.1985,-6.2098,-6.2203,-5.3672,-5.332,-5.3125,-5.4844,-5.5234,-5.5469,-5.6367,-5.6523,-5.6797,-5.7695,-5.789,-5.8164,-5.8984,-5.914,-5.914,-5.9101,-6.0508,-6.1289,-6.0469,-6.1598,-6.2496,-6.2477,-6.369,-6.4897,-6.5743,-6.6551,-6.7436,-6.8321,-6.9167,-6.9667,-6.9667,-7.0437,-7.086,-7.086,-7.0898,-7.0898,-7.0898,-7.0898,-7.0898,-7.0898,-7.0898,-7.0898,-7.086,-7.0052,-6.9667,-6.9513,-6.7821,-6.709,-6.7013,-6.6205,-6.5859,-6.5859,-6.582,-6.582,-6.5705,-6.4859,-6.3974,-6.3281,-6.3231,-6.3243,-6.3243,-6.3243,-6.3243,-6.3089,-6.2293,-6.2062,-6.187,-6.105,-6.0781,-6.0781,-6.0781,-6.0781,-6.0781,-6.0781,-6.1447,-6.2062,-6.2062,-6.2666,-6.3243,-6.3243,-6.3231,-6.3281,-6.3281,-6.3269,-6.3308,-6.3308,-6.3281,-6.3243,-6.3243,-6.3243,-6.3243,-6.3243,-6.3243,-6.3243,-6.3243,-6.3243,-6.3243,-6.3243,-6.3243,-6.3243,-6.3243,-6.3243,-6.3243,-6.3243,-6.3243,-6.3217,-6.3217,-6.3217,-6.3229,-6.3253,-6.3581,-6.3747,-5.4219,-5.4648,-5.543,-5.6015,-5.6172,-5.625,-5.6523,-5.6601,-5.6836,-5.7734,-5.789,-5.8164,-5.9023,-5.9219,-5.9219,-5.9219,-6.0625,-6.1601,-6.1289,-6.2496,-6.3585,-6.4163,-6.4948,-6.6013,-6.7436,-6.8321,-6.8936,-6.9244,-7.0014,-7.0514,-7.0514,-7.0744,-7.0898,-7.0898,-7.0898,-7.0898,-7.0898,-7.0898,-7.0898,-7.0898,-7.0898,-7.0898,-7.086,-7.0052,-6.9398,-6.8783,-6.759,-6.6782,-6.6282,-6.6013,-6.5897,-6.5897,-6.5897,-6.5897,-6.5859,-6.5551,-6.5282,-6.4859,-6.3705,-6.3308,-6.3308,-6.3308,-6.3308,-6.3231,-6.2974,-6.2897,-6.2858,-6.2551,-6.2474,-6.2474,-6.2474,-6.2474,-6.2474,-6.2474,-6.2666,-6.2897,-6.2897,-6.3128,-6.3308,-6.3308,-6.3782,-6.4166,-6.4166,-6.4628,-6.5013,-6.5013,-6.4051,-6.3308,-6.3308,-6.3308,-6.3308,-6.3308,-6.3308,-6.3308,-6.3308,-6.3308,-6.3308,-6.3308,-6.3308,-6.3308,-6.3308,-6.3308,-6.3308,-6.3308,-6.3308,-6.3308,-6.3308,-6.3308,-6.3376,-6.3495,-6.3704,-6.387,-5.5156,-5.5742,-5.6601,-5.6601,-5.6601,-5.6601,-5.6601,-5.6601,-5.6836,-5.7734,-5.7656,-5.7812,-5.8984,-5.9219,-5.9297,-5.957,-6.1055,-6.2148,-6.2148,-6.3393,-6.4591,-6.544,-6.6291,-6.7359,-6.8744,-6.9629,-7.0129,-7.0129,-7.0591,-7.0898,-7.0898,-7.0898,-7.0898,-7.0898,-7.0898,-7.0898,-7.0898,-7.0898,-7.0898,-7.0898,-7.0898,-7.0744,-7.0437,-6.9937,-6.9206,-6.8359,-6.7475,-6.6821,-6.632,-6.6013,-6.5897,-6.5897,-6.5897,-6.5897,-6.5897,-6.5897,-6.5897,-6.5743,-6.4628,-6.4243,-6.4243,-6.4243,-6.4243,-6.4166,-6.3858,-6.3782,-6.3705,-6.3397,-6.3308,-6.3308,-6.3308,-6.3308,-6.3308,-6.3308,-6.3538,-6.3782,-6.3782,-6.4012,-6.4243,-6.4243,-6.4666,-6.5051,-6.5051,-6.5513,-6.5897,-6.5897,-6.4936,-6.4243,-6.4243,-6.4243,-6.4243,-6.4243,-6.4243,-6.4243,-6.4243,-6.4243,-6.4243,-6.4243,-6.4243,-6.4243,-6.4243,-6.4243,-6.4243,-6.4243,-6.4243,-6.4243,-6.4243,-6.4243,-6.4301,-6.4412,-6.4549,-6.4746,-5.6406,-5.6601,-5.6601,-5.6601,-5.6601,-5.6601,-5.664,-5.668,-5.6914,-5.7734,-5.7226,-5.7187,-5.8828,-5.918,-5.9453,-6.0273,-6.1914,-6.3086,-6.3086,-6.4326,-6.5557,-6.6406,-6.7684,-6.8821,-6.9667,-7.0437,-7.0898,-7.0898,-7.0898,-7.0898,-7.0898,-7.0898,-7.0898,-7.0898,-7.0898,-7.0898,-7.0898,-7.0898,-7.0898,-7.0898,-7.0898,-7.0514,-6.9744,-6.9706,-6.9244,-6.8436,-6.7552,-6.7128,-6.7051,-6.6282,-6.5936,-6.5897,-6.5897,-6.5897,-6.5897,-6.5897,-6.5897,-6.5897,-6.5897,-6.5897,-6.5897,-6.5897,-6.5897,-6.5743,-6.4936,-6.4666,-6.4474,-6.3666,-6.3435,-6.3435,-6.3435,-6.3435,-6.3435,-6.3435,-6.4051,-6.4666,-6.4666,-6.532,-6.5897,-6.5897,-6.5897,-6.5897,-6.5897,-6.5897,-6.5897,-6.5897,-6.5897,-6.5897,-6.5897,-6.5897,-6.5897,-6.5897,-6.5897,-6.5897,-6.5897,-6.5897,-6.5897,-6.5897,-6.5897,-6.5897,-6.5897,-6.5897,-6.5897,-6.5897,-6.5897,-6.5897,-6.5897,-6.5897,-6.5897,-6.591,-6.6028,-6.6195,-5.6719,-5.6601,-5.6601,-5.6601,-5.6601,-5.6758,-5.7422,-5.7578,-5.7617,-5.7851,-5.7734,-5.7695,-5.8164,-5.875,-5.9453,-6.0273,-6.2422,-6.3984,-6.3984,-6.5691,-6.7269,-6.8157,-6.8921,-6.9706,-7.0514,-7.0783,-7.0898,-7.0898,-7.0898,-7.0898,-7.0898,-7.0898,-7.0898,-7.0898,-7.0898,-7.0898,-7.0898,-7.0898,-7.0898,-7.0898,-7.0898,-7.0783,-7.0552,-6.9975,-6.959,-6.9321,-6.8436,-6.7705,-6.709,-6.6859,-6.6436,-6.5897,-6.5897,-6.5897,-6.5897,-6.5897,-6.5897,-6.5897,-6.5897,-6.5897,-6.5897,-6.5897,-6.5897,-6.5859,-6.5628,-6.5551,-6.5513,-6.5282,-6.5243,-6.5243,-6.5243,-6.5243,-6.5243,-6.5243,-6.5397,-6.5551,-6.5551,-6.5743,-6.5897,-6.5897,-6.5897,-6.5897,-6.5897,-6.5897,-6.5897,-6.5897,-6.5897,-6.5897,-6.5897,-6.5897,-6.5897,-6.5897,-6.5897,-6.5897,-6.5897,-6.5897,-6.5897,-6.5897,-6.5897,-6.5897,-6.5897,-6.5897,-6.5897,-6.5897,-6.5897,-6.5897,-6.5897,-6.5897,-6.5897,-6.591,-6.6028,-6.6195,-5.7187,-5.6875,-5.668,-5.707,-5.7187,-5.7187,-5.7305,-5.7617,-5.7773,-5.7422,-5.7031,-5.6992,-5.7773,-5.8281,-5.9023,-6.0195,-6.2265,-6.3867,-6.4258,-6.6194,-6.7924,-6.8812,-6.9695,-7.0398,-7.086,-7.0898,-7.0898,-7.0898,-7.0898,-7.0898,-7.0898,-7.0898,-7.0898,-7.0898,-7.0898,-7.0898,-7.0898,-7.0898,-7.0898,-7.0898,-7.0898,-7.0706,-7.036,-6.9898,-6.9283,-6.8513,-6.8052,-6.7359,-6.6551,-6.6551,-6.632,-6.5897,-6.5897,-6.5897,-6.5897,-6.5897,-6.5897,-6.5897,-6.5897,-6.5897,-6.5897,-6.5897,-6.5897,-6.5897,-6.5897,-6.5897,-6.5897,-6.5897,-6.5897,-6.5897,-6.5897,-6.5897,-6.5897,-6.5897,-6.5897,-6.5897,-6.5897,-6.5897,-6.5897,-6.5897,-6.5897,-6.5897,-6.5897,-6.5897,-6.5897,-6.5897,-6.5897,-6.5897,-6.5897,-6.5897,-6.5897,-6.5897,-6.5897,-6.5897,-6.5897,-6.5897,-6.5897,-6.5897,-6.5897,-6.5897,-6.5897,-6.5897,-6.5897,-6.5897,-6.5897,-6.5897,-6.5897,-6.5897,-6.5897,-6.591,-6.5974,-6.6137,-5.7656,-5.7265,-5.6797,-5.7695,-5.789,-5.7695,-5.6953,-5.7461,-5.7773,-5.6797,-5.6015,-5.5898,-5.7305,-5.7539,-5.8125,-5.9961,-6.1601,-6.3047,-6.41,-6.6104,-6.7786,-6.8744,-6.9971,-7.0783,-7.0898,-7.0898,-7.0898,-7.0898,-7.0898,-7.0898,-7.0898,-7.0898,-7.0898,-7.0898,-7.0898,-7.0898,-7.0898,-7.0898,-7.0898,-7.0898,-7.0898,-7.0514,-6.986,-6.9744,-6.8898,-6.7436,-6.7321,-6.6821,-6.6051,-6.6051,-6.6013,-6.5897,-6.5897,-6.5897,-6.5897,-6.5897,-6.5897,-6.5897,-6.5897,-6.5897,-6.5897,-6.5897,-6.5897,-6.5897,-6.5897,-6.5897,-6.5897,-6.5897,-6.5897,-6.5897,-6.5897,-6.5897,-6.5897,-6.5897,-6.5897,-6.5897,-6.5897,-6.5897,-6.5897,-6.5897,-6.5897,-6.5897,-6.5897,-6.5897,-6.5897,-6.5897,-6.5897,-6.5897,-6.5897,-6.5897,-6.5897,-6.5897,-6.5897,-6.5897,-6.5897,-6.5897,-6.5897,-6.5897,-6.5897,-6.5897,-6.5897,-6.5897,-6.5897,-6.5897,-6.5897,-6.5897,-6.5897,-6.5897,-6.5897,-6.5897,-6.5897,-6.6077,-5.7656,-5.7265,-5.6797,-5.7695,-5.789,-5.7851,-5.7695,-5.8359,-5.8515,-5.6914,-5.6484,-5.625,-5.582,-5.5742,-5.6562,-5.9023,-6.0234,-6.1638,-6.3831,-6.5548,-6.7129,-6.85,-6.9393,-7.0167,-7.0821,-7.0898,-7.0898,-7.0898,-7.0898,-7.0898,-7.0898,-7.0898,-7.0898,-7.0898,-7.0898,-7.0898,-7.0898,-7.0898,-7.0898,-7.0898,-7.0898,-7.0821,-7.0667,-7.0014,-6.9552,-6.9206,-6.8475,-6.7705,-6.6898,-6.6898,-6.6513,-6.5897,-6.5897,-6.5897,-6.5897,-6.5897,-6.5897,-6.5897,-6.5897,-6.5897,-6.5897,-6.5897,-6.5897,-6.5897,-6.5897,-6.5897,-6.5897,-6.5897,-6.5897,-6.5897,-6.5897,-6.5897,-6.5897,-6.5897,-6.5897,-6.5897,-6.5897,-6.5897,-6.5897,-6.5897,-6.5897,-6.5897,-6.5897,-6.5897,-6.5897,-6.5897,-6.5897,-6.5897,-6.5897,-6.5897,-6.5897,-6.5897,-6.5897,-6.5897,-6.5897,-6.5897,-6.5897,-6.5897,-6.5897,-6.5897,-6.5897,-6.5897,-6.5897,-6.5897,-6.5897,-6.5897,-6.5897,-6.5897,-6.5897,-6.5897,-6.5897,-6.6077,-5.8203,-5.7617,-5.7031,-5.8789,-5.8906,-5.8476,-5.8008,-5.8203,-5.8047,-5.6289,-5.5195,-5.457,-5.4609,-5.4609,-5.5195,-5.6875,-5.9375,-6.1483,-6.2683,-6.5264,-6.7468,-6.8605,-6.9297,-7.0014,-7.0821,-7.0898,-7.0898,-7.0898,-7.0898,-7.0898,-7.0898,-7.0898,-7.0898,-7.0898,-7.0898,-7.0898,-7.0898,-7.0898,-7.0898,-7.0898,-7.0898,-7.0667,-7.0244,-6.9898,-6.9206,-6.8321,-6.7898,-6.7244,-6.6474,-6.6474,-6.6244,-6.5897,-6.5897,-6.5897,-6.5897,-6.5897,-6.5897,-6.5897,-6.5897,-6.5897,-6.5897,-6.5897,-6.5897,-6.5897,-6.5897,-6.5897,-6.5897,-6.5897,-6.5897,-6.5897,-6.5897,-6.5897,-6.5897,-6.5897,-6.5897,-6.5897,-6.5897,-6.5897,-6.5897,-6.5897,-6.5897,-6.5897,-6.5897,-6.5897,-6.5897,-6.5897,-6.5897,-6.5897,-6.5897,-6.5897,-6.5897,-6.5897,-6.5897,-6.5897,-6.5897,-6.5897,-6.5897,-6.5897,-6.5897,-6.5897,-6.5897,-6.5897,-6.5897,-6.5897,-6.5897,-6.5897,-6.5897,-6.5897,-6.5897,-6.5897,-6.5897,-6.6077,-5.8515,-5.793,-5.7383,-5.9609,-5.9805,-5.914,-5.789,-5.7773,-5.7187,-5.4726,-5.3125,-5.2266,-5.2578,-5.293,-5.3516,-5.457,-5.8047,-6.0781,-6.1326,-6.4345,-6.7015,-6.8411,-6.9071,-6.9821,-7.0783,-7.0898,-7.0898,-7.0898,-7.0898,-7.0898,-7.0898,-7.0898,-7.0898,-7.0898,-7.0898,-7.0898,-7.0898,-7.0898,-7.0898,-7.0898,-7.0898,-7.0552,-6.9937,-6.9783,-6.8936,-6.7628,-6.7244,-6.6744,-6.6128,-6.5974,-6.5897,-6.5897,-6.5897,-6.5897,-6.5897,-6.5897,-6.5897,-6.5897,-6.5897,-6.5897,-6.5897,-6.5897,-6.5897,-6.5897,-6.5897,-6.5897,-6.5897,-6.5897,-6.5897,-6.5897,-6.5897,-6.5897,-6.5897,-6.5897,-6.5897,-6.5897,-6.5897,-6.5897,-6.5897,-6.5897,-6.5897,-6.5897,-6.5897,-6.5897,-6.5897,-6.5897,-6.5897,-6.5897,-6.5897,-6.5897,-6.5897,-6.5897,-6.5897,-6.5897,-6.5897,-6.5897,-6.5897,-6.5897,-6.5897,-6.5897,-6.5897,-6.5897,-6.5897,-6.5897,-6.5897,-6.5897,-6.5897,-6.5897,-6.5897,-6.5897,-6.5897,-6.6046,-5.7773,-5.789,-5.8047,-5.9062,-5.9805,-5.9648,-5.7265,-5.7344,-5.6523,-5.168,-5.0547,-4.9961,-4.8476,-4.9492,-5.1055,-5.2695,-5.5273,-5.7848,-6.0032,-6.187,-6.4114,-6.7174,-6.8135,-6.9167,-7.0744,-7.0898,-7.0898,-7.0898,-7.0898,-7.0898,-7.0898,-7.0898,-7.0898,-7.0898,-7.0898,-7.0898,-7.0898,-7.0898,-7.0898,-7.0898,-7.0898,-7.086,-7.0744,-7.0014,-6.9629,-6.936,-6.7782,-6.7051,-6.6936,-6.6205,-6.5897,-6.5897,-6.5897,-6.5897,-6.5897,-6.5897,-6.5897,-6.5897,-6.5897,-6.5897,-6.5897,-6.5897,-6.5897,-6.5897,-6.5897,-6.5897,-6.5897,-6.5897,-6.5897,-6.5897,-6.5897,-6.5897,-6.5897,-6.5897,-6.5897,-6.5897,-6.5897,-6.5897,-6.5897,-6.5897,-6.5897,-6.5897,-6.5897,-6.5897,-6.5897,-6.5897,-6.5897,-6.5897,-6.5897,-6.5897,-6.5897,-6.5897,-6.5897,-6.5897,-6.5897,-6.5897,-6.5897,-6.5897,-6.5897,-6.5897,-6.5897,-6.5897,-6.5897,-6.5897,-6.5897,-6.5897,-6.5897,-6.5897,-6.5897,-6.5897,-6.5897,-6.5974,-5.7656,-5.8281,-5.8867,-5.9726,-5.9023,-5.7851,-5.6836,-5.4883,-5.2539,-4.9961,-4.8164,-4.7031,-4.6836,-4.7812,-4.9023,-5.0234,-5.3906,-5.7304,-5.9327,-6.1849,-6.466,-6.7899,-6.8413,-6.9138,-7.0758,-7.0898,-7.0898,-7.0898,-7.0898,-7.0898,-7.0898,-7.0898,-7.0898,-7.0898,-7.0898,-7.0898,-7.0898,-7.0898,-7.0898,-7.0898,-7.0898,-7.0667,-7.0167,-6.986,-6.9398,-6.8859,-6.7628,-6.709,-6.7051,-6.6244,-6.5897,-6.5897,-6.5897,-6.5897,-6.5897,-6.5897,-6.5897,-6.5897,-6.5897,-6.5897,-6.5897,-6.5897,-6.5897,-6.5897,-6.5897,-6.5897,-6.5897,-6.5897,-6.5897,-6.5897,-6.5897,-6.5897,-6.5897,-6.5897,-6.5897,-6.5897,-6.5897,-6.5897,-6.5897,-6.5897,-6.5897,-6.5897,-6.5897,-6.5897,-6.5897,-6.5897,-6.5897,-6.5897,-6.5897,-6.5897,-6.5897,-6.5897,-6.5897,-6.5897,-6.5897,-6.5897,-6.5897,-6.5897,-6.5897,-6.5897,-6.5897,-6.5897,-6.5897,-6.5897,-6.5897,-6.5897,-6.5897,-6.5897,-6.5897,-6.5897,-6.5897,-6.5951,-5.7656,-5.8711,-5.9687,-6.0273,-5.8672,-5.6836,-5.6328,-5.3086,-4.9726,-4.8086,-4.6094,-4.4805,-4.543,-4.6445,-4.7578,-4.8711,-5.2812,-5.6367,-5.7851,-6.0876,-6.415,-6.7347,-6.8041,-6.8955,-7.0733,-7.0898,-7.0898,-7.0898,-7.0898,-7.0898,-7.0898,-7.0898,-7.0898,-7.0898,-7.0898,-7.0898,-7.0898,-7.0898,-7.0898,-7.0898,-7.0898,-7.0591,-7.0052,-7.0052,-6.9706,-6.909,-6.7975,-6.7475,-6.7398,-6.632,-6.5897,-6.5897,-6.5897,-6.5897,-6.5897,-6.5897,-6.5897,-6.5897,-6.5897,-6.5897,-6.5897,-6.5897,-6.5897,-6.5897,-6.5897,-6.5897,-6.5897,-6.5897,-6.5897,-6.5897,-6.5897,-6.5897,-6.5897,-6.5897,-6.5897,-6.5897,-6.5897,-6.5897,-6.5897,-6.5897,-6.5897,-6.5897,-6.5897,-6.5897,-6.5897,-6.5897,-6.5897,-6.5897,-6.5897,-6.5897,-6.5897,-6.5897,-6.5897,-6.5897,-6.5897,-6.5897,-6.5897,-6.5897,-6.5897,-6.5897,-6.5897,-6.5897,-6.5897,-6.5897,-6.5897,-6.5897,-6.5897,-6.5897,-6.5897,-6.5897,-6.5897,-6.6008,-5.7656,-5.9101,-6.039,-6.039,-5.914,-5.7422,-5.5703,-5.2656,-4.9219,-4.5742,-4.4336,-4.3711,-4.3711,-4.5156,-4.6875,-4.8633,-5.1797,-5.4336,-5.5234,-5.818,-6.1448,-6.4643,-6.6433,-6.8326,-7.0656,-7.0898,-7.0898,-7.0898,-7.0898,-7.0898,-7.0898,-7.0898,-7.0898,-7.0898,-7.0898,-7.0898,-7.0898,-7.0898,-7.0898,-7.0898,-7.0898,-7.0898,-7.0898,-7.0898,-7.0898,-7.0783,-6.9129,-6.8385,-6.8282,-6.659,-6.5897,-6.5897,-6.5897,-6.5897,-6.5897,-6.5897,-6.5897,-6.5897,-6.5897,-6.5897,-6.5897,-6.5897,-6.5897,-6.5897,-6.5897,-6.5897,-6.5897,-6.5897,-6.5897,-6.5897,-6.5897,-6.5897,-6.5897,-6.5897,-6.5897,-6.5897,-6.5897,-6.5897,-6.5897,-6.5897,-6.5897,-6.5897,-6.5897,-6.5897,-6.5897,-6.5897,-6.5897,-6.5897,-6.5897,-6.5897,-6.5897,-6.5897,-6.5897,-6.5897,-6.5897,-6.5897,-6.5897,-6.5897,-6.5897,-6.5897,-6.5897,-6.5897,-6.5897,-6.5897,-6.5897,-6.5897,-6.5897,-6.5897,-6.5897,-6.5897,-6.5897,-6.6077,-5.5156,-5.6914,-5.8398,-5.7226,-5.5156,-5.3008,-5.1328,-4.8242,-4.5273,-4.3555,-4.2578,-4.2344,-4.3476,-4.5117,-4.7266,-5.0156,-5.2539,-5.4922,-5.7578,-5.9841,-6.2438,-6.5706,-6.8412,-7.0242,-7.0862,-7.0898,-7.0898,-7.0898,-7.0898,-7.0898,-7.0898,-7.0898,-7.0898,-7.0898,-7.0898,-7.0898,-7.0898,-7.0898,-7.0898,-7.0898,-7.0898,-7.0898,-7.0898,-7.0898,-7.0898,-7.0821,-6.9129,-6.8385,-6.8282,-6.659,-6.5897,-6.5897,-6.5897,-6.5897,-6.5897,-6.5897,-6.5897,-6.5897,-6.5897,-6.5897,-6.5897,-6.5897,-6.5897,-6.5897,-6.5897,-6.5897,-6.5897,-6.5897,-6.5897,-6.5897,-6.5897,-6.5897,-6.5897,-6.5897,-6.5897,-6.5897,-6.5897,-6.5897,-6.5897,-6.5897,-6.5897,-6.5897,-6.5897,-6.5897,-6.5897,-6.5897,-6.5897,-6.5897,-6.5897,-6.5897,-6.5897,-6.5897,-6.5897,-6.5897,-6.5897,-6.5897,-6.5897,-6.5897,-6.5897,-6.5897,-6.5897,-6.5897,-6.5897,-6.5897,-6.5897,-6.5897,-6.5897,-6.5897,-6.5897,-6.591,-6.6008,-6.6165,-5.3164,-5.4922,-5.6172,-5.5078,-5.2851,-5.0586,-4.9219,-4.6211,-4.3437,-4.2578,-4.1758,-4.1797,-4.3828,-4.5625,-4.7812,-5.0898,-5.3398,-5.5742,-5.789,-6.0234,-6.3042,-6.6658,-6.9507,-7.1148,-7.1041,-7.094,-7.0898,-7.0898,-7.0898,-7.0898,-7.0898,-7.0898,-7.0898,-7.0898,-7.0898,-7.0898,-7.0898,-7.0898,-7.0898,-7.0898,-7.0898,-7.0898,-7.0898,-7.0898,-7.0744,-7.036,-6.9013,-6.8205,0.0,-6.6474,-6.5897,-6.5897,-6.5897,-6.5897,-6.5897,-6.5897,-6.5897,-6.5897,-6.5897,-6.5897,-6.5897,-6.5897,-6.5897,-6.5897,-6.5897,-6.5897,-6.5897,-6.5897,-6.5897,-6.5897,-6.5897,-6.5897,-6.5897,-6.5897,-6.5897,-6.5897,-6.5897,-6.5897,-6.5897,-6.5897,-6.5897,-6.5897,-6.5897,-6.5897,-6.5897,-6.5897,-6.5897,-6.5897,-6.5897,-6.5897,-6.5897,-6.5897,-6.5897,-6.5897,-6.5897,-6.5897,-6.5897,-6.5897,-6.5897,-6.5897,-6.5897,-6.5897,-6.5897,-6.5897,-6.5897,-6.5897,-6.5897,-6.5897,-6.5921,-6.5974,-6.6137,-6.632,0.0,-5.2969,-5.3789,-5.375,-5.1914,-4.9844,-4.8945,-4.6211,0.0,-4.2851,-4.207,-4.2305,-4.4805,-4.6641,-4.8672,-5.1328,-5.4492,-5.668,-5.6914,-5.9922,-6.355,-6.7517,-6.9911,-7.1241,-7.1182,-7.1029,-7.0898,-7.0898,-7.0898,-7.0898,-7.0898,-7.0898,-7.0898,-7.0898,-7.0898,-7.0898,-7.0898,-7.0898,-7.0898,-7.0898,-7.0898,-7.0898,-7.0898,-7.0821,-7.0398,-6.9667,-6.8706,-6.7859,-6.7051,-6.6244,-6.5897,-6.5897,-6.5897,-6.5897,-6.5897,-6.5897,-6.5897,-6.5897,-6.5897,-6.5897,-6.5897,-6.5897,-6.5897,-6.5897,-6.5897,-6.5897,-6.5897,-6.5897,-6.5897,-6.5897,-6.5897,-6.5897,-6.5897,-6.5897,-6.5897,-6.5897,-6.5897,-6.5897,-6.5897,-6.5897,-6.5897,-6.5897,-6.5897,-6.5897,-6.5897,-6.5897,-6.5897,-6.5897,-6.5897,-6.5897,-6.5897,-6.5897,-6.5897,-6.5897,-6.5897,-6.5897,-6.5897,-6.5897,-6.5897,-6.5897,-6.5897,-6.5897,-6.5897,-6.5897,-6.5897,-6.5897,-6.5897,-6.5897,-6.5951,-6.6119,-6.6305,-6.6468,-4.6601,0.0,-5.1875,-5.125,-5.0156,-4.8789,0.0,-4.6289,-4.5625,-4.543,-4.5234,-4.5703,-4.7617,-4.8867,-5.0859,-5.4765,-5.6055,-5.75,-6.0117,-6.3476,-6.6479,-6.8652,-7.0374,-7.1387,-7.1203,-7.1029,-7.0898,-7.0898,-7.0898,-7.0898,-7.0898,-7.0898,-7.0898,-7.0898,-7.0898,-7.0898,-7.0898,-7.0898,-7.0898,-7.0898,-7.0898,-7.0898,-7.0898,-7.0244,-6.9898,-6.9629,-6.8052,-6.7282,-6.7051,-6.6244,-6.5897,-6.5897,-6.5897,-6.5897,-6.5897,-6.5897,-6.5897,-6.5897,-6.5897,-6.5897,-6.5897,-6.5897,-6.5897,-6.5897,-6.5897,-6.5897,-6.5897,-6.5897,-6.5897,-6.5897,-6.5897,-6.5897,-6.5897,-6.5897,-6.5897,-6.5897,-6.5897,-6.5897,-6.5897,-6.5897,-6.5897,-6.5897,-6.5897,-6.5897,-6.5897,-6.5897,-6.5897,-6.5897,-6.5897,-6.5897,-6.5897,-6.5897,-6.5897,-6.5897,-6.5897,-6.5897,-6.5897,-6.5897,-6.5897,-6.5897,-6.5897,-6.5897,-6.5897,-6.5897,-6.5897,-6.5897,-6.5897,-6.5897,-6.5951,-6.6119,-6.6305,-6.6468,-4.5391,-4.7578,-4.9531,-4.9101,-4.8945,-4.8555,-4.7187,-4.6914,-4.6797,-4.6367,-4.6601,-4.7422,-4.918,-5.1172,-5.3437,-5.6172,-5.8242,-6.0586,-6.3672,-6.6055,-6.8084,-6.971,-7.0887,-7.1536,-7.134,-7.1158,-7.0991,-7.0912,-7.0898,-7.0898,-7.0898,-7.0898,-7.0898,-7.0898,-7.0898,-7.0898,-7.0898,-7.0898,-7.0898,-7.0898,-7.0898,-7.0706,-7.0321,-6.9898,-6.9244,-6.8436,-6.7513,-6.6898,-6.6513,-6.609,-6.5897,-6.5897,-6.5897,-6.5897,-6.5897,-6.5897,-6.5897,-6.5897,-6.5897,-6.5897,-6.5897,-6.5897,-6.5897,-6.5897,-6.5897,-6.5897,-6.5897,-6.5897,-6.5897,-6.5897,-6.5897,-6.5897,-6.5897,-6.5897,-6.5897,-6.5897,-6.5897,-6.5897,-6.5897,-6.5897,-6.5897,-6.5897,-6.5897,-6.5897,-6.5897,-6.5897,-6.5897,-6.5897,-6.5897,-6.5897,-6.5897,-6.5897,-6.5897,-6.5897,-6.5897,-6.5897,-6.5897,-6.5897,-6.5897,-6.5897,-6.5897,-6.5897,-6.5897,-6.5897,-6.5897,-6.5897,-6.5897,-6.5897,-6.5951,-6.6109,-6.6204,-6.6367,-4.5976,-4.7305,-4.8086,-4.7695,-4.8437,-4.9062,-4.8203,-4.8203,-4.8203,-4.7617,-4.8047,-4.9101,-5.0859,-5.3555,-5.5859,-5.6992,-6.0586,-6.4062,-6.6562,-6.7773,-6.8945,-7.0508,-7.1304,-7.1655,-7.1536,-7.1314,-7.1115,-7.0966,-7.0925,-7.0898,-7.0898,-7.0898,-7.0898,-7.0898,-7.0898,-7.0898,-7.0898,-7.0898,-7.0898,-7.0898,-7.0783,-7.036,-6.9706,-6.9436,-6.8513,-6.709,-6.6974,-6.6513,-6.5897,-6.5897,-6.5897,-6.5897,-6.5897,-6.5897,-6.5897,-6.5897,-6.5897,-6.5897,-6.5897,-6.5897,-6.5897,-6.5897,-6.5897,-6.5897,-6.5897,-6.5897,-6.5897,-6.5897,-6.5897,-6.5897,-6.5897,-6.5897,-6.5897,-6.5897,-6.5897,-6.5897,-6.5897,-6.5897,-6.5897,-6.5897,-6.5897,-6.5897,-6.5897,-6.5897,-6.5897,-6.5897,-6.5897,-6.5897,-6.5897,-6.5897,-6.5897,-6.5897,-6.5897,-6.5897,-6.5897,-6.5897,-6.5897,-6.5897,-6.5897,-6.5897,-6.5897,-6.5897,-6.5897,-6.5897,-6.5897,-6.5897,-6.5897,-6.5897,-6.5951,-6.6109,-6.6146,-6.6302,-4.6719,-4.9062,-5.0312,-4.8125,-4.9336,-5.0781,-5.0,-5.0898,-5.2109,-5.2695,-5.293,-5.3555,-5.5312,-5.6055,-5.7148,-5.9453,-6.2226,-6.4765,-6.664,-6.8242,-6.9609,-7.0586,-7.1304,-7.1686,-7.1671,-7.1366,-7.1201,-7.1158,-7.0991,-7.0898,-7.0898,-7.0898,-7.0898,-7.0898,-7.0898,-7.0898,-7.0898,-7.0898,-7.0898,-7.0898,-7.0206,-6.9821,-6.9667,-6.8167,-6.7359,-6.7051,-6.6359,-6.6013,-6.5897,-6.5897,-6.5897,-6.5897,-6.5897,-6.5897,-6.5897,-6.5897,-6.5897,-6.5897,-6.5897,-6.5897,-6.5897,-6.5897,-6.5897,-6.5897,-6.5897,-6.5897,-6.5897,-6.5897,-6.5897,-6.5897,-6.5897,-6.5897,-6.5897,-6.5897,-6.5897,-6.5897,-6.5897,-6.5897,-6.5897,-6.5897,-6.5897,-6.5897,-6.5897,-6.5897,-6.5897,-6.5897,-6.5897,-6.5897,-6.5897,-6.5897,-6.5897,-6.5897,-6.5897,-6.5897,-6.5897,-6.5897,-6.5897,-6.5897,-6.5897,-6.5897,-6.5897,-6.5897,-6.5897,-6.5897,-6.5897,-6.5897,-6.5897,-6.5897,-6.5951,-6.6119,-6.6268,-6.6452,-4.7031,-4.9453,-5.1133,-4.9961,-5.1953,-5.4258,-5.4336,-5.4609,-5.4805,-5.4726,-5.5078,-5.5664,-5.6445,-5.7383,-5.8984,-6.2031,-6.4297,-6.6289,-6.8008,-6.9336,-7.043,-7.1289,-7.1674,-7.1811,-7.1696,-7.1511,-7.1326,-7.1231,-7.1016,-7.0898,-7.0898,-7.0898,-7.0898,-7.0898,-7.0898,-7.0898,-7.0898,-7.0898,-7.0898,-7.0898,-7.009,-6.9436,-6.8936,-6.7667,-6.6859,-6.6436,-6.6051,-6.5897,-6.5897,-6.5897,-6.5897,-6.5897,-6.5897,-6.5897,-6.5897,-6.5897,-6.5897,-6.5897,-6.5897,-6.5897,-6.5897,-6.5897,-6.5897,-6.5897,-6.5897,-6.5897,-6.5897,-6.5897,-6.5897,-6.5897,-6.5897,-6.5897,-6.5897,-6.5897,-6.5897,-6.5897,-6.5897,-6.5897,-6.5897,-6.5897,-6.5897,-6.5897,-6.5897,-6.5897,-6.5897,-6.5897,-6.5897,-6.5897,-6.5897,-6.5897,-6.5897,-6.5897,-6.5897,-6.5897,-6.5897,-6.5897,-6.5897,-6.5897,-6.5897,-6.5897,-6.5897,-6.5897,-6.5897,-6.5897,-6.5897,-6.5897,-6.5897,-6.5897,-6.5951,-6.6109,-6.6187,-6.6354,-4.7891,-5.0078,-5.1953,-5.2969,-5.4765,-5.6523,-5.7383,-5.7226,-5.6758,-5.6328,-5.6758,-5.7344,-5.7734,-5.9219,-6.1406,-6.4414,-6.6015,-6.7578,-6.9453,-7.0273,-7.1015,-7.1914,-7.1992,-7.195,-7.1802,-7.1629,-7.1471,-7.129,-7.1085,-7.0953,-7.0898,-7.0898,-7.0898,-7.0898,-7.0898,-7.0898,-7.0898,-7.0898,-7.0821,-7.0591,-6.9783,-6.8936,-6.809,-6.7205,-6.6474,-6.5897,-6.5897,-6.5897,-6.5897,-6.5897,-6.5897,-6.5897,-6.5897,-6.5897,-6.5897,-6.5897,-6.5897,-6.5897,-6.5897,-6.5897,-6.5897,-6.5897,-6.5897,-6.5897,-6.5897,-6.5897,-6.5897,-6.5897,-6.5897,-6.5897,-6.5897,-6.5897,-6.5897,-6.5897,-6.5897,-6.5897,-6.5897,-6.5897,-6.5897,-6.5897,-6.5897,-6.5897,-6.5897,-6.5897,-6.5897,-6.5897,-6.5897,-6.5897,-6.5897,-6.5897,-6.5897,-6.5897,-6.5897,-6.5897,-6.5897,-6.5897,-6.5897,-6.5897,-6.5897,-6.5897,-6.5897,-6.5897,-6.5897,-6.5897,-6.5897,-6.5897,-6.5897,-6.5946,-6.6019,-6.6109,-6.6187,-6.6354,-5.0234,-5.1836,-5.3594,-5.7617,-5.6992,-5.5625,-5.6484,-5.7265,-5.8008,-5.8789,-5.8984,-5.9492,-6.1055,-6.2773,-6.4531,-6.6406,-6.6836,-6.7773,-7.0273,-7.0664,-7.1015,-7.1914,-7.1992,-7.1992,-7.1992,-7.1805,-7.1633,-7.1478,-7.1299,-7.1108,-7.0912,-7.0898,-7.0898,-7.0898,-7.0898,-7.0898,-7.0898,-7.0898,-7.0514,-6.9783,-6.8898,-6.8052,-6.7167,-6.6359,-6.5936,-6.5897,-6.5897,-6.5897,-6.5897,-6.5897,-6.5897,-6.5897,-6.5897,-6.5897,-6.5897,-6.5897,-6.5897,-6.5897,-6.5897,-6.5897,-6.5897,-6.5897,-6.5897,-6.5897,-6.5897,-6.5897,-6.5897,-6.5897,-6.5897,-6.5897,-6.5897,-6.5897,-6.5897,-6.5897,-6.5897,-6.5897,-6.5897,-6.5897,-6.5897,-6.5897,-6.5897,-6.5897,-6.5897,-6.5897,-6.5897,-6.5897,-6.5897,-6.5897,-6.5897,-6.5897,-6.5897,-6.5897,-6.5897,-6.5897,-6.5897,-6.5897,-6.5897,-6.5897,-6.5897,-6.5897,-6.5897,-6.5897,-6.5897,-6.5897,-6.5897,-6.5897,-6.5897,-6.6035,-6.609,-6.6119,-6.6413,-6.6564,-5.1445,-5.3633,-5.5781,-5.8515,-5.8047,-5.7422,-5.9336,-5.9219,-5.9101,-6.0469,-6.0742,-6.1094,-6.2305,-6.4375,-6.6133,-6.6797,-6.8242,-6.9609,-7.0547,-7.1172,-7.164,-7.1953,-7.1992,-7.1992,-7.1992,-7.1811,-7.1647,-7.1491,-7.1326,-7.1092,-7.0912,-7.0898,-7.0898,-7.0898,-7.0898,-7.0898,-7.0898,-7.0898,-7.0206,-6.8898,-6.8552,-6.7936,-6.7051,-6.6282,-6.5897,-6.5897,-6.5897,-6.5897,-6.5897,-6.5897,-6.5897,-6.5897,-6.5897,-6.5897,-6.5897,-6.5897,-6.5897,-6.5897,-6.5897,-6.5897,-6.5897,-6.5897,-6.5897,-6.5897,-6.5897,-6.5897,-6.5897,-6.5897,-6.5897,-6.5897,-6.5897,-6.5897,-6.5897,-6.5897,-6.5897,-6.5897,-6.5897,-6.5897,-6.5897,-6.5897,-6.5897,-6.5897,-6.5897,-6.5897,-6.5897,-6.5897,-6.5897,-6.5897,-6.5897,-6.5897,-6.5897,-6.5897,-6.5897,-6.5897,-6.5897,-6.5897,-6.5897,-6.5897,-6.5897,-6.5897,-6.5897,-6.5897,-6.5897,-6.5897,-6.5897,-6.5897,-6.5897,-6.6018,-6.6153,-6.629,-6.6512,-6.668,-5.25,-5.4609,-5.668,-5.8711,-5.8125,-5.789,-6.0976,-6.0586,-6.0156,-6.2109,-6.2969,-6.3515,-6.4101,-6.6133,-6.7773,-6.8047,-6.957,-7.0781,-7.1055,-7.1601,-7.1992,-7.1992,-7.1992,-7.1992,-7.1992,-7.1864,-7.1735,-7.1572,-7.1389,-7.1231,-7.1004,-7.0927,-7.0898,-7.0898,-7.0667,-7.0514,-7.0514,-7.0244,-6.9398,-6.7975,-6.7975,-6.7552,-6.6705,-6.6128,-6.5897,-6.5897,-6.5897,-6.5897,-6.5897,-6.5897,-6.5897,-6.5897,-6.5897,-6.5897,-6.5897,-6.5897,-6.5897,-6.5897,-6.5897,-6.5897,-6.5897,-6.5897,-6.5897,-6.5897,-6.5897,-6.5897,-6.5897,-6.5897,-6.5897,-6.5897,-6.5897,-6.5897,-6.5897,-6.5897,-6.5897,-6.5897,-6.5897,-6.5897,-6.5897,-6.5897,-6.5897,-6.5897,-6.5897,-6.5897,-6.5897,-6.5897,-6.5897,-6.5897,-6.5897,-6.5897,-6.5897,-6.5897,-6.5897,-6.5897,-6.5897,-6.5897,-6.5897,-6.5897,-6.5897,-6.5897,-6.5897,-6.5897,-6.5897,-6.5897,-6.5897,-6.5897,-6.5897,-6.6109,-6.626,-6.6393,-6.6603,-6.6785,-5.3516,-5.4648,-5.5976,-5.8555,-5.7265,-5.6484,-6.0742,-6.1055,-6.1133,-6.3789,-6.5703,-6.6914,-6.6914,-6.8281,-6.9687,-7.0547,-7.0703,-7.1015,-7.1875,-7.1992,-7.1992,-7.1992,-7.1992,-7.1992,-7.1992,-7.1992,-7.1909,-7.1735,-7.1577,-7.1397,-7.1193,-7.1016,-7.0898,-7.0898,-7.0129,-6.9706,-6.9706,-6.8859,-6.7975,-6.709,-6.709,-6.6667,-6.5897,-6.5897,-6.5897,-6.5897,-6.5897,-6.5897,-6.5897,-6.5897,-6.5897,-6.5897,-6.5897,-6.5897,-6.5897,-6.5897,-6.5897,-6.5897,-6.5897,-6.5897,-6.5897,-6.5897,-6.5897,-6.5897,-6.5897,-6.5897,-6.5897,-6.5897,-6.5897,-6.5897,-6.5897,-6.5897,-6.5897,-6.5897,-6.5897,-6.5897,-6.5897,-6.5897,-6.5897,-6.5897,-6.5897,-6.5897,-6.5897,-6.5897,-6.5897,-6.5897,-6.5897,-6.5897,-6.5897,-6.5897,-6.5897,-6.5897,-6.5897,-6.5897,-6.5897,-6.5897,-6.5897,-6.5897,-6.5897,-6.5897,-6.5897,-6.5897,-6.5897,-6.5897,-6.5897,-6.5897,-6.5897,-6.6234,-6.6387,-6.6393,-6.6733,-6.6914,-5.3867,-5.5976,-5.8359,-5.9726,-5.9453,-5.9687,-6.2812,-6.1914,-6.1484,-6.5351,-6.7031,-6.8008,-6.8555,-6.957,-7.039,-7.0664,-7.1211,-7.1719,-7.1953,-7.1992,-7.1992,-7.1992,-7.1992,-7.1992,-7.1992,-7.1992,-7.1909,-7.1735,-7.1663,-7.1497,-7.1203,-7.1137,-7.1065,-7.0912,-7.0129,-6.9706,-6.9706,-6.8859,-6.7975,-6.709,-6.709,-6.6667,-6.5897,-6.5897,-6.5897,-6.5897,-6.5897,-6.5897,-6.5897,-6.5897,-6.5897,-6.5897,-6.5897,-6.5897,-6.5897,-6.5897,-6.5897,-6.5897,-6.5897,-6.5897,-6.5897,-6.5897,-6.5897,-6.5897,-6.5897,-6.5897,-6.5897,-6.5897,-6.5897,-6.5897,-6.5897,-6.5897,-6.5897,-6.5897,-6.5897,-6.5897,-6.5897,-6.5897,-6.5897,-6.5897,-6.5897,-6.5897,-6.5897,-6.5897,-6.5897,-6.5897,-6.5897,-6.5897,-6.5897,-6.5897,-6.5897,-6.5897,-6.5897,-6.5897,-6.5897,-6.5897,-6.5897,-6.5897,-6.5897,-6.5897,-6.5897,-6.5897,-6.5897,-6.5897,-6.5897,-6.5897,-6.5897,-6.6234,-6.6387,-6.6393,-6.6733,-6.6914,-5.5781,-5.7812,-5.9883,-6.0703,-6.0937,-6.1601,-6.4219,-6.3867,-6.3828,-6.6797,-6.8086,-6.8945,-6.9765,-7.0625,-7.1211,-7.1211,-7.164,-7.1992,-7.1992,-7.1992,-7.1992,-7.1992,-7.1992,-7.1992,-7.1992,-7.1992,-7.1951,-7.1813,-7.1747,-7.157,-7.1314,-7.0932,-7.059,-7.045,-6.9283,-6.8667,-6.8667,-6.7821,-6.7128,-6.6628,-6.6628,-6.6359,-6.5897,-6.5897,-6.5897,-6.5897,-6.5897,-6.5897,-6.5897,-6.5897,-6.5897,-6.5897,-6.5897,-6.5897,-6.5897,-6.5897,-6.5897,-6.5897,-6.5897,-6.5897,-6.5897,-6.5897,-6.5897,-6.5897,-6.5897,-6.5897,-6.5897,-6.5897,-6.5897,-6.5897,-6.5897,-6.5897,-6.5897,-6.5897,-6.5897,-6.5897,-6.5897,-6.5897,-6.5897,-6.5897,-6.5897,-6.5897,-6.5897,-6.5897,-6.5897,-6.5897,-6.5897,-6.5897,-6.5897,-6.5897,-6.5897,-6.5897,-6.5897,-6.5897,-6.5897,-6.5897,-6.5897,-6.5897,-6.5897,-6.5897,-6.5897,-6.5897,-6.5897,-6.5897,-6.5897,-6.5921,-6.5974,-6.6275,-6.6423,-6.6483,-6.6781,-6.6914,-5.8203,-5.9609,-6.0586,-6.1367,-6.1758,-6.2617,-6.5234,-6.6445,-6.7265,-6.8125,-6.8945,-6.9765,-7.0664,-7.1484,-7.1992,-7.1992,-7.1992,-7.1992,-7.1992,-7.1992,-7.1992,-7.1992,-7.1992,-7.1992,-7.1992,-7.1992,-7.1992,-7.1992,-7.1815,-7.1616,-7.1375,-7.0451,-6.98,-6.9604,-6.7975,-6.709,-6.709,-6.6282,-6.5897,-6.5897,-6.5897,-6.5897,-6.5897,-6.5897,-6.5897,-6.5897,-6.5897,-6.5897,-6.5897,-6.5897,-6.5897,-6.5897,-6.5897,-6.5897,-6.5897,-6.5897,-6.5897,-6.5897,-6.5897,-6.5897,-6.5897,-6.5897,-6.5897,-6.5897,-6.5897,-6.5897,-6.5897,-6.5897,-6.5897,-6.5897,-6.5897,-6.5897,-6.5897,-6.5897,-6.5897,-6.5897,-6.5897,-6.5897,-6.5897,-6.5897,-6.5897,-6.5897,-6.5897,-6.5897,-6.5897,-6.5897,-6.5897,-6.5897,-6.5897,-6.5897,-6.5897,-6.5897,-6.5897,-6.5897,-6.5897,-6.5897,-6.5897,-6.5897,-6.5897,-6.5897,-6.5897,-6.5897,-6.5897,-6.5897,-6.5897,-6.5978,-6.6109,-6.6298,-6.6468,-6.6619,-6.6791,-6.6914,-5.5976,-5.8203,-6.0469,-6.0625,-6.2226,-6.4414,-6.7031,-6.7773,-6.8164,-6.8984,-6.9805,-7.0703,-7.1562,-7.1875,-7.1992,-7.1992,-7.1992,-7.1992,-7.1992,-7.1992,-7.1992,-7.1992,-7.1992,-7.1992,-7.1992,-7.1992,-7.1992,-7.1992,-7.1952,-7.1527,-7.0538,-7.0251,-6.969,-6.8719,-6.7667,-6.709,-6.709,-6.6282,-6.5897,-6.5897,-6.5897,-6.5897,-6.5897,-6.5897,-6.5897,-6.5897,-6.5897,-6.5897,-6.5897,-6.5897,-6.5897,-6.5897,-6.5897,-6.5897,-6.5897,-6.5897,-6.5897,-6.5897,-6.5897,-6.5897,-6.5897,-6.5897,-6.5897,-6.5897,-6.5897,-6.5897,-6.5897,-6.5897,-6.5897,-6.5897,-6.5897,-6.5897,-6.5897,-6.5897,-6.5897,-6.5897,-6.5897,-6.5897,-6.5897,-6.5897,-6.5897,-6.5897,-6.5897,-6.5897,-6.5897,-6.5897,-6.5897,-6.5897,-6.5897,-6.5897,-6.5897,-6.5897,-6.5897,-6.5897,-6.5897,-6.5897,-6.5897,-6.5897,-6.5897,-6.5897,-6.5897,-6.5897,-6.5897,-6.5897,-6.5897,-6.5978,-6.6109,-6.6298,-6.6468,-6.6619,-6.6791,-6.6914,-5.6484,-5.8164,-5.9687,-6.1758,-6.3281,-6.4883,-6.707,-6.8203,-6.8906,-6.9297,-7.0078,-7.0976,-7.1836,-7.1992,-7.1992,-7.1992,-7.1992,-7.1992,-7.1992,-7.1992,-7.1992,-7.1992,-7.1992,-7.1992,-7.1992,-7.1992,-7.1992,-7.1992,-7.1992,-7.1462,-7.0272,-6.9786,-6.9015,-6.7808,-6.6974,-6.6513,-6.6513,-6.609,-6.5897,-6.5897,-6.5897,-6.5897,-6.5897,-6.5897,-6.5897,-6.5897,-6.5897,-6.5897,-6.5897,-6.5897,-6.5897,-6.5897,-6.5897,-6.5897,-6.5897,-6.5897,-6.5897,-6.5897,-6.5897,-6.5897,-6.5897,-6.5897,-6.5897,-6.5897,-6.5897,-6.5897,-6.5897,-6.5897,-6.5897,-6.5897,-6.5897,-6.5897,-6.5897,-6.5897,-6.5897,-6.5897,-6.5897,-6.5897,-6.5897,-6.5897,-6.5897,-6.5897,-6.5897,-6.5897,-6.5897,-6.5897,-6.5897,-6.5897,-6.5897,-6.5897,-6.5897,-6.5897,-6.5897,-6.5897,-6.5897,-6.5897,-6.5897,-6.5897,-6.5897,-6.5897,-6.5897,-6.5897,-6.5897,-6.5897,-6.5978,-6.6069,-6.6236,-6.6423,-6.6592,-6.6742,-6.6834,-6.6914,-5.7422,-5.8789,-5.9648,-6.3203,-6.418,-6.4765,-6.6484,-6.8203,-6.9453,-6.9609,-7.0312,-7.1133,-7.1875,-7.1992,-7.1992,-7.1992,-7.1992,-7.1992,-7.1992,-7.1992,-7.1992,-7.1992,-7.1992,-7.1992,-7.1992,-7.1992,-7.1992,-7.1992,-7.1992,-7.1425,-7.0038,-6.9286,-6.8286,-6.6923,-6.6244,-6.5897,-6.5897,-6.5897,-6.5897,-6.5897,-6.5897,-6.5897,-6.5897,-6.5897,-6.5897,-6.5897,-6.5897,-6.5897,-6.5897,-6.5897,-6.5897,-6.5897,-6.5897,-6.5897,-6.5897,-6.5897,-6.5897,-6.5897,-6.5897,-6.5897,-6.5897,-6.5897,-6.5897,-6.5897,-6.5897,-6.5897,-6.5897,-6.5897,-6.5897,-6.5897,-6.5897,-6.5897,-6.5897,-6.5897,-6.5897,-6.5897,-6.5897,-6.5897,-6.5897,-6.5897,-6.5897,-6.5897,-6.5897,-6.5897,-6.5897,-6.5897,-6.5897,-6.5897,-6.5897,-6.5897,-6.5897,-6.5897,-6.5897,-6.5897,-6.5897,-6.5897,-6.5897,-6.5897,-6.5897,-6.5897,-6.5897,-6.5897,-6.5897,-6.5897,-6.6003,-6.6191,-6.6387,-6.6507,-6.668,-6.6914,-6.6914,-6.6914,-5.5937,-5.957,-6.2461,-6.3047,-6.375,-6.4765,-6.6484,-6.8203,-6.9609,-7.0351,-7.1211,-7.1875,-7.1992,-7.1992,-7.1992,-7.1992,-7.1992,-7.1992,-7.1992,-7.1992,-7.1992,-7.1992,-7.1992,-7.1992,-7.1992,-7.1992,-7.1992,-7.1992,-7.1992,-7.1151,-6.9188,-6.8975,-6.8014,-6.6115,-6.5974,-6.5897,-6.5897,-6.5897,-6.5897,-6.5897,-6.5897,-6.5897,-6.5897,-6.5897,-6.5897,-6.5897,-6.5897,-6.5897,-6.5897,-6.5897,-6.5897,-6.5897,-6.5897,-6.5897,-6.5897,-6.5897,-6.5897,-6.5897,-6.5897,-6.5897,-6.5897,-6.5897,-6.5897,-6.5897,-6.5897,-6.5897,-6.5897,-6.5897,-6.5897,-6.5897,-6.5897,-6.5897,-6.5897,-6.5897,-6.5897,-6.5897,-6.5897,-6.5897,-6.5897,-6.5897,-6.5897,-6.5897,-6.5897,-6.5897,-6.5897,-6.5897,-6.5897,-6.5897,-6.5897,-6.5897,-6.5897,-6.5897,-6.5897,-6.5897,-6.5897,-6.5897,-6.5897,-6.5897,-6.5897,-6.5897,-6.5897,-6.5897,-6.5897,-6.5897,-6.5909,-6.6088,-6.6387,-6.6412,-6.6584,-6.6914,-6.6914,-6.6914,-5.4531,-5.832,-6.1328,-6.3242,-6.3633,-6.4023,-6.5781,-6.7109,-6.8359,-6.9687,-7.0664,-7.1406,-7.1914,-7.1992,-7.1992,-7.1992,-7.1992,-7.1992,-7.1992,-7.1992,-7.1992,-7.1992,-7.1992,-7.1992,-7.1992,-7.1992,-7.1992,-7.1992,-7.1562,-7.0614,-6.9142,-6.8511,-6.7557,-6.6063,-6.5958,-6.5897,-6.5897,-6.5897,-6.5897,-6.5897,-6.5897,-6.5897,-6.5897,-6.5897,-6.5897,-6.5897,-6.5897,-6.5897,-6.5897,-6.5897,-6.5897,-6.5897,-6.5897,-6.5897,-6.5897,-6.5897,-6.5897,-6.5897,-6.5897,-6.5897,-6.5897,-6.5897,-6.5897,-6.5897,-6.5897,-6.5897,-6.5897,-6.5897,-6.5897,-6.5897,-6.5897,-6.5897,-6.5897,-6.5897,-6.5897,-6.5897,-6.5897,-6.5897,-6.5897,-6.5897,-6.5897,-6.5897,-6.5897,-6.5897,-6.5897,-6.5897,-6.5897,-6.5897,-6.5897,-6.5897,-6.5897,-6.5897,-6.5897,-6.5897,-6.5897,-6.5897,-6.5897,-6.5897,-6.5897,-6.5897,-6.5897,-6.5897,-6.5897,-6.5897,-6.5963,-6.6128,-6.6387,-6.6473,-6.6661,-6.6914,-6.6914,-6.6914,-5.3281,-5.6562,-5.9258,-6.2265,-6.2656,-6.2812,-6.4531,-6.5976,-6.7265,-6.8515,-6.9609,-7.0625,-7.1523,-7.1836,-7.1992,-7.1992,-7.1992,-7.1992,-7.1992,-7.1992,-7.1992,-7.1992,-7.1992,-7.1992,-7.1992,-7.1992,-7.1992,-7.1992,-7.1172,-7.0268,-6.924,-6.8232,-6.7206,-6.6119,-6.5951,-6.5897,-6.5897,-6.5897,-6.5897,-6.5897,-6.5897,-6.5897,-6.5897,-6.5897,-6.5897,-6.5897,-6.5897,-6.5897,-6.5897,-6.5897,-6.5897,-6.5897,-6.5897,-6.5897,-6.5897,-6.5897,-6.5897,-6.5897,-6.5897,-6.5897,-6.5897,-6.5897,-6.5897,-6.5897,-6.5897,-6.5897,-6.5897,-6.5897,-6.5897,-6.5897,-6.5897,-6.5897,-6.5897,-6.5897,-6.5897,-6.5897,-6.5897,-6.5897,-6.5897,-6.5897,-6.5897,-6.5897,-6.5897,-6.5897,-6.5897,-6.5897,-6.5897,-6.5897,-6.5897,-6.5897,-6.5897,-6.5897,-6.5897,-6.5897,-6.5897,-6.5897,-6.5897,-6.5897,-6.5897,-6.5897,-6.5897,-6.5897,-6.5897,-6.5897,-6.6019,-6.6137,-6.632,-6.6483,-6.6628,-6.6832,-6.6874,-6.6914,-5.2305,-5.4726,-5.7187,-5.9023,-6.0,-6.0976,-6.2734,-6.5078,-6.6914,-6.6992,-6.832,-6.9726,-7.0625,-7.1445,-7.1992,-7.1992,-7.1992,-7.1992,-7.1992,-7.1992,-7.1992,-7.1992,-7.1992,-7.1992,-7.1992,-7.1992,-7.1992,-7.1992,-7.1172,-7.0268,-6.924,-6.8232,-6.7206,-6.6119,-6.5951,-6.5897,-6.5897,-6.5897,-6.5897,-6.5897,-6.5897,-6.5897,-6.5897,-6.5897,-6.5897,-6.5897,-6.5897,-6.5897,-6.5897,-6.5897,-6.5897,-6.5897,-6.5897,-6.5897,-6.5897,-6.5897,-6.5897,-6.5897,-6.5897,-6.5897,-6.5897,-6.5897,-6.5897,-6.5897,-6.5897,-6.5897,-6.5897,-6.5897,-6.5897,-6.5897,-6.5897,-6.5897,-6.5897,-6.5897,-6.5897,-6.5897,-6.5897,-6.5897,-6.5897,-6.5897,-6.5897,-6.5897,-6.5897,-6.5897,-6.5897,-6.5897,-6.5897,-6.5897,-6.5897,-6.5897,-6.5897,-6.5897,-6.5897,-6.5897,-6.5897,-6.5897,-6.5897,-6.5897,-6.5897,-6.5897,-6.5897,-6.5897,-6.5897,-6.5897,-6.5923,-6.5963,-6.6128,-6.6312,-6.6478,-6.6625,-6.6791,-6.6914,-5.0469,-5.2578,-5.4765,-5.7656,-5.8984,-6.0078,-6.1797,-6.332,-6.4883,-6.6562,-6.7383,-6.8398,-7.0351,-7.0976,-7.1367,-7.1914,-7.1992,-7.1992,-7.1992,-7.1992,-7.1992,-7.1992,-7.1992,-7.1992,-7.1992,-7.1992,-7.1992,-7.1992,-7.0664,-6.9726,-6.9368,-6.7768,-6.6672,-6.629,-6.6052,-6.5897,-6.5897,-6.5897,-6.5897,-6.5897,-6.5897,-6.5897,-6.5897,-6.5897,-6.5897,-6.5897,-6.5897,-6.5897,-6.5897,-6.5897,-6.5897,-6.5897,-6.5897,-6.5897,-6.5897,-6.5897,-6.5897,-6.5897,-6.5897,-6.5897,-6.5897,-6.5897,-6.5897,-6.5897,-6.5897,-6.5897,-6.5897,-6.5897,-6.5897,-6.5897,-6.5897,-6.5897,-6.5897,-6.5897,-6.5897,-6.5897,-6.5897,-6.5897,-6.5897,-6.5897,-6.5897,-6.5897,-6.5897,-6.5897,-6.5897,-6.5897,-6.5897,-6.5897,-6.5897,-6.5897,-6.5897,-6.5897,-6.5897,-6.5897,-6.5897,-6.5897,-6.5897,-6.5897,-6.5897,-6.5897,-6.5897,-6.5897,-6.5897,-6.5897,-6.5897,-6.5978,-6.6109,-6.6161,-6.6305,-6.6473,-6.6622,-6.6692,-4.8711,-5.0351,-5.2266,-5.5742,-5.7695,-5.9219,-6.0898,-6.2383,-6.3867,-6.5273,-6.6055,-6.707,-6.9062,-6.9414,-7.0,-7.1719,-7.1992,-7.1992,-7.1992,-7.1992,-7.1992,-7.1992,-7.1992,-7.1992,-7.1992,-7.1992,-7.1992,-7.1992,-7.039,-6.9414,-6.9414,-6.7546,-6.6418,-6.6298,-6.6052,-6.5897,-6.5897,-6.5897,-6.5897,-6.5897,-6.5897,-6.5897,-6.5897,-6.5897,-6.5897,-6.5897,-6.5897,-6.5897,-6.5897,-6.5897,-6.5897,-6.5897,-6.5897,-6.5897,-6.5897,-6.5897,-6.5897,-6.5897,-6.5897,-6.5897,-6.5897,-6.5897,-6.5897,-6.5897,-6.5897,-6.5897,-6.5897,-6.5897,-6.5897,-6.5897,-6.5897,-6.5897,-6.5897,-6.5897,-6.5897,-6.5897,-6.5897,-6.5897,-6.5897,-6.5897,-6.5897,-6.5897,-6.5897,-6.5897,-6.5897,-6.5897,-6.5897,-6.5897,-6.5897,-6.5897,-6.5897,-6.5897,-6.5897,-6.5897,-6.5897,-6.5897,-6.5897,-6.5897,-6.5897,-6.5897,-6.5897,-6.5897,-6.5897,-6.5897,-6.5897,-6.5931,-6.6018,-6.607,-6.6153,-6.6298,-6.6468,-6.6549,0.0,0.0,0.0,-5.3086,-5.5859,-5.8242,-5.9961,-6.2383,-6.3984,-6.3164,-6.4375,-6.5859,-6.6758,-6.6914,-6.8008,-7.1367,-7.1914,-7.1914,-7.1953,-7.1953,-7.1953,-7.1992,-7.1992,-7.1992,-7.1992,-7.1992,-7.1992,-7.1992,-7.0469,-6.9531,-6.9492,-6.7668,-6.6434,-6.6128,-6.5951,-6.5897,-6.5897,-6.5897,-6.5897,-6.5897,-6.5897,-6.5897,-6.5897,-6.5897,-6.5897,-6.5897,-6.5897,-6.5897,-6.5897,-6.5897,-6.5897,-6.5897,-6.5897,-6.5897,-6.5897,-6.5897,-6.5897,-6.5897,-6.5897,-6.5897,-6.5897,-6.5897,-6.5897,-6.5897,-6.5897,-6.5897,-6.5897,-6.5897,-6.5897,-6.5897,-6.5897,-6.5897,-6.5897,-6.5897,-6.5897,-6.5897,-6.5897,-6.5897,-6.5897,-6.5897,-6.5897,-6.5897,-6.5897,-6.5897,-6.5897,-6.5897,-6.5897,-6.5897,-6.5897,-6.5897,-6.5897,-6.5897,-6.5897,-6.5897,-6.5897,-6.5897,-6.5897,-6.5897,-6.5897,-6.5897,-6.5897,-6.5897,-6.5897,-6.5897,-6.5897,-6.5897,-6.5897,-6.6046,-6.61,-6.61,-6.629,-6.6463,-4.543,0.0,0.0,0.0,0.0,0.0,-5.8867,-6.1015,-6.2539,-6.293,-6.4375,-6.5859,-6.6758,-6.6914,-6.7617,-6.9844,-7.0156,-7.0351,-7.0976,-7.1055,-7.1289,-7.1914,-7.1992,-7.1992,-7.1992,-7.1992,-7.1992,-7.1992,-7.0976,-7.0078,-6.9453,-6.7543,-6.6354,-6.6119,-6.5951,-6.5897,-6.5897,-6.5897,-6.5897,-6.5897,-6.5897,-6.5897,-6.5897,-6.5897,-6.5897,-6.5897,-6.5897,-6.5897,-6.5897,-6.5897,-6.5897,-6.5897,-6.5897,-6.5897,-6.5897,-6.5897,-6.5897,-6.5897,-6.5897,-6.5897,-6.5897,-6.5897,-6.5897,-6.5897,-6.5897,-6.5897,-6.5897,-6.5897,-6.5897,-6.5897,-6.5897,-6.5897,-6.5897,-6.5897,-6.5897,-6.5897,-6.5897,-6.5897,-6.5897,-6.5897,-6.5897,-6.5897,-6.5897,-6.5897,-6.5897,-6.5897,-6.5897,-6.5897,-6.5897,-6.5897,-6.5897,-6.5897,-6.5897,-6.5897,-6.5897,-6.5897,-6.5897,-6.5897,-6.5897,-6.5897,-6.5897,-6.5897,-6.5897,-6.5897,-6.5897,-6.5897,-6.5897,-6.5958,-6.5955,-6.5967,-6.61,-6.629,-4.4961,-4.5625,-4.6875,-4.9219,0.0,0.0,-5.8047,-6.0508,-6.25,-6.3359,-6.4648,-6.5625,-6.5781,-6.582,-6.6133,-6.7187,-6.7617,-6.8359,-6.9961,-7.0195,-7.0469,-7.1367,-7.1133,-7.1211,-7.1914,-7.168,-7.1601,-7.1953,-7.1172,-7.0156,-6.8945,-6.7321,-6.6341,-6.622,-6.6019,-6.5897,-6.5897,-6.5897,-6.5897,-6.5897,-6.5897,-6.5897,-6.5897,-6.5897,-6.5897,-6.5897,-6.5897,-6.5897,-6.5897,-6.5897,-6.5897,-6.5897,-6.5897,-6.5897,-6.5897,-6.5897,-6.5897,-6.5897,-6.5897,-6.5897,-6.5897,-6.5897,-6.5897,-6.5897,-6.5897,-6.5897,-6.5897,-6.5897,-6.5897,-6.5897,-6.5897,-6.5897,-6.5897,-6.5897,-6.5897,-6.5897,-6.5897,-6.5897,-6.5897,-6.5897,-6.5897,-6.5897,-6.5897,-6.5897,-6.5897,-6.5897,-6.5897,-6.5897,-6.5897,-6.6205,-6.6397,-6.6397,-6.6744,-6.6782,-6.6436,-6.6397,-6.6244,-6.5897,-6.5897,-6.5897,-6.5897,-6.5897,-6.5897,-6.5897,-6.5897,-6.5897,-6.5897,-6.5897,-6.5897,-6.591,-6.5974,-6.6129,-4.543,-4.5625,-4.6406,-4.7344,-5.1133,0.0,-5.7148,-5.9961,-6.2461,-6.3515,-6.4414,-6.4805,-6.414,-6.3945,-6.3945,-6.4258,-6.4883,-6.6211,-6.8828,-6.914,-6.9492,-7.043,-6.9805,-6.9922,-7.1562,-7.1015,-7.0898,-7.164,-7.1015,-6.9922,-6.8437,-6.7204,-6.6504,-6.6387,-6.6067,-6.5897,-6.5897,-6.5897,-6.5897,-6.5897,-6.5897,-6.5897,-6.5897,-6.5897,-6.5897,-6.5897,-6.5897,-6.5897,-6.5897,-6.5897,-6.5897,-6.5897,-6.5897,-6.5897,-6.5897,-6.5897,-6.5897,-6.5897,-6.5897,-6.5897,-6.5897,-6.5897,-6.5897,-6.5897,-6.5897,-6.5897,-6.5897,-6.5897,-6.5897,-6.5897,-6.5897,-6.5897,-6.5897,-6.5897,-6.5897,-6.5897,-6.5897,-6.5897,-6.5897,-6.5897,-6.5897,-6.5897,-6.5897,-6.5974,-6.6013,-6.6013,-6.6128,-6.6167,-6.6167,-6.6782,-6.7244,-6.7244,-6.7936,-6.809,-6.7321,-6.7167,-6.6782,-6.609,-6.5936,-6.5897,-6.5897,-6.5897,-6.5897,-6.5897,-6.5897,-6.5897,-6.5897,-6.5897,-6.5897,-6.5897,-6.5897,-6.5978,-4.6641,-4.5664,-4.5625,-4.7226,-4.8867,0.0,-5.4922,-5.6328,-5.7461,-5.9726,-6.0859,-6.1562,-6.2109,-6.164,-6.1836,-6.3945,-6.3867,-6.4414,-6.7031,-6.7383,-6.7969,-6.9453,-6.8945,-6.8828,-6.9805,-6.9765,-6.9765,-6.9961,-6.9765,-6.9531,-6.9258,-6.8102,-6.7133,-6.6426,-6.6067,-6.5897,-6.5897,-6.5897,-6.5897,-6.5897,-6.5897,-6.5897,-6.5897,-6.5897,-6.5897,-6.5897,-6.5897,-6.5897,-6.5897,-6.5897,-6.5897,-6.5897,-6.5897,-6.5897,-6.5897,-6.5897,-6.5897,-6.5897,-6.5897,-6.5897,-6.5897,-6.5897,-6.5897,-6.5897,-6.5897,-6.5897,-6.5897,-6.5897,-6.5897,-6.5897,-6.5897,-6.5897,-6.5897,-6.5897,-6.5897,-6.5897,-6.5897,-6.5897,-6.5897,-6.5897,-6.5897,-6.5897,-6.5897,-6.6436,-6.6859,-6.6859,-6.7475,-6.7898,-6.7898,-6.8052,-6.8167,-6.8167,-6.8321,-6.8321,-6.8167,-6.7513,-6.7013,-6.6859,-6.6244,-6.5897,-6.5897,-6.5897,-6.5897,-6.5897,-6.5897,-6.5897,-6.5897,-6.5897,-6.5897,-6.5897,-6.5897,-6.5897,-4.7891,-4.6328,-4.5742,-4.6172,-4.7305,0.0,0.0,-5.4023,-5.5156,-5.6914,-5.8594,-5.9687,-5.9258,-5.9492,-6.0078,-6.0976,-6.1797,-6.2539,-6.3008,-6.4883,-6.6875,-6.8594,-6.7305,-6.707,-6.9219,-6.8242,-6.789,-6.8789,-6.8828,-6.8633,-6.8203,-6.7477,-6.6659,-6.5797,-6.5835,-6.5897,-6.5897,-6.5897,-6.5897,-6.5897,-6.5897,-6.5897,-6.5897,-6.5897,-6.5897,-6.5897,-6.5897,-6.5897,-6.5897,-6.5897,-6.5897,-6.5897,-6.5897,-6.5897,-6.5897,-6.5897,-6.5897,-6.5897,-6.5897,-6.5897,-6.5897,-6.5897,-6.5897,-6.5897,-6.5897,-6.5897,-6.5897,-6.5897,-6.5897,-6.5897,-6.5897,-6.5897,-6.5897,-6.5897,-6.5897,-6.5897,-6.5897,-6.5897,-6.5897,-6.5897,-6.5897,-6.5897,-6.5897,-6.6551,-6.709,-6.709,-6.7859,-6.8385,-6.8385,-6.8783,-6.9052,-6.9052,-6.9398,-6.9475,-6.909,-6.8667,-6.8205,-6.7782,-6.7359,-6.7167,-6.7167,-6.7167,-6.6936,-6.6513,-6.6513,-6.6282,-6.5897,-6.5897,-6.5897,-6.5897,-6.5897,-6.5897,-4.9297,-4.7578,-4.6797,-4.5742,-4.6797,-4.8633,0.0,0.0,0.0,-5.4336,-5.6094,-5.7148,-5.6055,-5.6992,-5.7617,-5.6562,-5.8711,-5.9805,-5.7969,-6.1406,-6.4883,-6.6953,-6.5625,-6.5586,-6.8164,-6.7305,-6.6953,-6.789,-6.8711,-6.8594,-6.7226,-6.6869,-6.6262,-6.5369,-6.5721,-6.5921,-6.5897,-6.5897,-6.5897,-6.5897,-6.5897,-6.5897,-6.5897,-6.5897,-6.5897,-6.5897,-6.5897,-6.5897,-6.5897,-6.5897,-6.5897,-6.5897,-6.5897,-6.5897,-6.5897,-6.5897,-6.5897,-6.5897,-6.5897,-6.5897,-6.5897,-6.5897,-6.5897,-6.5897,-6.5897,-6.5897,-6.5897,-6.5897,-6.5897,-6.5897,-6.5897,-6.5897,-6.5897,-6.5897,-6.5897,-6.5897,-6.5897,-6.6013,-6.6128,-6.6128,-6.6282,-6.6282,-6.5974,-6.6705,-6.7359,-6.7359,-6.8205,-6.8898,-6.8898,-6.9513,-6.9937,-6.9937,-7.0514,-7.0629,-6.9975,-6.9783,-6.9398,-6.8706,-6.8513,-6.8385,-6.8385,-6.8385,-6.809,-6.7359,-6.7359,-6.6936,-6.6128,-6.6128,-6.6051,-6.5897,-6.5897,-6.5897,-5.1289,-4.9844,-4.9375,-4.7734,-4.8633,-4.9961,-5.0273,0.0,-4.9922,-5.1523,0.0,-5.1601,-5.2891,0.0,0.0,-5.1328,-5.3867,-5.5156,-5.2656,-5.6015,-5.9961,-6.3203,-6.4687,-6.5312,-6.4922,-6.8047,-6.9258,-6.7187,-7.0586,-7.1367,-6.8203,-6.7859,-6.7261,-6.6276,-6.6131,-6.6024,-6.591,-6.5897,-6.5897,-6.5897,-6.5897,-6.5897,-6.5897,-6.5897,-6.5897,-6.5897,-6.5897,-6.5897,-6.5897,-6.5897,-6.5897,-6.5897,-6.5897,-6.5897,-6.5897,-6.5897,-6.5897,-6.5897,-6.5897,-6.5897,-6.5897,-6.5897,-6.5897,-6.5897,-6.5897,-6.5897,-6.5897,-6.5897,-6.5897,-6.5897,-6.5897,-6.5897,-6.5897,-6.5897,-6.5897,-6.5897,-6.5897,-6.6436,-6.6974,-6.6974,-6.759,-6.7628,-6.6167,-6.7205,-6.8244,-6.8244,-6.959,-7.0629,-7.0629,-7.0706,-7.0744,-7.0744,-7.086,-7.086,-7.0783,-7.0129,-6.9667,-6.9552,-6.8821,-6.8385,-6.8385,-6.8385,-6.8359,-6.8244,-6.8244,-6.7821,-6.6974,-6.6974,-6.659,-6.5897,-6.5897,-6.5897,-5.5312,-5.3906,-5.3359,-5.1133,-5.1094,-5.1523,-5.1016,-4.9844,-4.8828,-4.8516,0.0,0.0,0.0,0.0,0.0,0.0,-5.1055,-5.1797,-5.0156,-5.3672,-5.75,-6.043,-6.1445,-6.2109,-6.2734,-6.7148,-6.8906,-6.6328,-6.9219,-6.9805,-6.6836,-6.6967,-6.6689,-6.5686,-6.5924,-6.6056,-6.591,-6.5897,-6.5897,-6.5897,-6.5897,-6.5897,-6.5897,-6.5897,-6.5897,-6.5897,-6.5897,-6.5897,-6.5897,-6.5897,-6.5897,-6.5897,-6.5897,-6.5897,-6.5897,-6.5897,-6.5897,-6.5897,-6.5897,-6.5897,-6.5897,-6.5897,-6.5897,-6.5897,-6.5897,-6.5897,-6.5897,-6.5897,-6.5897,-6.5897,-6.5897,-6.5897,-6.5897,-6.5897,-6.6244,-6.6474,-6.6013,-6.6936,-6.7705,-6.7205,-6.7782,-6.8205,-6.7475,-6.8359,-6.9167,-6.9167,-7.0167,-7.0898,-7.0898,-7.0898,-7.0898,-7.0898,-7.0898,-7.0898,-7.0898,-7.0591,-7.0398,-7.0398,-7.0052,-6.986,-6.986,-6.986,-6.9629,-6.9167,-6.8667,-6.8244,-6.7859,-6.7359,-6.7205,-6.7321,-6.6359,-6.5897,-5.8515,-5.7148,-5.6484,-5.4609,-5.4141,-5.3906,-5.3008,-5.1523,-4.9726,-4.7773,-4.6797,0.0,0.0,0.0,-4.6055,-4.6367,0.0,-4.7851,-4.6289,-4.9766,-5.3711,-5.7031,-5.8047,-5.9258,-6.1172,-6.6211,-6.8242,-6.5469,-6.832,-6.8828,-6.5742,-6.604,-6.6053,-6.5453,-6.5942,-6.6099,-6.591,-6.5897,-6.5897,-6.5897,-6.5897,-6.5897,-6.5897,-6.5897,-6.5897,-6.5897,-6.5897,-6.5897,-6.5897,-6.5897,-6.5897,-6.5897,-6.5897,-6.5897,-6.5897,-6.5897,-6.5897,-6.5897,-6.5897,-6.5897,-6.5897,-6.5897,-6.5897,-6.5897,-6.5897,-6.5897,-6.5897,-6.5897,-6.5897,-6.5897,-6.5897,-6.5897,-6.5897,-6.5897,-6.6359,-6.6667,-6.632,-6.7359,-6.8282,-6.7898,-6.8513,-6.909,-6.909,-6.9436,-6.9706,-6.9706,-7.0398,-7.0898,-7.0898,-7.0898,-7.0898,-7.0898,-7.0898,-7.0898,-7.0898,-7.0898,-7.0898,-7.0898,-7.0898,-7.0898,-7.0898,-7.0898,-7.0629,-7.0052,-6.9398,-6.8975,-6.8744,-6.8129,-6.8013,-6.8359,-6.7167,-6.6474,-5.9844,-5.8515,-5.7851,-5.7734,-5.7734,-5.75,-5.664,-5.5078,-5.3125,-5.0586,-4.8047,-4.6055,-4.5234,-4.5078,-4.3984,-4.0703,-4.2266,0.0,0.0,-4.2617,-4.7226,-5.2305,-5.5156,-5.7656,-6.0195,-6.5859,-6.8008,-6.4609,-6.9062,-7.0078,-6.582,-6.5625,-6.5872,-6.636,-6.6381,-6.6226,-6.591,-6.5897,-6.5897,-6.5897,-6.5897,-6.5897,-6.5897,-6.5897,-6.5897,-6.5897,-6.5897,-6.5897,-6.5897,-6.5897,-6.5897,-6.5897,-6.5897,-6.5897,-6.5897,-6.5897,-6.5897,-6.5897,-6.5897,-6.5897,-6.5897,-6.5897,-6.5897,-6.5897,-6.5897,-6.5897,-6.5897,-6.5897,-6.5897,-6.5897,-6.5897,-6.5897,-6.5897,-6.5897,-6.5897,-6.6128,-6.6898,-6.7782,-6.8629,-6.9475,-7.0283,-7.0821,-7.0821,-7.0206,-6.9706,-6.9706,-7.0398,-7.0898,-7.0898,-7.0898,-7.0898,-7.0898,-7.0898,-7.0898,-7.0898,-7.0898,-7.0898,-7.0898,-7.0898,-7.0898,-7.0898,-7.0898,-7.0898,-7.086,-7.0821,-7.0437,-6.9667,-6.9629,-6.9206,-6.8385,-6.8346,-6.7859,-6.3828,-6.3203,-6.2734,-6.1562,-6.2148,-6.2461,-6.043,-5.8203,-5.5859,-5.3242,-4.9297,-4.6211,-4.5898,-4.4023,-4.2109,-4.0937,-4.0508,-4.0117,0.0,-4.1211,-4.3125,-4.4883,-5.0351,-5.5273,-5.8437,-6.3164,-6.5781,-6.5195,-6.8398,-6.8711,-6.4922,-6.582,-6.6238,-6.5671,-6.6168,-6.6268,-6.6018,-6.5931,-6.5897,-6.5897,-6.5897,-6.5897,-6.5897,-6.5897,-6.5897,-6.5897,-6.5897,-6.5897,-6.5897,-6.5897,-6.5897,-6.5897,-6.5897,-6.5897,-6.5897,-6.5897,-6.5897,-6.5897,-6.5897,-6.5897,-6.5897,-6.5897,-6.5897,-6.5897,-6.5897,-6.5897,-6.5897,-6.5897,-6.5897,-6.5897,-6.5897,-6.5897,-6.6013,-6.6551,-6.7128,-6.7628,-6.7898,-6.9052,-6.9975,-6.9744,-7.036,-7.0898,-7.0898,-7.0667,-7.0475,-7.0475,-7.0744,-7.0898,-7.0898,-7.0898,-7.0898,-7.0898,-7.0898,-7.0898,-7.0898,-7.0898,-7.0898,-7.0898,-7.0898,-7.0898,-7.0898,-7.0898,-7.0898,-7.0898,-7.0398,-7.0244,-7.0475,-6.9975,-6.9821,-7.0052,-7.0052,-6.8975,-6.5859,-6.5351,-6.4922,-6.414,-6.4531,-6.4844,-6.3789,-6.1328,-5.8789,-5.7109,-5.2383,-4.8789,-4.9375,-4.5937,-4.332,-4.4258,-4.1641,-3.9492,0.0,-3.9375,-3.957,-4.0195,-4.6016,-5.168,-5.6094,-6.039,-6.3672,-6.5469,-6.7461,-6.7305,-6.4453,-6.5351,-6.5775,-6.5328,-6.6039,-6.6298,-6.6109,-6.599,-6.5897,-6.5897,-6.5897,-6.5897,-6.5897,-6.5897,-6.5897,-6.5897,-6.5897,-6.5897,-6.5897,-6.5897,-6.5897,-6.5897,-6.5897,-6.5897,-6.5897,-6.5897,-6.5897,-6.5897,-6.5897,-6.5897,-6.5897,-6.5897,-6.5897,-6.5897,-6.5897,-6.5897,-6.5974,-6.6244,-6.632,-6.6397,-6.6705,-6.6782,-6.6936,-6.7436,-6.7975,-6.8475,-6.8821,-6.9706,-7.0398,-7.0167,-7.0552,-7.0898,-7.0898,-7.0898,-7.0898,-7.0898,-7.0898,-7.0898,-7.0898,-7.0898,-7.0898,-7.0898,-7.0898,-7.0898,-7.0898,-7.0898,-7.0898,-7.0898,-7.0898,-7.0898,-7.0898,-7.0898,-7.1052,-7.136,-7.0552,-7.0514,-7.136,-7.0514,-7.0398,-7.0898,-7.0898,-6.986]},{"header":{"parameterUnit":"m.s-1","parameterCategory":1,"la1":30.6,"la2":29.2853,"lo1":-89.7004,"lo2":-87.6739,"dx":0.0162,"dy":0.0183,"nx":112,"ny":82,"refTime":"2022-12-02T06:00:00:Z","depth":0,"parameterNumber":3,"parameterNumberName":"V-component_of_WINDS"},"data":[0.0,0.0,0.0,0.0,0.0,0.0,0.0,0.0,0.0,0.0,0.0,0.0,0.0,0.0,0.0,0.0,0.0,0.0,0.0,0.0,0.0,0.0,0.0,0.0,0.0,0.0,0.0,0.0,0.0,0.0,0.0,0.0,0.0,0.0,0.0,0.0,0.0,0.0,0.0,0.0,0.0,0.0,0.0,0.0,0.0,0.0,0.0,0.0,0.0,0.0,0.0,0.0,0.0,0.0,0.0,0.0,0.0,0.0,0.0,0.0,0.0,0.0,0.0,0.0,0.0,0.0,0.0,0.0,0.0,0.0,0.0,0.0,0.0,0.0,0.0,0.0,0.0,0.0,0.0,0.0,0.0,0.0,0.0,0.0,0.0,0.0,0.0,0.0,0.0,0.0,-0.1726,-0.1386,-0.0546,0.0,0.0,0.0,0.0,0.0,0.0,0.0,0.0,0.0,0.0,0.0,0.0,0.0,0.0,0.0,0.0,0.0,0.0,0.0,0.0,0.0,0.0,0.0,0.0,0.0,0.0,0.0,0.0,0.0,0.0,0.0,0.0,0.0,0.0,0.0,0.0,0.0,0.0,0.0,0.0,0.0,0.0,0.0,0.0,0.0,0.0,0.0,0.0,0.0,0.0,0.0,0.0,0.0,0.0,0.0,0.0,0.0,0.0,0.0,0.0,0.0,0.0,0.0,0.0,0.0,0.0,0.0,0.0,0.0,0.0,0.0,0.0,0.0,0.0,0.0,0.0,0.0,0.0,0.0,0.0,0.0,0.0,0.0,0.0,0.0,0.0,0.0,0.0,0.0,0.0,0.0,0.0,0.0,0.0,0.0,0.0,0.0,0.0,0.0,0.0,0.0,0.0,0.0,0.0,0.0,0.0,0.0,0.0,0.0,-0.2214,-0.0446,-0.0102,0.0,0.0,0.0,0.0,0.0,0.0,0.0,0.0,0.0,0.0,0.0,0.0,0.0,0.0,0.0,0.0,0.0,0.0,0.0,0.0,0.0,0.0,0.0,0.0,0.0,0.0,0.0,0.0,0.0,0.0,0.0,0.0,0.0,0.0,0.0,0.0,0.0,0.0,0.0,0.0,0.0,0.0,0.0,0.0,0.0,0.0,0.0,0.0,0.0,0.0,0.0,0.0,0.0,0.0,0.0,0.0,0.0,0.0,0.0,0.0,0.0,0.0,0.0,0.0,0.0,0.0,0.0,0.0,0.0,0.0,0.0,0.0,0.0,0.0,0.0,0.0,0.0,0.0,0.0,0.0,0.0,0.0,0.0,0.0,0.0,0.0,0.0,0.0,0.0,0.0,0.0,0.0,0.0,0.0,0.0,0.0,0.0,0.0,0.0,0.0,0.0,0.0,0.0,0.0,0.0,0.0,0.0,0.0,-0.2748,-0.1852,-0.0204,0.0,0.0,0.0,0.0,0.0,0.0,0.0,0.0,0.0,0.0,0.0,0.0,0.0,0.0,0.0,0.0,0.0,0.0,0.0,0.0,0.0,0.0,0.0,0.0,0.0,0.0,0.0,0.0,0.0,0.0,0.0,0.0,0.0,0.0,0.0,0.0,0.0,0.0,0.0,0.0,0.0,0.0,0.0,0.0,0.0,0.0,0.0,0.0,0.0,0.0,0.0,0.0,0.0,0.0,0.0,0.0,0.0,0.0,0.0,0.0,0.0,0.0,0.0,0.0,0.0,0.0,0.0,0.0,0.0,0.0,0.0,0.0,0.0,0.0,0.0,0.0,0.0,0.0,0.0,0.0,0.0,0.0,0.0,0.0,0.0,0.0,0.0,0.0,0.0,0.0,0.0,0.0,0.0,0.0,0.0,0.0,0.0,0.0,0.0,0.0,0.0,0.0,0.0,0.0,0.0,0.0,0.0,0.0,0.0,-0.1683,-0.1145,-0.0104,0.0,0.0,0.0,0.0,0.0,0.0,0.0,0.0,0.0,0.0,0.0,0.0,0.0,0.0,0.0,0.0,0.0,0.0,0.0,0.0,0.0,0.0,0.0,0.0,0.0,0.0,0.0,0.0,0.0,0.0,0.0,0.0,0.0,0.0,0.0,0.0,0.0,0.0,0.0,0.0,0.0,0.0,0.0,0.0,0.0,0.0,0.0,0.0,0.0,0.0,0.0,0.0,0.0,0.0,0.0,0.0,0.0,0.0,0.0,0.0,0.0,0.0,0.0,0.0,0.0,0.0,0.0,0.0,0.0,0.0,0.0,0.0,0.0,0.0,0.0,0.0,0.0,0.0,0.0,0.0,0.0,0.0,0.0,0.0,0.0,0.0,0.0,0.0,0.0,0.0,0.0,0.0,0.0,0.0,0.0,0.0,0.0,0.0,0.0,0.0,0.0,0.0,0.0,0.0,0.0,0.0,0.0,0.0,0.0,-0.1342,-0.0106,0.0,0.0,0.0,0.0,0.0,0.0,0.0,0.0,0.0,0.0,0.0,0.0,0.0,0.0,0.0,0.0,0.0,0.0,0.0,0.0,0.0,0.0,0.0,0.0,0.0,0.0,0.0,0.0,0.0,0.0,0.0,0.0,0.0,0.0,0.0,0.0,0.0,0.0,0.0,0.0,0.0,0.0,0.0,0.0,0.0,0.0,0.0,0.0,0.0,0.0,0.0,0.0,0.0,0.0,0.0,0.0,0.0,0.0,0.0,0.0,0.0,0.0,0.0,0.0,0.0,0.0,0.0,0.0,0.0,0.0,0.0,0.0,0.0,0.0,0.0,0.0,0.0,0.0,0.0,0.0,0.0,0.0,0.0,0.0,0.0,0.0,0.0,0.0,0.0,0.0,0.0,0.0,0.0,0.0,0.0,0.0,0.0,0.0,0.0,0.0,0.0,0.0,0.0,0.0,0.0,0.0,0.0,0.0,0.0,0.0,-0.3349,-0.2183,-0.1445,-0.054,0.0,0.0,0.0,0.0,0.0,0.0,0.0,0.0,0.0,0.0,0.0,0.0,0.0,0.0,0.0,0.0,0.0,0.0,0.0,0.0,0.0,0.0,0.0,0.0,0.0,0.0,0.0,0.0,0.0,0.0,0.0,0.0,0.0,0.0,0.0,0.0,0.0,0.0,0.0,0.0,0.0,0.0,0.0,0.0,0.0,0.0,0.0,0.0,0.0,0.0,0.0,0.0,0.0,0.0,0.0,0.0,0.0,0.0,0.0,0.0,0.0,0.0,0.0,0.0,0.0,0.0,0.0,0.0,0.0,0.0,0.0,0.0,0.0,0.0,0.0,0.0,0.0,0.0,0.0,0.0,0.0,0.0,0.0,0.0,0.0,0.0,0.0,0.0,0.0,0.0,0.0,0.0,0.0,0.0,0.0,0.0,0.0,0.0,0.0,0.0,0.0,0.0,0.0,0.0,0.0,0.0,0.0,-0.5563,-0.4727,-0.3739,-0.2416,-0.1376,-0.0605,-0.0055,0.0,0.0,0.0,0.0,0.0,0.0,0.0,0.0,0.0,0.0,0.0,0.0,0.0,0.0,0.0,0.0,0.0,0.0,0.0,0.0,0.0,0.0,0.0,0.0,0.0,0.0,0.0,0.0,0.0,0.0,0.0,0.0,0.0,0.0,0.0,0.0,0.0,0.0,0.0,0.0,0.0,0.0,0.0,0.0,0.0,0.0,0.0,0.0,0.0,0.0,0.0,0.0,0.0,0.0,0.0,0.0,0.0,0.0,0.0,0.0,0.0,0.0,0.0,0.0,0.0,0.0,0.0,0.0,0.0,0.0,0.0,0.0,0.0,0.0,0.0,0.0,0.0,0.0,0.0,0.0,0.0,0.0,0.0,0.0,0.0,0.0,0.0,0.0,0.0,0.0,0.0,0.0,0.0,0.0,0.0,0.0,0.0,0.0,0.0,0.0,0.0,0.0,0.0,0.0,0.0,-0.5628,-0.5074,-0.4185,-0.2682,-0.2517,-0.1835,-0.0165,0.0,0.0,0.0,0.0,0.0,0.0,0.0,0.0,0.0,0.0,0.0,0.0,0.0,0.0,0.0,0.0,0.0,0.0,0.0,0.0,0.0,0.0,0.0,0.0,0.0,0.0,0.0,0.0,0.0,0.0,0.0,0.0,0.0,0.0,0.0,0.0,0.0,0.0,0.0,0.0,0.0,0.0,0.0,0.0,0.0,0.0,0.0,0.0,0.0,0.0,0.0,0.0,0.0,0.0,0.0,0.0,0.0,0.0,0.0,0.0,0.0,0.0,0.0,0.0,0.0,0.0,0.0,0.0,0.0,0.0,0.0,0.0,0.0,0.0,0.0,0.0,0.0,0.0,0.0,0.0,0.0,0.0,0.0,0.0,0.0,0.0,0.0,0.0,0.0,0.0,0.0,0.0,0.0,0.0,0.0,0.0,0.0,0.0,0.0,0.0,0.0,0.0,0.0,0.0,0.0,-0.7145,-0.6537,-0.5917,-0.5528,-0.4627,-0.3388,-0.1669,-0.1569,-0.111,-0.0052,0.0,0.0,0.0,0.0,0.0,0.0,0.0,0.0,0.0,0.0,0.0,0.0,0.0,0.0,0.0,0.0,0.0,0.0,0.0,0.0,0.0,0.0,0.0,0.0,0.0,0.0,0.0,0.0,0.0,0.0,0.0,0.0,0.0,0.0,0.0,0.0,0.0,0.0,0.0,0.0,0.0,0.0,0.0,0.0,0.0,0.0,0.0,0.0,0.0,0.0,0.0,0.0,0.0,0.0,0.0,0.0,0.0,0.0,0.0,0.0,0.0,0.0,0.0,0.0,0.0,0.0,0.0,0.0,0.0,0.0,0.0,0.0,0.0,0.0,0.0,0.0,0.0,0.0,0.0,0.0,0.0,0.0,0.0,0.0,0.0,0.0,0.0,0.0,0.0,0.0,0.0,0.0,0.0,0.0,0.0,0.0,0.0,0.0,0.0,0.0,0.0,0.0,-0.7882,-0.7802,-0.7494,-0.6827,-0.6118,-0.4993,-0.3331,-0.3138,-0.2496,-0.1086,0.0,0.0,0.0,0.0,0.0,0.0,0.0,0.0,0.0,0.0,0.0,0.0,0.0,0.0,0.0,0.0,0.0,0.0,0.0,0.0,0.0,0.0,0.0,0.0,0.0,0.0,0.0,0.0,0.0,0.0,0.0,0.0,0.0,0.0,0.0,0.0,0.0,0.0,0.0,0.0,0.0,0.0,0.0,0.0,0.0,0.0,0.0,0.0,0.0,0.0,0.0,0.0,0.0,0.0,0.0,0.0,0.0,0.0,0.0,0.0,0.0,0.0,0.0,0.0,0.0,0.0,0.0,0.0,0.0,0.0,0.0,0.0,0.0,0.0,0.0,0.0,0.0,0.0,0.0,0.0,0.0,0.0,0.0,0.0,0.0,0.0,0.0,0.0,0.0,0.0,0.0,0.0,0.0,0.0,0.0,0.0,0.0,0.0,0.0,0.0,0.0,0.0,-0.8015,-0.8852,-0.8807,-0.7271,-0.7253,-0.6633,-0.5032,-0.4789,-0.4136,-0.2794,0.0,0.0,0.0,0.0,0.0,0.0,0.0,0.0,0.0,0.0,0.0,0.0,0.0,0.0,0.0,0.0,0.0,0.0,0.0,0.0,0.0,0.0,0.0,0.0,0.0,0.0,0.0,0.0,0.0,0.0,0.0,0.0,0.0,0.0,0.0,0.0,0.0,0.0,0.0,0.0,0.0,0.0,0.0,0.0,0.0,0.0,0.0,0.0,0.0,0.0,0.0,0.0,0.0,0.0,0.0,0.0,0.0,0.0,0.0,0.0,-0.74,-0.6856,0.0,0.0,0.0,0.0,0.0,0.0,0.0,0.0,0.0,0.0,0.0,0.0,0.0,0.0,0.0,0.0,0.0,0.0,0.0,0.0,0.0,0.0,0.0,0.0,0.0,0.0,0.0,0.0,0.0,0.0,0.0,0.0,0.0,0.0,0.0,0.0,0.0,0.0,0.0,0.0,-0.8397,-0.9076,-0.9339,-0.878,-0.882,-0.8169,-0.6415,-0.6316,-0.5746,-0.4191,-0.3288,0.0,0.0,0.0,0.0,0.0,0.0,0.0,0.0,0.0,0.0,0.0,0.0,0.0,0.0,0.0,0.0,0.0,0.0,0.0,0.0,0.0,0.0,0.0,0.0,0.0,0.0,0.0,0.0,0.0,0.0,0.0,0.0,0.0,0.0,0.0,0.0,0.0,0.0,0.0,0.0,0.0,0.0,0.0,0.0,0.0,0.0,0.0,0.0,0.0,0.0,0.0,0.0,0.0,0.0,0.0,0.0,0.0,0.0,0.0,-0.8011,-0.7516,0.0,0.0,0.0,0.0,0.0,0.0,0.0,0.0,0.0,0.0,0.0,0.0,0.0,0.0,0.0,0.0,0.0,0.0,0.0,0.0,0.0,0.0,0.0,0.0,0.0,0.0,0.0,0.0,0.0,0.0,0.0,0.0,0.0,0.0,0.0,0.0,0.0,0.0,0.0,0.0,-0.8615,-0.9184,-0.949,-0.9241,-0.935,-0.8999,-0.7983,-0.7959,-0.7365,-0.5829,-0.4392,0.0,0.0,0.0,0.0,0.0,0.0,0.0,0.0,0.0,0.0,0.0,0.0,0.0,0.0,0.0,0.0,0.0,0.0,0.0,0.0,0.0,0.0,0.0,0.0,0.0,0.0,0.0,0.0,0.0,0.0,0.0,0.0,0.0,0.0,0.0,0.0,0.0,0.0,0.0,0.0,0.0,0.0,0.0,0.0,0.0,0.0,0.0,0.0,0.0,0.0,0.0,0.0,0.0,-0.8824,-0.8885,-0.8878,-0.8804,-0.8818,-0.8865,-0.8547,-0.8147,-0.7753,-0.778,0.0,0.0,0.0,0.0,0.0,0.0,0.0,0.0,0.0,0.0,0.0,0.0,0.0,0.0,0.0,0.0,0.0,0.0,0.0,0.0,0.0,0.0,-0.8208,-0.8106,-0.837,-0.8506,-0.8018,0.0,0.0,0.0,0.0,0.0,0.0,0.0,0.0,0.0,0.0,0.0,-0.8852,-0.9306,-0.953,-0.9282,-0.9306,-0.9306,-0.9187,-0.9193,-0.8673,-0.7489,-0.5996,-0.4574,0.0,0.0,0.0,0.0,0.0,0.0,0.0,0.0,0.0,0.0,0.0,0.0,0.0,0.0,0.0,0.0,0.0,0.0,0.0,0.0,0.0,0.0,0.0,0.0,0.0,0.0,0.0,0.0,0.0,0.0,0.0,0.0,-0.5499,-0.6479,0.0,0.0,0.0,0.0,0.0,0.0,0.0,0.0,0.0,0.0,0.0,0.0,0.0,-0.8438,-0.8587,-0.8784,-0.8831,-0.8851,-0.8871,-0.8885,-0.8885,-0.8865,-0.8865,-0.8878,-0.8817,0.0,-0.8377,-0.8513,0.0,0.0,0.0,0.0,0.0,0.0,0.0,0.0,0.0,0.0,0.0,0.0,0.0,0.0,0.0,0.0,0.0,0.0,0.0,0.0,0.0,0.0,-0.9091,-0.9144,-0.9218,-0.9239,-0.9164,-0.8533,-0.7928,-0.7907,-0.7921,-0.8024,0.0,0.0,0.0,0.0,0.0,0.0,-0.9327,-0.9585,-0.968,-0.9381,-0.9367,-0.9266,-0.8988,-0.9083,-0.9053,-0.8667,-0.7486,-0.6596,-0.6187,-0.3566,0.0,0.0,0.0,0.0,0.0,0.0,0.0,0.0,0.0,0.0,0.0,0.0,0.0,0.0,0.0,0.0,0.0,0.0,0.0,0.0,0.0,0.0,0.0,0.0,0.0,0.0,0.0,0.0,0.0,-0.3381,-0.462,-0.5283,-0.542,-0.5365,0.0,0.0,0.0,0.0,0.0,0.0,0.0,0.0,0.0,-0.89,-0.8784,-0.8811,-0.896,-0.9022,-0.9103,-0.9191,-0.9273,-0.9313,-0.9313,-0.9313,-0.9266,-0.9191,-0.9191,-0.9062,-0.8914,-0.8845,-0.8669,-0.8474,0.0,0.0,0.0,0.0,-0.7977,-0.7997,-0.8167,-0.8221,-0.8248,-0.8397,0.0,0.0,0.0,0.0,0.0,0.0,0.0,-0.8486,-0.8764,-0.8994,-0.9248,-0.9347,-0.9381,-0.9381,-0.9381,-0.9069,-0.8743,-0.8521,-0.8608,-0.8689,-0.8811,-0.9069,0.0,0.0,0.0,-0.9842,-0.9551,-0.9693,-0.9741,-0.953,-0.951,-0.9388,-0.9083,-0.9198,-0.9218,-0.9069,-0.7812,-0.7059,-0.6913,-0.4941,-0.3404,0.0,0.0,0.0,0.0,0.0,0.0,0.0,0.0,0.0,0.0,0.0,0.0,0.0,0.0,0.0,0.0,0.0,0.0,0.0,0.0,0.0,0.0,0.0,0.0,0.0,0.0,0.0,0.0,-0.3559,-0.4576,-0.53,-0.552,-0.5634,0.0,0.0,0.0,0.0,0.0,0.0,-0.8703,-0.875,-0.894,-0.9313,-0.915,-0.9137,-0.9378,-0.9378,-0.9361,-0.9442,-0.9557,-0.9591,-0.9551,-0.9551,-0.949,-0.9381,-0.9381,-0.9313,-0.9255,-0.9055,-0.8974,-0.8871,-0.8811,-0.8811,-0.8852,-0.8594,-0.8472,-0.8486,-0.8777,-0.8879,-0.8899,-0.9015,-0.9049,-0.9001,-0.8737,0.0,0.0,0.0,0.0,-0.8879,-0.9103,-0.9218,-0.9306,-0.9456,-0.9496,-0.9496,-0.9496,-0.9496,-0.9408,-0.911,-0.9137,-0.9268,-0.9268,-0.9462,0.0,-0.9612,-0.9802,-0.9896,-0.97,-0.9754,-0.9768,-0.9625,-0.9612,-0.9503,-0.9289,-0.9313,-0.9313,-0.9221,-0.8244,-0.7649,-0.7588,-0.6214,-0.486,-0.3651,0.0,0.0,0.0,0.0,0.0,0.0,0.0,0.0,0.0,0.0,0.0,0.0,0.0,0.0,0.0,0.0,0.0,0.0,0.0,0.0,0.0,0.0,0.0,0.0,0.0,0.0,0.0,0.0,0.0,-0.8477,-0.8581,0.0,0.0,0.0,0.0,-0.9033,-0.8919,-0.9028,-0.932,-0.9076,-0.9134,-0.9768,-0.951,-0.9496,-0.9781,-0.9788,-0.9727,-0.9598,-0.9605,-0.9537,-0.9395,-0.9395,-0.9388,-0.9381,-0.9381,-0.9374,-0.9361,-0.9262,-0.9062,-0.8885,-0.8871,-0.879,-0.875,-0.9071,-0.9022,-0.8892,-0.9245,-0.9347,-0.9347,-0.9354,-0.9361,-0.9327,-0.9228,-0.9173,0.0,0.0,-0.9296,-0.9289,-0.9666,-0.968,-0.9625,-0.9768,-0.9795,-0.9795,-0.9795,-0.9795,-0.9713,-0.9415,-0.9367,-0.9367,-0.9367,0.0,-0.9768,-0.9632,-0.9802,-0.993,-0.9829,-0.9815,-0.9768,-0.9625,-0.9612,-0.9544,-0.9381,-0.9374,-0.9313,-0.9221,-0.9235,-0.9138,-0.8801,-0.7658,-0.692,-0.6704,-0.3914,0.0,0.0,0.0,0.0,0.0,0.0,0.0,0.0,0.0,0.0,0.0,0.0,0.0,0.0,0.0,0.0,0.0,0.0,0.0,0.0,0.0,0.0,0.0,0.0,0.0,0.0,0.0,0.0,-0.7662,-0.8519,0.0,-0.9293,-0.9089,-0.8994,-0.92,-0.9286,-0.9415,-0.9523,-0.97,-0.9856,-0.9903,-0.9768,-0.9713,-0.9822,-0.9734,-0.9659,-0.9612,-0.97,-0.972,-0.9666,-0.9666,-0.9666,-0.9659,-0.9564,-0.953,-0.9517,-0.9361,-0.9327,-0.9381,-0.9469,-0.9476,-0.9435,-0.9544,-0.9551,-0.9523,-0.9625,-0.9666,-0.9632,-0.9442,-0.9313,-0.9262,-0.9062,-0.9083,-0.9241,-0.934,-0.9476,-0.9639,-0.9842,-1.0005,-1.0053,-1.0107,-1.0114,-1.0114,-1.0114,-1.0114,-1.0059,-0.9849,-0.9734,-0.9666,-0.9666,-0.9917,-1.01,-1.0053,-1.0209,-1.0243,-0.9936,-0.9909,-0.9849,-0.9761,-0.9747,-0.9686,-0.9544,-0.953,-0.9462,-0.9306,-0.9442,-0.9435,-0.9232,-0.889,-0.8172,-0.7028,-0.4967,-0.346,0.0,0.0,0.0,0.0,0.0,0.0,0.0,0.0,0.0,0.0,0.0,0.0,0.0,0.0,0.0,0.0,0.0,0.0,0.0,0.0,0.0,0.0,0.0,0.0,0.0,-0.5591,-0.7098,-0.7795,-0.8666,-0.9268,-0.9361,-0.9245,-0.9225,-0.9367,-0.9612,-0.9754,-0.9754,-1.0086,-1.0256,-1.0202,-1.01,-1.0073,-1.0127,-1.0032,-0.9985,-0.9985,-1.008,-1.01,-1.0046,-1.0046,-1.0019,-0.9971,-0.9876,-0.9836,-0.9829,-0.9727,-0.9747,-0.9822,-0.9713,-0.9673,-0.968,-0.9734,-0.9747,-0.9754,-0.9802,-0.9822,-0.9788,-0.9591,-0.9462,-0.9361,-0.9266,-0.93,-0.9401,-0.9503,-0.9673,-0.9842,-0.9883,-1.0086,-1.0202,-1.0202,-1.0243,-1.0263,-1.0215,-1.0202,-1.0154,-0.9943,-0.9971,-0.9958,-0.991,-1.0114,-1.0283,-1.0283,-1.0358,-1.0331,-1.0017,-0.9984,-0.993,-0.9836,-0.9822,-0.9781,-0.9686,-0.9774,-0.9727,-0.9476,-0.9646,-0.9646,-0.9395,-0.9673,-0.9271,-0.8105,-0.603,-0.4124,-0.2506,0.0,0.0,0.0,0.0,0.0,0.0,0.0,0.0,0.0,0.0,0.0,0.0,0.0,0.0,0.0,0.0,0.0,0.0,0.0,0.0,0.0,0.0,0.0,-0.6515,-0.6754,-0.7419,-0.9205,-0.9309,-0.9391,-0.9774,-0.9686,-0.9666,-0.9815,-0.9909,-0.9997,-1.0011,-1.0222,-1.0371,-1.05,-1.0507,-1.0575,-1.0724,-1.0724,-1.0724,-1.0717,-1.0724,-1.0649,-1.05,-1.05,-1.0419,-1.029,-1.029,-1.0283,-1.0283,-1.0283,-1.0283,-1.0222,-0.9632,-0.9401,-0.9422,-0.9564,-0.9618,-0.9639,-0.9774,-0.9822,-0.9822,-0.9815,-0.9815,-0.9815,-0.9808,-0.9808,-0.9815,-0.9815,-0.9822,-0.9829,-0.9829,-0.9883,-0.9997,-0.9997,-1.0175,-1.0243,-1.0024,-0.9997,-0.995,-0.9856,-1.008,-1.0236,-1.0011,-1.0181,-1.0283,-1.0283,-1.0283,0.0,-1.0011,-0.999,-0.993,-0.9842,-0.9829,-0.9829,-0.9829,-1.01,-1.0086,-0.9646,-0.9822,-0.9842,-0.9408,-0.9951,-1.0188,-0.9908,-0.6995,-0.4524,-0.2588,0.0,0.0,0.0,0.0,0.0,0.0,0.0,0.0,0.0,0.0,0.0,0.0,0.0,0.0,0.0,0.0,0.0,0.0,0.0,0.0,0.0,-0.435,-0.5142,-0.6781,-0.7933,-0.8889,-0.9458,-0.9408,-0.9408,-0.9646,-0.953,-0.9598,-0.9896,-1.0127,-1.031,-1.0527,-1.0778,-1.0887,-1.0759,-1.0759,-1.0846,-1.082,-1.082,-1.0833,-1.0724,-1.0833,-1.0739,-1.0656,-1.0656,-1.0575,-1.0432,-1.0432,-1.0378,-1.0283,-1.0283,-1.0283,-1.0249,-0.9971,-0.9808,-0.9856,-0.9788,-0.9761,-0.9768,-0.9808,-0.9822,-0.9802,-0.97,-0.9666,-0.9646,-0.9537,-0.9578,-0.9666,-0.9666,-0.9822,-0.9923,-0.9923,-1.01,-1.0215,-1.0215,-1.0249,-1.027,-1.0222,-1.0215,-1.0168,-0.9957,-1.0229,-1.0317,-0.9951,-1.0188,-1.0399,-1.0297,-1.0371,-1.0378,-1.0236,-1.012,-0.997,-0.993,-0.9923,-0.9923,-0.9923,-1.0004,-1.0012,-0.9774,-0.9836,-0.9781,-0.9557,-0.9707,-0.9172,-0.7768,-0.6991,-0.5748,0.0,0.0,0.0,0.0,0.0,0.0,0.0,0.0,0.0,0.0,0.0,0.0,0.0,0.0,0.0,0.0,0.0,0.0,0.0,0.0,0.0,0.0,-0.4655,-0.5462,-0.7749,-0.8807,-0.9367,-0.9585,-0.9476,-0.9462,-0.968,-0.9618,-0.9747,-1.0202,-1.0378,-1.0568,-1.0806,-1.1097,-1.1219,-1.1138,-1.113,-1.1157,-1.1157,-1.1157,-1.1116,-1.1097,-1.1185,-1.1151,-1.1002,-1.1002,-1.0921,-1.0772,-1.0772,-1.069,-1.0561,-1.0561,-1.0521,-1.0446,0.0,0.0,0.0,0.0,-1.0012,-1.0012,-1.0012,-1.0012,-0.9998,-0.9917,-0.989,-0.9876,-0.9788,-0.9822,-0.989,-0.989,-1.0012,-1.0148,-1.0148,-1.0256,-1.0371,-1.0371,-1.0419,-1.0446,-1.0385,-1.0371,-1.0324,-1.0175,-1.0331,0.0,-1.0066,-1.0331,-1.0561,-1.048,-1.0534,-1.0534,-1.0385,-1.029,-1.0215,-1.0154,-1.0148,-1.0148,-1.0148,-1.0263,0.0,0.0,0.0,-1.0066,-0.9985,-0.9235,0.0,0.0,0.0,0.0,0.0,0.0,0.0,0.0,-0.0714,-0.1349,0.0,0.0,0.0,0.0,0.0,0.0,0.0,0.0,0.0,0.0,0.0,0.0,0.0,0.0,0.0,0.0,-0.4774,-0.5879,-0.8753,-0.9063,-0.9127,-0.9578,-0.9503,-0.9537,-0.9822,-0.9876,-1.008,-1.0514,-1.0683,-1.0846,-1.0948,-1.1274,0.0,0.0,0.0,-1.1619,-1.1619,-1.1619,-1.1619,-1.1619,-1.1619,-1.1545,-1.1416,-1.1416,-1.1321,-1.1234,-1.1234,-1.107,-1.0853,-1.0853,-1.0846,-1.069,-1.0412,-1.0297,-1.0283,-1.0283,-1.0283,-1.0283,-1.0283,0.0,0.0,-1.0283,-1.0283,-1.0283,-1.0283,-1.0283,-1.0283,-1.0283,-1.0283,-1.0283,-1.0283,-1.0371,-1.0466,-1.0466,-1.0575,-1.0636,-1.0493,-1.0466,-1.0432,-1.0304,-1.0392,-1.0453,-1.0324,-1.0534,-1.0717,-1.0697,-1.0697,-1.0643,-1.0507,-1.048,-1.0426,-1.0317,-1.0304,0.0,-1.0304,-1.0541,-1.0514,-1.0038,-1.0324,-1.0466,-1.0466,-0.8916,-0.813,-0.8215,-0.6507,-0.474,-0.3016,-0.2835,-0.1977,-0.0557,-0.1665,-0.2911,0.0,0.0,0.0,0.0,0.0,0.0,0.0,0.0,0.0,0.0,0.0,0.0,0.0,0.0,0.0,-0.4518,-0.4695,-0.5356,-0.7462,-0.7622,-0.8047,-0.942,-0.9686,-0.9808,-0.9923,-1.0222,-1.05,-1.0766,-1.0995,-1.1199,-1.1477,-1.1545,-1.1572,-1.1572,-1.1606,-1.1619,-1.1619,-1.1619,-1.1619,-1.1619,-1.1619,0.0,-1.1572,-1.1572,-1.1423,-1.1234,-1.1234,-1.1009,-1.0765,-1.0765,-1.0744,-1.0704,-1.0521,-1.0378,-1.0283,-1.0283,-1.0283,-1.0283,-1.0283,-1.0283,-1.0283,-1.0283,-1.0283,-1.0283,-1.0283,-1.0283,0.0,-1.0283,-1.0283,-1.0283,-1.0283,-1.0304,-1.0324,-1.0324,-1.0344,-1.0358,-1.0331,-1.0324,-1.0317,-1.0283,-1.0392,-1.048,-1.0453,-1.0602,-1.0677,-1.0555,-1.0534,-1.0527,-1.0493,-1.0392,-1.0351,-1.0439,-1.0453,-1.0453,-1.0453,-1.0507,-1.0446,-1.0249,-1.029,-1.0324,-1.0324,-0.9972,-0.9786,-0.9626,-0.789,-0.6749,-0.6202,-0.4915,-0.4133,-0.3756,-0.1488,-0.0615,0.0,0.0,0.0,0.0,0.0,0.0,0.0,0.0,0.0,0.0,0.0,0.0,0.0,0.0,-0.2616,-0.3398,-0.4219,-0.5309,-0.716,-0.7362,-0.7673,-0.8471,-0.9394,-0.999,-1.0294,-1.0521,-1.0765,-1.1145,-1.1233,-1.1375,-1.1606,-1.1687,-1.1728,-1.1728,-1.1803,-1.1843,-1.1843,-1.1843,-1.1843,-1.1843,-1.1843,-1.1843,-1.1837,-1.1762,-1.164,-1.1491,-1.1423,-1.1267,-1.1043,-1.0894,-1.0766,-1.0819,-1.0663,-1.0561,-1.05,-1.05,-1.05,-1.05,-1.05,-1.05,-1.05,-1.05,-1.05,-1.05,-1.05,-1.05,-1.05,-1.05,-1.05,-1.05,-1.05,-1.05,-1.05,-1.05,-1.05,-1.05,-1.05,-1.05,-1.05,-1.05,-1.0561,-1.0609,-1.0609,-1.067,-1.0697,-1.0616,-1.0609,-1.0609,-1.0609,-1.0541,-1.0527,-1.0602,-1.0609,-1.0609,-1.0609,-1.0534,-1.046,-1.0392,-1.0317,-1.0283,-1.0283,-0.9506,-0.9025,-0.889,-0.7171,-0.582,-0.49,-0.4052,-0.3179,-0.2293,-0.076,-0.044,0.0,0.0,0.0,0.0,0.0,0.0,0.0,0.0,0.0,0.0,0.0,0.0,0.0,-0.1361,-0.2422,-0.2252,-0.3449,-0.4858,-0.6223,-0.6807,-0.7132,-0.7151,-0.8953,-1.026,-1.0683,-1.0799,-1.1002,-1.1362,-1.1443,-1.1531,-1.1653,-1.1796,-1.1877,-1.1877,-1.1999,-1.2135,-1.2135,-1.2135,-1.2135,-1.2135,-1.2135,-1.2135,-1.206,-1.1932,-1.1843,-1.1782,-1.1606,-1.1463,-1.1328,-1.109,-1.0989,-1.0975,-1.0853,-1.0806,-1.0799,-1.0744,-1.0717,-1.0717,-1.0717,-1.0717,-1.0717,-1.0717,-1.0717,-1.0717,-1.0717,-1.0717,-1.0717,-1.0717,-1.0717,-1.0717,-1.0717,-1.0717,-1.0717,-1.0717,-1.0717,-1.0717,-1.0717,-1.0717,-1.0717,-1.0717,-1.0717,-1.0717,-1.0717,-1.0717,-1.0717,-1.0717,-1.0717,-1.0717,-1.0717,-1.0717,-1.0717,-1.0717,-1.0717,-1.0717,-1.0717,-1.0609,-1.0534,-1.0534,-1.0426,-1.0365,-1.0365,-0.9062,-0.8349,-0.8349,-0.6601,-0.5049,-0.3757,-0.3306,-0.24,-0.104,-0.0716,-0.1031,0.0,0.0,0.0,0.0,0.0,0.0,0.0,0.0,0.0,0.0,0.0,0.0,0.0,-0.1213,-0.2291,-0.2443,-0.2457,-0.2659,-0.3007,-0.4383,-0.5468,-0.5606,-0.8579,-1.0663,-1.0717,-1.1084,-1.1335,-1.1389,-1.1633,-1.1789,-1.1809,-1.1952,-1.2033,-1.2033,-1.2054,-1.2135,-1.2135,-1.2135,-1.2135,-1.2135,-1.2135,-1.2135,-1.2135,-1.2047,-1.1891,-1.1626,-1.1341,-1.1275,-1.1185,-1.1151,-1.1138,-1.1138,-1.1118,-1.1111,-1.1084,-1.0819,-1.0717,-1.0717,-1.0717,-1.0717,-1.0717,-1.0717,-1.0717,-1.0717,-1.0717,-1.0717,-1.0717,-1.0717,-1.0717,-1.0717,-1.0717,-1.0717,-1.0717,-1.0717,-1.0717,-1.0717,-1.0717,-1.0717,-1.0717,-1.0717,-1.0717,-1.0717,-1.0717,-1.0717,-1.0717,-1.0717,-1.0717,-1.0717,-1.0717,-1.0717,-1.0717,-1.0717,-1.0717,-1.0717,-1.0717,-1.0704,-1.0697,-1.0697,-1.0677,-1.067,-1.067,-1.0472,-1.0399,-1.0399,-0.8596,-0.7592,-0.7393,-0.5867,-0.5005,-0.4739,-0.3141,-0.1649,0.0,0.0,0.0,0.0,0.0,0.0,0.0,0.0,0.0,0.0,0.0,0.0,0.0,-0.1305,-0.21,-0.1171,-0.18,-0.2445,-0.2607,-0.4125,-0.5686,-0.6758,-0.9338,-1.0975,-1.0975,-1.1307,-1.1558,-1.164,-1.1843,-1.1965,-1.1965,-1.2108,-1.2196,-1.2196,-1.2277,-1.2318,-1.2318,-1.2318,-1.2318,-1.2318,-1.2318,-1.2318,-1.2318,-1.223,-1.2026,-1.1735,-1.1606,-1.1504,-1.1423,-1.1335,-1.1294,-1.1287,-1.1199,-1.1234,-1.1138,-1.0928,-1.0786,-1.0839,-1.0751,-1.0717,-1.0717,-1.0717,-1.0717,-1.0717,-1.0717,-1.0717,-1.0717,-1.0717,-1.0717,-1.0717,-1.0717,-1.0717,-1.0717,-1.0717,-1.0717,-1.0717,-1.0717,-1.0717,-1.0717,-1.0717,-1.0792,-1.0786,-1.0786,-1.0921,-1.0975,-1.0975,-1.0833,-1.0717,-1.0717,-1.0717,-1.0717,-1.0717,-1.0717,-1.0717,-1.0717,-1.0717,-1.0717,-1.0717,-1.0717,-1.0717,-1.0717,-1.0717,-1.0717,-1.0717,-0.89,-0.803,-0.7964,-0.6231,-0.4827,-0.3823,-0.3021,-0.1736,0.0,0.0,0.0,0.0,0.0,0.0,0.0,0.0,0.0,0.0,0.0,0.0,0.0,-0.1016,-0.1391,-0.0188,-0.1015,-0.1864,-0.194,-0.394,-0.5863,-0.7196,-0.9656,-1.124,-1.1287,-1.1525,-1.1735,-1.1884,-1.204,-1.2128,-1.2128,-1.2271,-1.2345,-1.2345,-1.2447,-1.2501,-1.2501,-1.2501,-1.2501,-1.2501,-1.2501,-1.2501,-1.2494,-1.2352,-1.2169,-1.1952,-1.187,-1.1775,-1.1667,-1.1518,-1.1457,-1.1443,-1.1335,-1.1287,-1.1274,-1.1124,-1.1043,-1.0989,-1.088,-1.0839,-1.0839,-1.0839,-1.0839,-1.0833,-1.0799,-1.0785,-1.0772,-1.0731,-1.0717,-1.0717,-1.0717,-1.0717,-1.0717,-1.0717,-1.0751,-1.0785,-1.0785,-1.0812,-1.0839,-1.0839,-1.0934,-1.1009,-1.1009,-1.109,-1.1234,-1.1234,-1.0982,-1.0839,-1.0839,-1.0839,-1.0839,-1.0839,-1.0839,-1.0839,-1.0839,-1.0839,-1.0839,-1.0839,-1.0839,-1.0839,-1.0839,-1.0839,-1.0839,-1.0839,-0.9545,-0.8867,-0.8867,-0.7588,-0.6302,-0.5014,-0.4002,-0.2784,0.0,0.0,0.0,0.0,0.0,0.0,0.0,0.0,0.0,0.0,0.0,0.0,0.0,-0.0065,-0.0065,0.0,-0.0066,-0.0067,-0.0066,-0.3161,-0.5468,-0.5672,-0.9093,-1.1443,-1.1592,-1.1735,-1.1891,-1.2047,-1.2196,-1.2284,-1.2284,-1.242,-1.2494,-1.2494,-1.2501,-1.2501,-1.2501,-1.2501,-1.2501,-1.2501,-1.2501,-1.2501,-1.2494,-1.2352,-1.2284,-1.2257,-1.1959,-1.183,-1.1816,-1.1674,-1.1613,-1.1613,-1.1606,-1.1606,-1.1586,-1.1436,-1.128,-1.1158,-1.122,-1.1151,-1.1151,-1.1151,-1.1151,-1.1124,-1.0914,-1.0873,-1.084,-1.0765,-1.0717,-1.0717,-1.0717,-1.0717,-1.0717,-1.0717,-1.0766,-1.0873,-1.0873,-1.105,-1.1151,-1.1151,-1.122,-1.1158,-1.1158,-1.1227,-1.1234,-1.1234,-1.1158,-1.1151,-1.1151,-1.1151,-1.1151,-1.1151,-1.1151,-1.1151,-1.1151,-1.1151,-1.1151,-1.1151,-1.1151,-1.1151,-1.1151,-1.1151,-1.1151,-1.1151,-1.1151,-1.1076,-1.1076,-1.1076,-1.1007,-1.0869,-0.7174,-0.5507,0.0,0.0,0.0,0.0,0.0,0.0,0.0,0.0,0.0,0.0,0.0,0.0,0.0,0.0,0.0,0.0,0.0,0.0,0.0,-0.3207,-0.5563,-0.5684,-0.9128,-1.164,-1.1891,-1.2047,-1.2155,-1.221,-1.2345,-1.2433,-1.2433,-1.2474,-1.2501,-1.2501,-1.2501,-1.2501,-1.2501,-1.2501,-1.2501,-1.2501,-1.2501,-1.2501,-1.2494,-1.2352,-1.2237,-1.2128,-1.1918,-1.1775,-1.1687,-1.164,-1.1619,-1.1619,-1.1619,-1.1619,-1.1613,-1.1558,-1.1511,-1.1436,-1.1233,-1.1234,-1.1234,-1.1234,-1.1234,-1.122,-1.1104,-1.109,-1.1084,-1.1029,-1.1016,-1.1016,-1.1016,-1.1016,-1.1016,-1.1016,-1.105,-1.109,-1.109,-1.1131,-1.1234,-1.1234,-1.1246,-1.1314,-1.1314,-1.1396,-1.1463,-1.1463,-1.1294,-1.1234,-1.1234,-1.1234,-1.1234,-1.1234,-1.1234,-1.1234,-1.1234,-1.1234,-1.1234,-1.1234,-1.1234,-1.1234,-1.1234,-1.1234,-1.1234,-1.1234,-1.1234,-1.1234,-1.1234,-1.1234,-1.0606,-0.9348,-0.6766,-0.4957,0.0,0.0,0.0,0.0,0.0,0.0,0.0,0.0,0.0,0.0,0.0,0.0,0.0,0.0,0.0,0.0,0.0,0.0,0.0,-0.3253,-0.5722,-0.5869,-0.939,-1.1877,-1.2121,-1.2277,-1.2366,-1.2366,-1.2447,-1.2501,-1.2501,-1.2501,-1.2501,-1.2501,-1.2501,-1.2501,-1.2501,-1.2501,-1.2501,-1.2501,-1.2501,-1.2474,-1.242,-1.2332,-1.2203,-1.2054,-1.1898,-1.1782,-1.1694,-1.164,-1.1619,-1.1619,-1.1619,-1.1619,-1.1619,-1.1619,-1.1619,-1.1592,-1.1396,-1.1328,-1.1328,-1.1328,-1.1328,-1.1314,-1.126,-1.1246,-1.1233,-1.1179,-1.1234,-1.1234,-1.1234,-1.1234,-1.1234,-1.1234,-1.1275,-1.1246,-1.1246,-1.1287,-1.1328,-1.1328,-1.1402,-1.147,-1.147,-1.1552,-1.1619,-1.1619,-1.145,-1.1328,-1.1328,-1.1328,-1.1328,-1.1328,-1.1328,-1.1328,-1.1328,-1.1328,-1.1328,-1.1328,-1.1328,-1.1328,-1.1328,-1.1328,-1.1328,-1.1328,-1.1328,-1.1328,-1.1328,-1.1328,-1.076,-0.9555,-0.764,-0.5736,0.0,0.0,0.0,0.0,0.0,0.0,0.0,0.0,0.0,0.0,0.0,0.0,0.0,0.0,0.0,0.0,0.0,0.0,0.0,-0.3371,-0.588,-0.6029,-0.9588,-1.2135,-1.2284,-1.242,-1.2501,-1.2501,-1.2501,-1.2501,-1.2501,-1.2501,-1.2501,-1.2501,-1.2501,-1.2501,-1.2501,-1.2501,-1.2501,-1.2501,-1.2501,-1.2433,-1.2298,-1.2291,-1.221,-1.2067,-1.1911,-1.1837,-1.1823,-1.1687,-1.1626,-1.1619,-1.1619,-1.1619,-1.1619,-1.1619,-1.1619,-1.1619,-1.1619,-1.1619,-1.1619,-1.1619,-1.1619,-1.1592,-1.145,-1.1402,-1.1369,-1.1226,-1.1185,-1.1185,-1.1185,-1.1185,-1.1185,-1.1185,-1.1294,-1.1402,-1.1402,-1.1518,-1.1619,-1.1619,-1.1619,-1.1619,-1.1619,-1.1619,-1.1619,-1.1619,-1.1619,-1.1619,-1.1619,-1.1619,-1.1619,-1.1619,-1.1619,-1.1619,-1.1619,-1.1619,-1.1619,-1.1619,-1.1619,-1.1619,-1.1619,-1.1619,-1.1619,-1.1619,-1.1619,-1.1619,-1.1619,-1.1619,-1.1619,-1.1548,-0.9574,-0.7688,0.0,0.0,0.0,0.0,0.0,0.0,0.0,0.0,0.0,0.0,0.0,0.0,0.0,0.0,0.0,0.0,0.0,0.0,0.0,-0.3443,-0.6033,-0.6188,-0.9763,-1.2291,-1.2433,-1.2481,-1.2501,-1.2501,-1.2501,-1.2501,-1.2501,-1.2501,-1.2501,-1.2501,-1.2501,-1.2501,-1.2501,-1.2501,-1.2501,-1.2501,-1.2501,-1.2481,-1.244,-1.2338,-1.2271,-1.2223,-1.2067,-1.1938,-1.183,-1.1789,-1.1714,-1.1619,-1.1619,-1.1619,-1.1619,-1.1619,-1.1619,-1.1619,-1.1619,-1.1619,-1.1619,-1.1619,-1.1619,-1.1613,-1.1572,-1.1558,-1.1552,-1.1511,-1.1504,-1.1504,-1.1504,-1.1504,-1.1504,-1.1504,-1.1531,-1.1558,-1.1558,-1.1592,-1.1619,-1.1619,-1.1619,-1.1619,-1.1619,-1.1619,-1.1619,-1.1619,-1.1619,-1.1619,-1.1619,-1.1619,-1.1619,-1.1619,-1.1619,-1.1619,-1.1619,-1.1619,-1.1619,-1.1619,-1.1619,-1.1619,-1.1619,-1.1619,-1.1619,-1.1619,-1.1619,-1.1619,-1.1619,-1.1619,-1.1619,-1.1548,-0.9574,-0.7688,0.0,0.0,0.0,0.0,0.0,0.0,0.0,0.0,0.0,0.0,0.0,0.0,0.0,0.0,0.0,0.0,0.0,0.0,0.0,-0.3542,-0.6167,-0.6323,-0.9872,-1.2413,-1.2494,-1.2501,-1.2501,-1.2501,-1.2501,-1.2501,-1.2501,-1.2501,-1.2501,-1.2501,-1.2501,-1.2501,-1.2501,-1.2501,-1.2501,-1.2501,-1.2501,-1.2467,-1.2406,-1.2325,-1.2216,-1.2081,-1.1999,-1.1877,-1.1735,-1.1735,-1.1694,-1.1619,-1.1619,-1.1619,-1.1619,-1.1619,-1.1619,-1.1619,-1.1619,-1.1619,-1.1619,-1.1619,-1.1619,-1.1619,-1.1619,-1.1619,-1.1619,-1.1619,-1.1619,-1.1619,-1.1619,-1.1619,-1.1619,-1.1619,-1.1619,-1.1619,-1.1619,-1.1619,-1.1619,-1.1619,-1.1619,-1.1619,-1.1619,-1.1619,-1.1619,-1.1619,-1.1619,-1.1619,-1.1619,-1.1619,-1.1619,-1.1619,-1.1619,-1.1619,-1.1619,-1.1619,-1.1619,-1.1619,-1.1619,-1.1619,-1.1619,-1.1619,-1.1619,-1.1619,-1.1619,-1.1619,-1.1619,-1.1619,-1.1619,-1.1548,-1.0449,-0.8487,0.0,0.0,0.0,0.0,0.0,0.0,0.0,0.0,0.0,0.0,0.0,0.0,0.0,0.0,0.0,0.0,0.0,-0.0069,-0.035,-0.3754,-0.6378,-0.6619,-1.0145,-1.2481,-1.2501,-1.2501,-1.2501,-1.2501,-1.2501,-1.2501,-1.2501,-1.2501,-1.2501,-1.2501,-1.2501,-1.2501,-1.2501,-1.2501,-1.2501,-1.2501,-1.2501,-1.2433,-1.2318,-1.2298,-1.2149,-1.1891,-1.187,-1.1782,-1.1647,-1.1647,-1.164,-1.1619,-1.1619,-1.1619,-1.1619,-1.1619,-1.1619,-1.1619,-1.1619,-1.1619,-1.1619,-1.1619,-1.1619,-1.1619,-1.1619,-1.1619,-1.1619,-1.1619,-1.1619,-1.1619,-1.1619,-1.1619,-1.1619,-1.1619,-1.1619,-1.1619,-1.1619,-1.1619,-1.1619,-1.1619,-1.1619,-1.1619,-1.1619,-1.1619,-1.1619,-1.1619,-1.1619,-1.1619,-1.1619,-1.1619,-1.1619,-1.1619,-1.1619,-1.1619,-1.1619,-1.1619,-1.1619,-1.1619,-1.1619,-1.1619,-1.1619,-1.1619,-1.1619,-1.1619,-1.1619,-1.1619,-1.1619,-1.1619,-1.1619,-1.1619,-1.1619,-0.9507,0.0,0.0,0.0,0.0,0.0,0.0,0.0,0.0,0.0,0.0,0.0,0.0,0.0,0.0,0.0,0.0,0.0,-0.0538,-0.2159,-0.4512,-0.6686,-0.8487,-1.0836,-1.2372,-1.2488,-1.2501,-1.2501,-1.2501,-1.2501,-1.2501,-1.2501,-1.2501,-1.2501,-1.2501,-1.2501,-1.2501,-1.2501,-1.2501,-1.2501,-1.2501,-1.2501,-1.2488,-1.2461,-1.2345,-1.2264,-1.2203,-1.2074,-1.1938,-1.1796,-1.1796,-1.1728,-1.1619,-1.1619,-1.1619,-1.1619,-1.1619,-1.1619,-1.1619,-1.1619,-1.1619,-1.1619,-1.1619,-1.1619,-1.1619,-1.1619,-1.1619,-1.1619,-1.1619,-1.1619,-1.1619,-1.1619,-1.1619,-1.1619,-1.1619,-1.1619,-1.1619,-1.1619,-1.1619,-1.1619,-1.1619,-1.1619,-1.1619,-1.1619,-1.1619,-1.1619,-1.1619,-1.1619,-1.1619,-1.1619,-1.1619,-1.1619,-1.1619,-1.1619,-1.1619,-1.1619,-1.1619,-1.1619,-1.1619,-1.1619,-1.1619,-1.1619,-1.1619,-1.1619,-1.1619,-1.1619,-1.1619,-1.1619,-1.1619,-1.1619,-1.1619,-1.1619,-0.9507,0.0,0.0,0.0,0.0,0.0,0.0,0.0,0.0,0.0,0.0,0.0,0.0,0.0,0.0,0.0,0.0,0.0,-0.0335,-0.1231,-0.4063,-0.6422,-0.7589,-1.0434,-1.2345,-1.2488,-1.2501,-1.2501,-1.2501,-1.2501,-1.2501,-1.2501,-1.2501,-1.2501,-1.2501,-1.2501,-1.2501,-1.2501,-1.2501,-1.2501,-1.2501,-1.2501,-1.2461,-1.2386,-1.2325,-1.2203,-1.2047,-1.1972,-1.1857,-1.1721,-1.1721,-1.1681,-1.1619,-1.1619,-1.1619,-1.1619,-1.1619,-1.1619,-1.1619,-1.1619,-1.1619,-1.1619,-1.1619,-1.1619,-1.1619,-1.1619,-1.1619,-1.1619,-1.1619,-1.1619,-1.1619,-1.1619,-1.1619,-1.1619,-1.1619,-1.1619,-1.1619,-1.1619,-1.1619,-1.1619,-1.1619,-1.1619,-1.1619,-1.1619,-1.1619,-1.1619,-1.1619,-1.1619,-1.1619,-1.1619,-1.1619,-1.1619,-1.1619,-1.1619,-1.1619,-1.1619,-1.1619,-1.1619,-1.1619,-1.1619,-1.1619,-1.1619,-1.1619,-1.1619,-1.1619,-1.1619,-1.1619,-1.1619,-1.1619,-1.1619,-1.1619,-1.1619,-0.9507,0.0,0.0,0.0,0.0,0.0,0.0,0.0,0.0,0.0,0.0,0.0,0.0,0.0,0.0,0.0,0.0,0.0,-0.0133,-0.0535,-0.3724,-0.6232,-0.6813,-1.0092,-1.2311,-1.2481,-1.2501,-1.2501,-1.2501,-1.2501,-1.2501,-1.2501,-1.2501,-1.2501,-1.2501,-1.2501,-1.2501,-1.2501,-1.2501,-1.2501,-1.2501,-1.2501,-1.244,-1.2332,-1.2305,-1.2155,-1.1925,-1.1857,-1.1769,-1.166,-1.1633,-1.1619,-1.1619,-1.1619,-1.1619,-1.1619,-1.1619,-1.1619,-1.1619,-1.1619,-1.1619,-1.1619,-1.1619,-1.1619,-1.1619,-1.1619,-1.1619,-1.1619,-1.1619,-1.1619,-1.1619,-1.1619,-1.1619,-1.1619,-1.1619,-1.1619,-1.1619,-1.1619,-1.1619,-1.1619,-1.1619,-1.1619,-1.1619,-1.1619,-1.1619,-1.1619,-1.1619,-1.1619,-1.1619,-1.1619,-1.1619,-1.1619,-1.1619,-1.1619,-1.1619,-1.1619,-1.1619,-1.1619,-1.1619,-1.1619,-1.1619,-1.1619,-1.1619,-1.1619,-1.1619,-1.1619,-1.1619,-1.1619,-1.1619,-1.1619,-1.1619,-1.1619,-0.9723,0.0,0.0,0.0,0.0,0.0,0.0,0.0,0.0,0.0,0.0,0.0,0.0,0.0,0.0,0.0,0.0,0.0,-0.0631,-0.2359,-0.4462,-0.6597,-0.8695,-1.0792,-1.2196,-1.2474,-1.2501,-1.2501,-1.2501,-1.2501,-1.2501,-1.2501,-1.2501,-1.2501,-1.2501,-1.2501,-1.2501,-1.2501,-1.2501,-1.2501,-1.2501,-1.2501,-1.2494,-1.2474,-1.2345,-1.2277,-1.223,-1.1952,-1.1823,-1.1803,-1.1674,-1.1619,-1.1619,-1.1619,-1.1619,-1.1619,-1.1619,-1.1619,-1.1619,-1.1619,-1.1619,-1.1619,-1.1619,-1.1619,-1.1619,-1.1619,-1.1619,-1.1619,-1.1619,-1.1619,-1.1619,-1.1619,-1.1619,-1.1619,-1.1619,-1.1619,-1.1619,-1.1619,-1.1619,-1.1619,-1.1619,-1.1619,-1.1619,-1.1619,-1.1619,-1.1619,-1.1619,-1.1619,-1.1619,-1.1619,-1.1619,-1.1619,-1.1619,-1.1619,-1.1619,-1.1619,-1.1619,-1.1619,-1.1619,-1.1619,-1.1619,-1.1619,-1.1619,-1.1619,-1.1619,-1.1619,-1.1619,-1.1619,-1.1619,-1.1619,-1.1619,-1.1619,-1.0449,0.0,0.0,0.0,0.0,0.0,0.0,0.0,0.0,0.0,0.0,0.0,0.0,0.0,0.0,0.0,0.0,0.0,-0.025,-0.1036,-0.2836,-0.4876,-0.7211,-0.9159,-1.095,-1.2397,-1.2501,-1.2501,-1.2501,-1.2501,-1.2501,-1.2501,-1.2501,-1.2501,-1.2501,-1.2501,-1.2501,-1.2501,-1.2501,-1.2501,-1.2501,-1.2501,-1.2461,-1.2372,-1.2318,-1.2237,-1.2142,-1.1925,-1.183,-1.1823,-1.1681,-1.1619,-1.1619,-1.1619,-1.1619,-1.1619,-1.1619,-1.1619,-1.1619,-1.1619,-1.1619,-1.1619,-1.1619,-1.1619,-1.1619,-1.1619,-1.1619,-1.1619,-1.1619,-1.1619,-1.1619,-1.1619,-1.1619,-1.1619,-1.1619,-1.1619,-1.1619,-1.1619,-1.1619,-1.1619,-1.1619,-1.1619,-1.1619,-1.1619,-1.1619,-1.1619,-1.1619,-1.1619,-1.1619,-1.1619,-1.1619,-1.1619,-1.1619,-1.1619,-1.1619,-1.1619,-1.1619,-1.1619,-1.1619,-1.1619,-1.1619,-1.1619,-1.1619,-1.1619,-1.1619,-1.1619,-1.1619,-1.1619,-1.1619,-1.1619,-1.1619,-1.1619,-1.0593,0.0,0.0,0.0,0.0,0.0,0.0,0.0,0.0,0.0,0.0,0.0,0.0,0.0,0.0,0.0,0.0,0.0,0.0,0.0,-0.1661,-0.3713,-0.604,-0.8053,-1.0075,-1.2313,-1.2501,-1.2501,-1.2501,-1.2501,-1.2501,-1.2501,-1.2501,-1.2501,-1.2501,-1.2501,-1.2501,-1.2501,-1.2501,-1.2501,-1.2501,-1.2501,-1.2447,-1.2352,-1.2352,-1.2291,-1.2182,-1.1986,-1.1898,-1.1884,-1.1694,-1.1619,-1.1619,-1.1619,-1.1619,-1.1619,-1.1619,-1.1619,-1.1619,-1.1619,-1.1619,-1.1619,-1.1619,-1.1619,-1.1619,-1.1619,-1.1619,-1.1619,-1.1619,-1.1619,-1.1619,-1.1619,-1.1619,-1.1619,-1.1619,-1.1619,-1.1619,-1.1619,-1.1619,-1.1619,-1.1619,-1.1619,-1.1619,-1.1619,-1.1619,-1.1619,-1.1619,-1.1619,-1.1619,-1.1619,-1.1619,-1.1619,-1.1619,-1.1619,-1.1619,-1.1619,-1.1619,-1.1619,-1.1619,-1.1619,-1.1619,-1.1619,-1.1619,-1.1619,-1.1619,-1.1619,-1.1619,-1.1619,-1.1619,-1.1619,-1.1619,-1.1619,-1.0233,0.0,0.0,0.0,0.0,0.0,0.0,0.0,0.0,0.0,0.0,0.0,0.0,0.0,0.0,0.0,0.0,0.0,0.0,0.0,-0.1651,-0.3758,-0.6011,-0.801,-1.0059,-1.23,-1.2501,-1.2501,-1.2501,-1.2501,-1.2501,-1.2501,-1.2501,-1.2501,-1.2501,-1.2501,-1.2501,-1.2501,-1.2501,-1.2501,-1.2501,-1.2501,-1.2501,-1.2501,-1.2501,-1.2501,-1.2481,-1.2189,-1.2135,-1.204,-1.1742,-1.1619,-1.1619,-1.1619,-1.1619,-1.1619,-1.1619,-1.1619,-1.1619,-1.1619,-1.1619,-1.1619,-1.1619,-1.1619,-1.1619,-1.1619,-1.1619,-1.1619,-1.1619,-1.1619,-1.1619,-1.1619,-1.1619,-1.1619,-1.1619,-1.1619,-1.1619,-1.1619,-1.1619,-1.1619,-1.1619,-1.1619,-1.1619,-1.1619,-1.1619,-1.1619,-1.1619,-1.1619,-1.1619,-1.1619,-1.1619,-1.1619,-1.1619,-1.1619,-1.1619,-1.1619,-1.1619,-1.1619,-1.1619,-1.1619,-1.1619,-1.1619,-1.1619,-1.1619,-1.1619,-1.1619,-1.1619,-1.1619,-1.1619,-1.1619,-1.1619,-1.1619,-0.9507,0.0,0.0,0.0,0.0,0.0,0.0,0.0,0.0,0.0,0.0,0.0,0.0,0.0,0.0,0.0,0.0,0.0,0.0,0.0,-0.0522,-0.1703,-0.3875,-0.719,-1.0185,-1.2256,-1.2501,-1.2501,-1.2501,-1.2501,-1.2501,-1.2501,-1.2501,-1.2501,-1.2501,-1.2501,-1.2501,-1.2501,-1.2501,-1.2501,-1.2501,-1.2501,-1.2501,-1.2501,-1.2501,-1.2501,-1.2488,-1.2189,-1.2135,-1.204,-1.1742,-1.1619,-1.1619,-1.1619,-1.1619,-1.1619,-1.1619,-1.1619,-1.1619,-1.1619,-1.1619,-1.1619,-1.1619,-1.1619,-1.1619,-1.1619,-1.1619,-1.1619,-1.1619,-1.1619,-1.1619,-1.1619,-1.1619,-1.1619,-1.1619,-1.1619,-1.1619,-1.1619,-1.1619,-1.1619,-1.1619,-1.1619,-1.1619,-1.1619,-1.1619,-1.1619,-1.1619,-1.1619,-1.1619,-1.1619,-1.1619,-1.1619,-1.1619,-1.1619,-1.1619,-1.1619,-1.1619,-1.1619,-1.1619,-1.1619,-1.1619,-1.1619,-1.1619,-1.1619,-1.1619,-1.1619,-1.1619,-1.1619,-1.1619,-1.1619,-1.1548,-1.0233,-0.8271,0.0,0.0,0.0,0.0,0.0,0.0,0.0,0.0,0.0,0.0,0.0,0.0,0.0,0.0,0.0,0.0,0.0,0.0,0.0,0.0,-0.0756,-0.2838,-0.6846,-0.992,-1.1172,-1.203,-1.2501,-1.2501,-1.2501,-1.2501,-1.2501,-1.2501,-1.2501,-1.2501,-1.2501,-1.2501,-1.2501,-1.2501,-1.2501,-1.2501,-1.2501,-1.2501,-1.2501,-1.2501,-1.2474,-1.2406,-1.2169,-1.2026,0.0,-1.1721,-1.1619,-1.1619,-1.1619,-1.1619,-1.1619,-1.1619,-1.1619,-1.1619,-1.1619,-1.1619,-1.1619,-1.1619,-1.1619,-1.1619,-1.1619,-1.1619,-1.1619,-1.1619,-1.1619,-1.1619,-1.1619,-1.1619,-1.1619,-1.1619,-1.1619,-1.1619,-1.1619,-1.1619,-1.1619,-1.1619,-1.1619,-1.1619,-1.1619,-1.1619,-1.1619,-1.1619,-1.1619,-1.1619,-1.1619,-1.1619,-1.1619,-1.1619,-1.1619,-1.1619,-1.1619,-1.1619,-1.1619,-1.1619,-1.1619,-1.1619,-1.1619,-1.1619,-1.1619,-1.1619,-1.1619,-1.1619,-1.1619,-1.1619,-1.1253,-1.0449,-0.8487,-0.6532,0.0,0.0,0.0,0.0,0.0,0.0,0.0,0.0,0.0,0.0,0.0,0.0,0.0,0.0,0.0,0.0,0.0,0.0,0.0,0.0,-0.0763,-0.2874,-0.6732,-0.9221,-0.9371,-1.125,-1.2501,-1.2501,-1.2501,-1.2501,-1.2501,-1.2501,-1.2501,-1.2501,-1.2501,-1.2501,-1.2501,-1.2501,-1.2501,-1.2501,-1.2501,-1.2501,-1.2501,-1.2488,-1.2413,-1.2284,-1.2115,-1.1965,-1.1823,-1.1681,-1.1619,-1.1619,-1.1619,-1.1619,-1.1619,-1.1619,-1.1619,-1.1619,-1.1619,-1.1619,-1.1619,-1.1619,-1.1619,-1.1619,-1.1619,-1.1619,-1.1619,-1.1619,-1.1619,-1.1619,-1.1619,-1.1619,-1.1619,-1.1619,-1.1619,-1.1619,-1.1619,-1.1619,-1.1619,-1.1619,-1.1619,-1.1619,-1.1619,-1.1619,-1.1619,-1.1619,-1.1619,-1.1619,-1.1619,-1.1619,-1.1619,-1.1619,-1.1619,-1.1619,-1.1619,-1.1619,-1.1619,-1.1619,-1.1619,-1.1619,-1.1619,-1.1619,-1.1619,-1.1619,-1.1619,-1.1619,-1.1619,-1.1619,-1.0593,-0.8631,-0.6677,-0.4794,0.0,0.0,0.0,0.0,0.0,0.0,0.0,0.0,0.0,0.0,0.0,0.0,0.0,0.0,0.0,0.0,0.0,0.0,0.0,0.0,-0.0798,-0.2847,-0.5461,-0.7661,-0.9216,-1.125,-1.2501,-1.2501,-1.2501,-1.2501,-1.2501,-1.2501,-1.2501,-1.2501,-1.2501,-1.2501,-1.2501,-1.2501,-1.2501,-1.2501,-1.2501,-1.2501,-1.2501,-1.2386,-1.2325,-1.2277,-1.1999,-1.1864,-1.1823,-1.1681,-1.1619,-1.1619,-1.1619,-1.1619,-1.1619,-1.1619,-1.1619,-1.1619,-1.1619,-1.1619,-1.1619,-1.1619,-1.1619,-1.1619,-1.1619,-1.1619,-1.1619,-1.1619,-1.1619,-1.1619,-1.1619,-1.1619,-1.1619,-1.1619,-1.1619,-1.1619,-1.1619,-1.1619,-1.1619,-1.1619,-1.1619,-1.1619,-1.1619,-1.1619,-1.1619,-1.1619,-1.1619,-1.1619,-1.1619,-1.1619,-1.1619,-1.1619,-1.1619,-1.1619,-1.1619,-1.1619,-1.1619,-1.1619,-1.1619,-1.1619,-1.1619,-1.1619,-1.1619,-1.1619,-1.1619,-1.1619,-1.1619,-1.1619,-1.0593,-0.8631,-0.6677,-0.4794,0.0,0.0,0.0,0.0,0.0,0.0,0.0,0.0,0.0,0.0,0.0,0.0,0.0,0.0,0.0,0.0,0.0,0.0,0.0,0.0,-0.0446,-0.1521,-0.356,-0.563,-0.7734,-0.9842,-1.1482,-1.2424,-1.2501,-1.2501,-1.2501,-1.2501,-1.2501,-1.2501,-1.2501,-1.2501,-1.2501,-1.2501,-1.2501,-1.2501,-1.2501,-1.2467,-1.24,-1.2325,-1.221,-1.2067,-1.1904,-1.1796,-1.1728,-1.1653,-1.1619,-1.1619,-1.1619,-1.1619,-1.1619,-1.1619,-1.1619,-1.1619,-1.1619,-1.1619,-1.1619,-1.1619,-1.1619,-1.1619,-1.1619,-1.1619,-1.1619,-1.1619,-1.1619,-1.1619,-1.1619,-1.1619,-1.1619,-1.1619,-1.1619,-1.1619,-1.1619,-1.1619,-1.1619,-1.1619,-1.1619,-1.1619,-1.1619,-1.1619,-1.1619,-1.1619,-1.1619,-1.1619,-1.1619,-1.1619,-1.1619,-1.1619,-1.1619,-1.1619,-1.1619,-1.1619,-1.1619,-1.1619,-1.1619,-1.1619,-1.1619,-1.1619,-1.1619,-1.1619,-1.1619,-1.1619,-1.1619,-1.1619,-1.0593,-0.8703,-0.7616,-0.5588,0.0,0.0,0.0,0.0,0.0,0.0,0.0,0.0,0.0,0.0,0.0,0.0,0.0,0.0,0.0,0.0,0.0,0.0,0.0,0.0,0.0,0.0,-0.1867,-0.3834,-0.563,-0.7968,-1.0153,-1.1876,-1.2347,-1.2501,-1.2501,-1.2501,-1.2501,-1.2501,-1.2501,-1.2501,-1.2501,-1.2501,-1.2501,-1.2501,-1.2481,-1.2406,-1.2291,-1.2244,-1.2081,-1.183,-1.1809,-1.1728,-1.1619,-1.1619,-1.1619,-1.1619,-1.1619,-1.1619,-1.1619,-1.1619,-1.1619,-1.1619,-1.1619,-1.1619,-1.1619,-1.1619,-1.1619,-1.1619,-1.1619,-1.1619,-1.1619,-1.1619,-1.1619,-1.1619,-1.1619,-1.1619,-1.1619,-1.1619,-1.1619,-1.1619,-1.1619,-1.1619,-1.1619,-1.1619,-1.1619,-1.1619,-1.1619,-1.1619,-1.1619,-1.1619,-1.1619,-1.1619,-1.1619,-1.1619,-1.1619,-1.1619,-1.1619,-1.1619,-1.1619,-1.1619,-1.1619,-1.1619,-1.1619,-1.1619,-1.1619,-1.1619,-1.1619,-1.1619,-1.1619,-1.1619,-1.1619,-1.1619,-1.0593,-0.8703,-0.8415,-0.6311,0.0,0.0,0.0,0.0,0.0,0.0,0.0,0.0,0.0,0.0,0.0,0.0,0.0,0.0,0.0,0.0,0.0,0.0,0.0,0.0,0.0,0.0,-0.1867,-0.3208,-0.3521,-0.7108,-0.9532,-0.9842,-1.1482,-1.2501,-1.2501,-1.2501,-1.2501,-1.2501,-1.2501,-1.2501,-1.2501,-1.2501,-1.2501,-1.2501,-1.2379,-1.2311,-1.2284,-1.202,-1.1877,-1.1823,-1.1701,-1.164,-1.1619,-1.1619,-1.1619,-1.1619,-1.1619,-1.1619,-1.1619,-1.1619,-1.1619,-1.1619,-1.1619,-1.1619,-1.1619,-1.1619,-1.1619,-1.1619,-1.1619,-1.1619,-1.1619,-1.1619,-1.1619,-1.1619,-1.1619,-1.1619,-1.1619,-1.1619,-1.1619,-1.1619,-1.1619,-1.1619,-1.1619,-1.1619,-1.1619,-1.1619,-1.1619,-1.1619,-1.1619,-1.1619,-1.1619,-1.1619,-1.1619,-1.1619,-1.1619,-1.1619,-1.1619,-1.1619,-1.1619,-1.1619,-1.1619,-1.1619,-1.1619,-1.1619,-1.1619,-1.1619,-1.1619,-1.1619,-1.1619,-1.1619,-1.1619,-1.1619,-1.0593,-0.8631,-0.7038,-0.5011,0.0,0.0,0.0,0.0,0.0,0.0,0.0,0.0,0.0,0.0,0.0,0.0,0.0,0.0,0.0,0.0,0.0,0.0,0.0,0.0,0.0,0.0,-0.086,-0.188,-0.2974,-0.5942,-0.8205,-0.9299,-1.1327,-1.2501,-1.2501,-1.2501,-1.2501,-1.2501,-1.2501,-1.2501,-1.2501,-1.2501,-1.2501,-1.2501,-1.2359,-1.2244,-1.2155,-1.1932,-1.1789,-1.1714,-1.1647,-1.1619,-1.1619,-1.1619,-1.1619,-1.1619,-1.1619,-1.1619,-1.1619,-1.1619,-1.1619,-1.1619,-1.1619,-1.1619,-1.1619,-1.1619,-1.1619,-1.1619,-1.1619,-1.1619,-1.1619,-1.1619,-1.1619,-1.1619,-1.1619,-1.1619,-1.1619,-1.1619,-1.1619,-1.1619,-1.1619,-1.1619,-1.1619,-1.1619,-1.1619,-1.1619,-1.1619,-1.1619,-1.1619,-1.1619,-1.1619,-1.1619,-1.1619,-1.1619,-1.1619,-1.1619,-1.1619,-1.1619,-1.1619,-1.1619,-1.1619,-1.1619,-1.1619,-1.1619,-1.1619,-1.1619,-1.1619,-1.1619,-1.1619,-1.1619,-1.1619,-1.1619,-1.0593,-0.8703,-0.7761,-0.5732,0.0,0.0,0.0,0.0,0.0,0.0,0.0,0.0,0.0,0.0,0.0,0.0,0.0,0.0,0.0,0.0,0.0,0.0,0.0,0.0,0.0,0.0,0.0,-0.0628,-0.2194,-0.4303,-0.641,-0.8517,-1.0624,-1.1953,-1.2501,-1.2501,-1.2501,-1.2501,-1.2501,-1.2501,-1.2501,-1.2501,-1.2488,-1.2447,-1.2305,-1.2155,-1.2006,-1.185,-1.1721,-1.1619,-1.1619,-1.1619,-1.1619,-1.1619,-1.1619,-1.1619,-1.1619,-1.1619,-1.1619,-1.1619,-1.1619,-1.1619,-1.1619,-1.1619,-1.1619,-1.1619,-1.1619,-1.1619,-1.1619,-1.1619,-1.1619,-1.1619,-1.1619,-1.1619,-1.1619,-1.1619,-1.1619,-1.1619,-1.1619,-1.1619,-1.1619,-1.1619,-1.1619,-1.1619,-1.1619,-1.1619,-1.1619,-1.1619,-1.1619,-1.1619,-1.1619,-1.1619,-1.1619,-1.1619,-1.1619,-1.1619,-1.1619,-1.1619,-1.1619,-1.1619,-1.1619,-1.1619,-1.1619,-1.1619,-1.1619,-1.1619,-1.1619,-1.1619,-1.1619,-1.1619,-1.1619,-1.1109,-1.0161,-0.8703,-0.7761,-0.5732,0.0,0.0,0.0,0.0,0.0,0.0,0.0,0.0,0.0,0.0,0.0,0.0,0.0,0.0,0.0,0.0,0.0,0.0,0.0,0.0,0.0,0.0,0.0,-0.0079,-0.0236,-0.2115,-0.4224,-0.6332,-0.8439,-1.0469,-1.2424,-1.2501,-1.2501,-1.2501,-1.2501,-1.2501,-1.2501,-1.2501,-1.2433,-1.2305,-1.2149,-1.1999,-1.1843,-1.1701,-1.1626,-1.1619,-1.1619,-1.1619,-1.1619,-1.1619,-1.1619,-1.1619,-1.1619,-1.1619,-1.1619,-1.1619,-1.1619,-1.1619,-1.1619,-1.1619,-1.1619,-1.1619,-1.1619,-1.1619,-1.1619,-1.1619,-1.1619,-1.1619,-1.1619,-1.1619,-1.1619,-1.1619,-1.1619,-1.1619,-1.1619,-1.1619,-1.1619,-1.1619,-1.1619,-1.1619,-1.1619,-1.1619,-1.1619,-1.1619,-1.1619,-1.1619,-1.1619,-1.1619,-1.1619,-1.1619,-1.1619,-1.1619,-1.1619,-1.1619,-1.1619,-1.1619,-1.1619,-1.1619,-1.1619,-1.1619,-1.1619,-1.1619,-1.1619,-1.1619,-1.1619,-1.1619,-1.1619,-0.9795,-0.8848,-0.8631,-0.5008,-0.3197,0.0,0.0,0.0,0.0,0.0,0.0,0.0,0.0,0.0,0.0,0.0,0.0,0.0,0.0,0.0,0.0,0.0,0.0,0.0,0.0,0.0,0.0,0.0,0.0,0.0,-0.188,-0.399,-0.6176,-0.8205,-1.0308,-1.2424,-1.2501,-1.2501,-1.2501,-1.2501,-1.2501,-1.2501,-1.2501,-1.2379,-1.2149,-1.2088,-1.1979,-1.1823,-1.1687,-1.1619,-1.1619,-1.1619,-1.1619,-1.1619,-1.1619,-1.1619,-1.1619,-1.1619,-1.1619,-1.1619,-1.1619,-1.1619,-1.1619,-1.1619,-1.1619,-1.1619,-1.1619,-1.1619,-1.1619,-1.1619,-1.1619,-1.1619,-1.1619,-1.1619,-1.1619,-1.1619,-1.1619,-1.1619,-1.1619,-1.1619,-1.1619,-1.1619,-1.1619,-1.1619,-1.1619,-1.1619,-1.1619,-1.1619,-1.1619,-1.1619,-1.1619,-1.1619,-1.1619,-1.1619,-1.1619,-1.1619,-1.1619,-1.1619,-1.1619,-1.1619,-1.1619,-1.1619,-1.1619,-1.1619,-1.1619,-1.1619,-1.1619,-1.1619,-1.1619,-1.1619,-1.1619,-1.1619,-0.9646,-0.8049,-0.6821,-0.4141,-0.2256,0.0,0.0,0.0,0.0,0.0,0.0,0.0,0.0,0.0,0.0,0.0,0.0,0.0,0.0,0.0,0.0,0.0,0.0,0.0,0.0,0.0,0.0,0.0,0.0,0.0,-0.1254,-0.2975,-0.5162,-0.7267,-0.9299,-1.1405,-1.2108,-1.2501,-1.2501,-1.2461,-1.2433,-1.2433,-1.2386,-1.2237,-1.1986,-1.1986,-1.1911,-1.1762,-1.166,-1.1619,-1.1619,-1.1619,-1.1619,-1.1619,-1.1619,-1.1619,-1.1619,-1.1619,-1.1619,-1.1619,-1.1619,-1.1619,-1.1619,-1.1619,-1.1619,-1.1619,-1.1619,-1.1619,-1.1619,-1.1619,-1.1619,-1.1619,-1.1619,-1.1619,-1.1619,-1.1619,-1.1619,-1.1619,-1.1619,-1.1619,-1.1619,-1.1619,-1.1619,-1.1619,-1.1619,-1.1619,-1.1619,-1.1619,-1.1619,-1.1619,-1.1619,-1.1619,-1.1619,-1.1619,-1.1619,-1.1619,-1.1619,-1.1619,-1.1619,-1.1619,-1.1619,-1.1619,-1.1619,-1.1619,-1.1619,-1.1619,-1.1619,-1.1619,-1.1619,-1.1619,-1.1619,-1.1619,-0.8997,-0.711,-0.5736,-0.3199,-0.1239,0.0,0.0,0.0,0.0,0.0,0.0,0.0,0.0,0.0,0.0,0.0,0.0,0.0,0.0,0.0,0.0,0.0,0.0,0.0,0.0,0.0,0.0,0.0,0.0,0.0,0.0,-0.0863,-0.2975,-0.5084,-0.7189,-0.9294,-1.1327,-1.2501,-1.2501,-1.2366,-1.2291,-1.2291,-1.2142,-1.1986,-1.183,-1.183,-1.1755,-1.1619,-1.1619,-1.1619,-1.1619,-1.1619,-1.1619,-1.1619,-1.1619,-1.1619,-1.1619,-1.1619,-1.1619,-1.1619,-1.1619,-1.1619,-1.1619,-1.1619,-1.1619,-1.1619,-1.1619,-1.1619,-1.1619,-1.1619,-1.1619,-1.1619,-1.1619,-1.1619,-1.1619,-1.1619,-1.1619,-1.1619,-1.1619,-1.1619,-1.1619,-1.1619,-1.1619,-1.1619,-1.1619,-1.1619,-1.1619,-1.1619,-1.1619,-1.1619,-1.1619,-1.1619,-1.1619,-1.1619,-1.1619,-1.1619,-1.1619,-1.1619,-1.1619,-1.1619,-1.1619,-1.1619,-1.1619,-1.1619,-1.1619,-1.1619,-1.1619,-1.1619,-1.1619,-1.1619,-1.1619,-1.1619,-0.7693,-0.5808,-0.5736,-0.182,0.0,0.0,0.0,0.0,0.0,0.0,0.0,0.0,0.0,0.0,0.0,0.0,0.0,0.0,0.0,0.0,0.0,0.0,0.0,0.0,0.0,0.0,0.0,0.0,0.0,0.0,0.0,-0.0863,-0.2975,-0.3677,-0.5627,-0.9216,-0.9998,-1.1017,-1.2424,-1.2366,-1.2291,-1.2291,-1.2142,-1.1986,-1.183,-1.183,-1.1755,-1.1619,-1.1619,-1.1619,-1.1619,-1.1619,-1.1619,-1.1619,-1.1619,-1.1619,-1.1619,-1.1619,-1.1619,-1.1619,-1.1619,-1.1619,-1.1619,-1.1619,-1.1619,-1.1619,-1.1619,-1.1619,-1.1619,-1.1619,-1.1619,-1.1619,-1.1619,-1.1619,-1.1619,-1.1619,-1.1619,-1.1619,-1.1619,-1.1619,-1.1619,-1.1619,-1.1619,-1.1619,-1.1619,-1.1619,-1.1619,-1.1619,-1.1619,-1.1619,-1.1619,-1.1619,-1.1619,-1.1619,-1.1619,-1.1619,-1.1619,-1.1619,-1.1619,-1.1619,-1.1619,-1.1619,-1.1619,-1.1619,-1.1619,-1.1619,-1.1619,-1.1619,-1.1619,-1.1619,-1.1619,-1.1619,-0.7693,-0.5808,-0.5736,-0.182,0.0,0.0,0.0,0.0,0.0,0.0,0.0,0.0,0.0,0.0,0.0,0.0,0.0,0.0,0.0,0.0,0.0,0.0,0.0,0.0,0.0,0.0,0.0,0.0,0.0,0.0,0.0,-0.0549,-0.1802,-0.2662,-0.4613,-0.7968,-0.8867,-1.0235,-1.2343,-1.2216,-1.2108,-1.2108,-1.1959,-1.1837,-1.1748,-1.1748,-1.1701,-1.1619,-1.1619,-1.1619,-1.1619,-1.1619,-1.1619,-1.1619,-1.1619,-1.1619,-1.1619,-1.1619,-1.1619,-1.1619,-1.1619,-1.1619,-1.1619,-1.1619,-1.1619,-1.1619,-1.1619,-1.1619,-1.1619,-1.1619,-1.1619,-1.1619,-1.1619,-1.1619,-1.1619,-1.1619,-1.1619,-1.1619,-1.1619,-1.1619,-1.1619,-1.1619,-1.1619,-1.1619,-1.1619,-1.1619,-1.1619,-1.1619,-1.1619,-1.1619,-1.1619,-1.1619,-1.1619,-1.1619,-1.1619,-1.1619,-1.1619,-1.1619,-1.1619,-1.1619,-1.1619,-1.1619,-1.1619,-1.1619,-1.1619,-1.1619,-1.1619,-1.1619,-1.1619,-1.1619,-1.1253,-1.0449,-0.7331,-0.5373,-0.4576,-0.1457,0.0,0.0,0.0,0.0,0.0,0.0,0.0,0.0,0.0,0.0,0.0,0.0,0.0,0.0,0.0,0.0,0.0,0.0,0.0,0.0,0.0,0.0,0.0,0.0,0.0,0.0,0.0,0.0,0.0,-0.1724,-0.3832,-0.6166,-0.7949,-0.9965,-1.2195,-1.1986,-1.183,-1.183,-1.1687,-1.1619,-1.1619,-1.1619,-1.1619,-1.1619,-1.1619,-1.1619,-1.1619,-1.1619,-1.1619,-1.1619,-1.1619,-1.1619,-1.1619,-1.1619,-1.1619,-1.1619,-1.1619,-1.1619,-1.1619,-1.1619,-1.1619,-1.1619,-1.1619,-1.1619,-1.1619,-1.1619,-1.1619,-1.1619,-1.1619,-1.1619,-1.1619,-1.1619,-1.1619,-1.1619,-1.1619,-1.1619,-1.1619,-1.1619,-1.1619,-1.1619,-1.1619,-1.1619,-1.1619,-1.1619,-1.1619,-1.1619,-1.1619,-1.1619,-1.1619,-1.1619,-1.1619,-1.1619,-1.1619,-1.1619,-1.1619,-1.1619,-1.1619,-1.1619,-1.1619,-1.1619,-1.1619,-1.1619,-1.1619,-1.1619,-1.1619,-1.1619,-1.0671,-0.8703,-0.6749,-0.4794,-0.2836,-0.0874,0.0,0.0,0.0,0.0,0.0,0.0,0.0,0.0,0.0,0.0,0.0,0.0,0.0,0.0,0.0,0.0,0.0,0.0,0.0,0.0,0.0,0.0,0.0,0.0,0.0,0.0,0.0,0.0,0.0,-0.0392,-0.2263,-0.5861,-0.6455,-0.8403,-1.204,-1.1932,-1.183,-1.183,-1.1687,-1.1619,-1.1619,-1.1619,-1.1619,-1.1619,-1.1619,-1.1619,-1.1619,-1.1619,-1.1619,-1.1619,-1.1619,-1.1619,-1.1619,-1.1619,-1.1619,-1.1619,-1.1619,-1.1619,-1.1619,-1.1619,-1.1619,-1.1619,-1.1619,-1.1619,-1.1619,-1.1619,-1.1619,-1.1619,-1.1619,-1.1619,-1.1619,-1.1619,-1.1619,-1.1619,-1.1619,-1.1619,-1.1619,-1.1619,-1.1619,-1.1619,-1.1619,-1.1619,-1.1619,-1.1619,-1.1619,-1.1619,-1.1619,-1.1619,-1.1619,-1.1619,-1.1619,-1.1619,-1.1619,-1.1619,-1.1619,-1.1619,-1.1619,-1.1619,-1.1619,-1.1619,-1.1619,-1.1619,-1.1619,-1.1619,-1.1619,-1.1619,-1.0671,-0.8703,-0.6749,-0.4794,-0.2836,-0.0874,0.0,0.0,0.0,0.0,0.0,0.0,0.0,0.0,0.0,0.0,0.0,0.0,0.0,0.0,0.0,0.0,0.0,0.0,0.0,0.0,0.0,0.0,0.0,0.0,0.0,0.0,0.0,0.0,0.0,0.0,-0.1793,-0.5762,-0.5952,-0.7787,-1.1804,-1.1809,-1.1728,-1.1728,-1.1653,-1.1619,-1.1619,-1.1619,-1.1619,-1.1619,-1.1619,-1.1619,-1.1619,-1.1619,-1.1619,-1.1619,-1.1619,-1.1619,-1.1619,-1.1619,-1.1619,-1.1619,-1.1619,-1.1619,-1.1619,-1.1619,-1.1619,-1.1619,-1.1619,-1.1619,-1.1619,-1.1619,-1.1619,-1.1619,-1.1619,-1.1619,-1.1619,-1.1619,-1.1619,-1.1619,-1.1619,-1.1619,-1.1619,-1.1619,-1.1619,-1.1619,-1.1619,-1.1619,-1.1619,-1.1619,-1.1619,-1.1619,-1.1619,-1.1619,-1.1619,-1.1619,-1.1619,-1.1619,-1.1619,-1.1619,-1.1619,-1.1619,-1.1619,-1.1619,-1.1619,-1.1619,-1.1619,-1.1619,-1.1619,-1.1619,-1.1619,-1.0671,-0.9285,-0.7327,-0.5373,-0.3417,-0.1456,-0.0437,0.0,0.0,0.0,0.0,0.0,0.0,0.0,0.0,0.0,0.0,0.0,0.0,0.0,0.0,0.0,0.0,0.0,0.0,0.0,0.0,0.0,0.0,0.0,0.0,0.0,0.0,0.0,0.0,0.0,0.0,-0.1714,-0.5743,-0.5833,-0.7629,-1.165,-1.1681,-1.1619,-1.1619,-1.1619,-1.1619,-1.1619,-1.1619,-1.1619,-1.1619,-1.1619,-1.1619,-1.1619,-1.1619,-1.1619,-1.1619,-1.1619,-1.1619,-1.1619,-1.1619,-1.1619,-1.1619,-1.1619,-1.1619,-1.1619,-1.1619,-1.1619,-1.1619,-1.1619,-1.1619,-1.1619,-1.1619,-1.1619,-1.1619,-1.1619,-1.1619,-1.1619,-1.1619,-1.1619,-1.1619,-1.1619,-1.1619,-1.1619,-1.1619,-1.1619,-1.1619,-1.1619,-1.1619,-1.1619,-1.1619,-1.1619,-1.1619,-1.1619,-1.1619,-1.1619,-1.1619,-1.1619,-1.1619,-1.1619,-1.1619,-1.1619,-1.1619,-1.1619,-1.1619,-1.1619,-1.1619,-1.1619,-1.1619,-1.1619,-1.1619,-1.1619,-1.0011,-0.8054,-0.5808,-0.4213,-0.2256,0.0,0.0,0.0,0.0,0.0,0.0,0.0,0.0,0.0,0.0,0.0,0.0,0.0,0.0,0.0,0.0,0.0,0.0,0.0,0.0,0.0,0.0,0.0,0.0,0.0,0.0,0.0,0.0,0.0,0.0,0.0,0.0,-0.1708,-0.5597,-0.5807,-0.7599,-1.1509,-1.1633,-1.1619,-1.1619,-1.1619,-1.1619,-1.1619,-1.1619,-1.1619,-1.1619,-1.1619,-1.1619,-1.1619,-1.1619,-1.1619,-1.1619,-1.1619,-1.1619,-1.1619,-1.1619,-1.1619,-1.1619,-1.1619,-1.1619,-1.1619,-1.1619,-1.1619,-1.1619,-1.1619,-1.1619,-1.1619,-1.1619,-1.1619,-1.1619,-1.1619,-1.1619,-1.1619,-1.1619,-1.1619,-1.1619,-1.1619,-1.1619,-1.1619,-1.1619,-1.1619,-1.1619,-1.1619,-1.1619,-1.1619,-1.1619,-1.1619,-1.1619,-1.1619,-1.1619,-1.1619,-1.1619,-1.1619,-1.1619,-1.1619,-1.1619,-1.1619,-1.1619,-1.1619,-1.1619,-1.1619,-1.1619,-1.1619,-1.1619,-1.1619,-1.1619,-1.1619,-1.1325,-0.9435,-0.5808,-0.5518,-0.3562,0.0,0.0,0.0,0.0,0.0,0.0,0.0,0.0,0.0,0.0,0.0,0.0,0.0,0.0,0.0,0.0,0.0,0.0,0.0,0.0,0.0,0.0,0.0,0.0,0.0,0.0,0.0,0.0,0.0,0.0,0.0,0.0,-0.1233,-0.4002,-0.5242,-0.7101,-0.9873,-1.1038,-1.1619,-1.1619,-1.1619,-1.1619,-1.1619,-1.1619,-1.1619,-1.1619,-1.1619,-1.1619,-1.1619,-1.1619,-1.1619,-1.1619,-1.1619,-1.1619,-1.1619,-1.1619,-1.1619,-1.1619,-1.1619,-1.1619,-1.1619,-1.1619,-1.1619,-1.1619,-1.1619,-1.1619,-1.1619,-1.1619,-1.1619,-1.1619,-1.1619,-1.1619,-1.1619,-1.1619,-1.1619,-1.1619,-1.1619,-1.1619,-1.1619,-1.1619,-1.1619,-1.1619,-1.1619,-1.1619,-1.1619,-1.1619,-1.1619,-1.1619,-1.1619,-1.1619,-1.1619,-1.1619,-1.1619,-1.1619,-1.1619,-1.1619,-1.1619,-1.1619,-1.1619,-1.1619,-1.1619,-1.1619,-1.1619,-1.1619,-1.1619,-1.1619,-1.1619,-1.0521,-0.8559,-0.5808,-0.4721,-0.2765,0.0,0.0,0.0,0.0,0.0,0.0,0.0,0.0,0.0,0.0,0.0,0.0,0.0,0.0,0.0,0.0,0.0,0.0,0.0,0.0,0.0,0.0,0.0,0.0,0.0,0.0,0.0,0.0,0.0,0.0,0.0,0.0,-0.0843,-0.2796,-0.4771,-0.6693,-0.8631,-1.0593,-1.1619,-1.1619,-1.1619,-1.1619,-1.1619,-1.1619,-1.1619,-1.1619,-1.1619,-1.1619,-1.1619,-1.1619,-1.1619,-1.1619,-1.1619,-1.1619,-1.1619,-1.1619,-1.1619,-1.1619,-1.1619,-1.1619,-1.1619,-1.1619,-1.1619,-1.1619,-1.1619,-1.1619,-1.1619,-1.1619,-1.1619,-1.1619,-1.1619,-1.1619,-1.1619,-1.1619,-1.1619,-1.1619,-1.1619,-1.1619,-1.1619,-1.1619,-1.1619,-1.1619,-1.1619,-1.1619,-1.1619,-1.1619,-1.1619,-1.1619,-1.1619,-1.1619,-1.1619,-1.1619,-1.1619,-1.1619,-1.1619,-1.1619,-1.1619,-1.1619,-1.1619,-1.1619,-1.1619,-1.1619,-1.1619,-1.1619,-1.1619,-1.1619,-1.1619,-1.0161,-0.8487,-0.6532,-0.4576,-0.2618,-0.0729,-0.0219,0.0,0.0,0.0,0.0,0.0,0.0,0.0,0.0,0.0,0.0,0.0,0.0,0.0,0.0,0.0,0.0,0.0,0.0,0.0,0.0,0.0,0.0,0.0,0.0,0.0,0.0,0.0,0.0,0.0,0.0,-0.0843,-0.2796,-0.4771,-0.6693,-0.8631,-1.0593,-1.1619,-1.1619,-1.1619,-1.1619,-1.1619,-1.1619,-1.1619,-1.1619,-1.1619,-1.1619,-1.1619,-1.1619,-1.1619,-1.1619,-1.1619,-1.1619,-1.1619,-1.1619,-1.1619,-1.1619,-1.1619,-1.1619,-1.1619,-1.1619,-1.1619,-1.1619,-1.1619,-1.1619,-1.1619,-1.1619,-1.1619,-1.1619,-1.1619,-1.1619,-1.1619,-1.1619,-1.1619,-1.1619,-1.1619,-1.1619,-1.1619,-1.1619,-1.1619,-1.1619,-1.1619,-1.1619,-1.1619,-1.1619,-1.1619,-1.1619,-1.1619,-1.1619,-1.1619,-1.1619,-1.1619,-1.1619,-1.1619,-1.1619,-1.1619,-1.1619,-1.1619,-1.1619,-1.1619,-1.1619,-1.1619,-1.1619,-1.1619,-1.1619,-1.1619,-1.1476,-1.0521,-0.8559,-0.6604,-0.4649,-0.2691,-0.0874,0.0,0.0,0.0,0.0,0.0,0.0,0.0,0.0,0.0,0.0,0.0,0.0,0.0,0.0,0.0,0.0,0.0,0.0,0.0,0.0,0.0,0.0,0.0,0.0,0.0,0.0,0.0,0.0,0.0,0.0,-0.0304,-0.0984,-0.4071,-0.6126,-0.6821,-0.9945,-1.1619,-1.1619,-1.1619,-1.1619,-1.1619,-1.1619,-1.1619,-1.1619,-1.1619,-1.1619,-1.1619,-1.1619,-1.1619,-1.1619,-1.1619,-1.1619,-1.1619,-1.1619,-1.1619,-1.1619,-1.1619,-1.1619,-1.1619,-1.1619,-1.1619,-1.1619,-1.1619,-1.1619,-1.1619,-1.1619,-1.1619,-1.1619,-1.1619,-1.1619,-1.1619,-1.1619,-1.1619,-1.1619,-1.1619,-1.1619,-1.1619,-1.1619,-1.1619,-1.1619,-1.1619,-1.1619,-1.1619,-1.1619,-1.1619,-1.1619,-1.1619,-1.1619,-1.1619,-1.1619,-1.1619,-1.1619,-1.1619,-1.1619,-1.1619,-1.1619,-1.1619,-1.1619,-1.1619,-1.1619,-1.1619,-1.1619,-1.1619,-1.1619,-1.1619,-1.1619,-1.0671,-0.8703,-0.7977,-0.6677,-0.4721,-0.2763,-0.1892,0.0,0.0,0.0,0.0,0.0,0.0,0.0,0.0,0.0,0.0,0.0,0.0,0.0,0.0,0.0,0.0,0.0,0.0,0.0,0.0,0.0,0.0,0.0,0.0,0.0,0.0,0.0,0.0,0.0,0.0,0.0,-0.3097,-0.5446,-0.6749,-0.9945,-1.1619,-1.1619,-1.1619,-1.1619,-1.1619,-1.1619,-1.1619,-1.1619,-1.1619,-1.1619,-1.1619,-1.1619,-1.1619,-1.1619,-1.1619,-1.1619,-1.1619,-1.1619,-1.1619,-1.1619,-1.1619,-1.1619,-1.1619,-1.1619,-1.1619,-1.1619,-1.1619,-1.1619,-1.1619,-1.1619,-1.1619,-1.1619,-1.1619,-1.1619,-1.1619,-1.1619,-1.1619,-1.1619,-1.1619,-1.1619,-1.1619,-1.1619,-1.1619,-1.1619,-1.1619,-1.1619,-1.1619,-1.1619,-1.1619,-1.1619,-1.1619,-1.1619,-1.1619,-1.1619,-1.1619,-1.1619,-1.1619,-1.1619,-1.1619,-1.1619,-1.1619,-1.1619,-1.1619,-1.1619,-1.1619,-1.1619,-1.1619,-1.1619,-1.1619,-1.1619,-1.0959,-0.9646,-0.8992,-0.8049,-0.6749,-0.4794,-0.3488,0.0,0.0,0.0,0.0,0.0,0.0,0.0,0.0,0.0,0.0,0.0,0.0,0.0,0.0,0.0,0.0,0.0,0.0,0.0,0.0,0.0,0.0,0.0,0.0,0.0,0.0,0.0,0.0,0.0,0.0,0.0,-0.192,-0.4718,-0.8559,-1.0593,-1.1619,-1.1619,-1.1619,-1.1619,-1.1619,-1.1619,-1.1619,-1.1619,-1.1619,-1.1619,-1.1619,-1.1619,-1.1619,-1.1619,-1.1619,-1.1619,-1.1619,-1.1619,-1.1619,-1.1619,-1.1619,-1.1619,-1.1619,-1.1619,-1.1619,-1.1619,-1.1619,-1.1619,-1.1619,-1.1619,-1.1619,-1.1619,-1.1619,-1.1619,-1.1619,-1.1619,-1.1619,-1.1619,-1.1619,-1.1619,-1.1619,-1.1619,-1.1619,-1.1619,-1.1619,-1.1619,-1.1619,-1.1619,-1.1619,-1.1619,-1.1619,-1.1619,-1.1619,-1.1619,-1.1619,-1.1619,-1.1619,-1.1619,-1.1619,-1.1619,-1.1619,-1.1619,-1.1619,-1.1619,-1.1619,-1.1619,-1.1619,-1.1619,-1.1619,-1.1619,-1.1619,-1.1619,-0.9723,-0.8776,-0.8776,-0.6821,-0.4866,0.0,0.0,0.0,0.0,0.0,0.0,0.0,0.0,0.0,0.0,0.0,0.0,0.0,0.0,0.0,0.0,0.0,0.0,0.0,0.0,0.0,0.0,0.0,0.0,0.0,0.0,0.0,0.0,0.0,0.0,0.0,-0.317,-0.617,-0.8631,-1.0593,-1.1619,-1.1619,-1.1619,-1.1619,-1.1619,-1.1619,-1.1619,-1.1619,-1.1619,-1.1619,-1.1619,-1.1619,-1.1619,-1.1619,-1.1619,-1.1619,-1.1619,-1.1619,-1.1619,-1.1619,-1.1619,-1.1619,-1.1619,-1.1619,-1.1619,-1.1619,-1.1619,-1.1619,-1.1619,-1.1619,-1.1619,-1.1619,-1.1619,-1.1619,-1.1619,-1.1619,-1.1619,-1.1619,-1.1619,-1.1619,-1.1619,-1.1619,-1.1619,-1.1619,-1.1619,-1.1619,-1.1619,-1.1619,-1.1619,-1.1619,-1.1619,-1.1619,-1.1619,-1.1619,-1.1619,-1.1619,-1.1619,-1.1619,-1.1619,-1.1619,-1.1619,-1.1619,-1.1619,-1.1619,-1.1619,-1.1619,-1.1619,-1.1619,-1.1619,-1.1619,-1.1619,-1.1619,-1.1038,-1.0815,-1.0743,-0.8776,-0.6821,0.0,0.0,0.0,0.0,0.0,0.0,0.0,0.0,0.0,0.0,0.0,0.0,0.0,0.0,0.0,0.0,0.0,0.0,0.0,0.0,0.0,0.0,0.0,0.0,0.0,0.0,0.0,0.0,0.0,0.0,0.0,-0.3675,-0.6315,-0.7472,-1.0161,-1.1619,-1.1619,-1.1619,-1.1619,-1.1619,-1.1619,-1.1619,-1.1619,-1.1619,-1.1619,-1.1619,-1.1619,-1.1619,-1.1619,-1.1619,-1.1619,-1.1619,-1.1619,-1.1619,-1.1619,-1.1619,-1.1619,-1.1619,-1.1619,-1.1619,-1.1619,-1.1619,-1.1619,-1.1619,-1.1619,-1.1619,-1.1619,-1.1619,-1.1619,-1.1619,-1.1619,-1.1619,-1.1619,-1.1619,-1.1619,-1.1619,-1.1619,-1.1619,-1.1619,-1.1619,-1.1619,-1.1619,-1.1619,-1.1619,-1.1619,-1.1619,-1.1619,-1.1619,-1.1619,-1.1674,-1.1708,-1.1708,-1.1769,-1.1775,-1.1714,-1.1708,-1.1681,-1.1619,-1.1619,-1.1619,-1.1619,-1.1619,-1.1619,-1.1619,-1.1619,-1.1619,-1.1619,-1.1619,-1.1619,-1.1548,-1.0449,-0.8853,0.0,0.0,0.0,0.0,0.0,0.0,0.0,0.0,0.0,0.0,0.0,0.0,0.0,0.0,0.0,0.0,0.0,0.0,0.0,0.0,0.0,0.0,0.0,0.0,0.0,0.0,0.0,0.0,0.0,0.0,0.0,-0.3669,-0.5818,-0.5808,-0.9579,-1.1619,-1.1619,-1.1619,-1.1619,-1.1619,-1.1619,-1.1619,-1.1619,-1.1619,-1.1619,-1.1619,-1.1619,-1.1619,-1.1619,-1.1619,-1.1619,-1.1619,-1.1619,-1.1619,-1.1619,-1.1619,-1.1619,-1.1619,-1.1619,-1.1619,-1.1619,-1.1619,-1.1619,-1.1619,-1.1619,-1.1619,-1.1619,-1.1619,-1.1619,-1.1619,-1.1619,-1.1619,-1.1619,-1.1619,-1.1619,-1.1619,-1.1619,-1.1619,-1.1619,-1.1619,-1.1619,-1.1619,-1.1619,-1.1633,-1.164,-1.164,-1.166,-1.1667,-1.1667,-1.1775,-1.1857,-1.1857,-1.1979,-1.2006,-1.187,-1.1843,-1.1775,-1.1653,-1.1626,-1.1619,-1.1619,-1.1619,-1.1619,-1.1619,-1.1619,-1.1619,-1.1619,-1.1619,-1.1619,-1.1619,-1.1619,-1.0671,0.0,0.0,0.0,0.0,0.0,0.0,0.0,0.0,0.0,0.0,0.0,0.0,0.0,0.0,0.0,0.0,0.0,0.0,0.0,0.0,0.0,0.0,0.0,0.0,0.0,0.0,0.0,0.0,0.0,0.0,0.0,-0.3718,-0.58,-0.5812,-0.9579,-1.1619,-1.1619,-1.1619,-1.1619,-1.1619,-1.1619,-1.1619,-1.1619,-1.1619,-1.1619,-1.1619,-1.1619,-1.1619,-1.1619,-1.1619,-1.1619,-1.1619,-1.1619,-1.1619,-1.1619,-1.1619,-1.1619,-1.1619,-1.1619,-1.1619,-1.1619,-1.1619,-1.1619,-1.1619,-1.1619,-1.1619,-1.1619,-1.1619,-1.1619,-1.1619,-1.1619,-1.1619,-1.1619,-1.1619,-1.1619,-1.1619,-1.1619,-1.1619,-1.1619,-1.1619,-1.1619,-1.1619,-1.1619,-1.1714,-1.1789,-1.1789,-1.1898,-1.1972,-1.1972,-1.1999,-1.202,-1.202,-1.2047,-1.2047,-1.202,-1.1904,-1.1816,-1.1789,-1.1681,-1.1619,-1.1619,-1.1619,-1.1619,-1.1619,-1.1619,-1.1619,-1.1619,-1.1619,-1.1619,-1.1619,-1.1619,-1.1397,0.0,0.0,0.0,0.0,0.0,0.0,0.0,0.0,0.0,0.0,0.0,0.0,0.0,0.0,0.0,0.0,0.0,0.0,0.0,0.0,0.0,0.0,0.0,0.0,0.0,0.0,0.0,0.0,0.0,0.0,0.0,-0.3684,-0.5832,-0.5829,-0.9546,-1.1619,-1.1619,-1.1619,-1.1619,-1.1619,-1.1619,-1.1619,-1.1619,-1.1619,-1.1619,-1.1619,-1.1619,-1.1619,-1.1619,-1.1619,-1.1619,-1.1619,-1.1619,-1.1619,-1.1619,-1.1619,-1.1619,-1.1619,-1.1619,-1.1619,-1.1619,-1.1619,-1.1619,-1.1619,-1.1619,-1.1619,-1.1619,-1.1619,-1.1619,-1.1619,-1.1619,-1.1619,-1.1619,-1.1619,-1.1619,-1.1619,-1.1619,-1.1619,-1.1619,-1.1619,-1.1619,-1.1619,-1.1619,-1.1735,-1.183,-1.183,-1.1965,-1.2135,-1.2135,-1.2128,-1.2176,-1.2176,-1.2237,-1.225,-1.2182,-1.2108,-1.2026,-1.1952,-1.1877,-1.1843,-1.1843,-1.1843,-1.1803,-1.1728,-1.1728,-1.1687,-1.1619,-1.1619,-1.1619,-1.1619,-1.1619,-1.1619,0.0,0.0,0.0,0.0,0.0,0.0,0.0,0.0,0.0,0.0,0.0,0.0,0.0,0.0,0.0,0.0,0.0,0.0,0.0,0.0,0.0,0.0,0.0,0.0,0.0,0.0,0.0,0.0,0.0,0.0,0.0,-0.3358,-0.5433,-0.5791,-0.9237,-1.1253,-1.1619,-1.1619,-1.1619,-1.1619,-1.1619,-1.1619,-1.1619,-1.1619,-1.1619,-1.1619,-1.1619,-1.1619,-1.1619,-1.1619,-1.1619,-1.1619,-1.1619,-1.1619,-1.1619,-1.1619,-1.1619,-1.1619,-1.1619,-1.1619,-1.1619,-1.1619,-1.1619,-1.1619,-1.1619,-1.1619,-1.1619,-1.1619,-1.1619,-1.1619,-1.1619,-1.1619,-1.1619,-1.1619,-1.1619,-1.1619,-1.1619,-1.164,-1.166,-1.166,-1.1687,-1.1687,-1.1633,-1.1762,-1.1877,-1.1877,-1.2026,-1.2149,-1.2149,-1.2257,-1.2332,-1.2332,-1.2433,-1.2454,-1.2338,-1.2305,-1.2237,-1.2115,-1.2081,-1.2135,-1.2135,-1.2135,-1.2006,-1.1877,-1.1877,-1.1803,-1.166,-1.166,-1.1647,-1.1619,-1.1619,-1.1619,0.0,0.0,0.0,0.0,0.0,0.0,0.0,0.0,0.0,0.0,0.0,0.0,0.0,0.0,0.0,0.0,0.0,0.0,0.0,0.0,0.0,0.0,0.0,0.0,0.0,0.0,0.0,0.0,0.0,0.0,0.0,-0.2073,-0.404,-0.5726,-0.79,-0.9867,-1.1548,-1.1619,-1.1619,-1.1619,-1.1619,-1.1619,-1.1619,-1.1619,-1.1619,-1.1619,-1.1619,-1.1619,-1.1619,-1.1619,-1.1619,-1.1619,-1.1619,-1.1619,-1.1619,-1.1619,-1.1619,-1.1619,-1.1619,-1.1619,-1.1619,-1.1619,-1.1619,-1.1619,-1.1619,-1.1619,-1.1619,-1.1619,-1.1619,-1.1619,-1.1619,-1.1619,-1.1619,-1.1619,-1.1619,-1.1619,-1.1619,-1.1714,-1.1809,-1.1809,-1.1918,-1.1925,-1.1667,-1.185,-1.2033,-1.2033,-1.2271,-1.2454,-1.2454,-1.2467,-1.2474,-1.2474,-1.2494,-1.2494,-1.2481,-1.2366,-1.2284,-1.2264,-1.2135,-1.2135,-1.2135,-1.2135,-1.2054,-1.2033,-1.2033,-1.1959,-1.1809,-1.1809,-1.1742,-1.1619,-1.1619,-1.1619,0.0,0.0,0.0,0.0,0.0,0.0,0.0,0.0,0.0,0.0,0.0,0.0,0.0,0.0,0.0,0.0,0.0,0.0,0.0,0.0,0.0,0.0,0.0,0.0,0.0,0.0,0.0,0.0,0.0,0.0,0.0,-0.1827,-0.3787,-0.5747,-0.7657,-0.9651,-1.1548,-1.1619,-1.1619,-1.1619,-1.1619,-1.1619,-1.1619,-1.1619,-1.1619,-1.1619,-1.1619,-1.1619,-1.1619,-1.1619,-1.1619,-1.1619,-1.1619,-1.1619,-1.1619,-1.1619,-1.1619,-1.1619,-1.1619,-1.1619,-1.1619,-1.1619,-1.1619,-1.1619,-1.1619,-1.1619,-1.1619,-1.1619,-1.1619,-1.1619,-1.1619,-1.1619,-1.1619,-1.1619,-1.1681,-1.1721,-1.164,-1.1803,-1.1938,-1.185,-1.1952,-1.2026,-1.1898,-1.2054,-1.2196,-1.2196,-1.2372,-1.2501,-1.2501,-1.2501,-1.2501,-1.2501,-1.2501,-1.2501,-1.2501,-1.2447,-1.2413,-1.2413,-1.2352,-1.2318,-1.2318,-1.2318,-1.2277,-1.2196,-1.2108,-1.2033,-1.1965,-1.1877,-1.185,-1.187,-1.1701,-1.1619,0.0,0.0,0.0,0.0,0.0,0.0,0.0,0.0,0.0,0.0,0.0,0.0,0.0,0.0,0.0,0.0,0.0,0.0,0.0,0.0,0.0,0.0,0.0,0.0,0.0,0.0,0.0,0.0,0.0,0.0,0.0,-0.1369,-0.3245,-0.5726,-0.7149,-0.9069,-1.1548,-1.1619,-1.1619,-1.1619,-1.1619,-1.1619,-1.1619,-1.1619,-1.1619,-1.1619,-1.1619,-1.1619,-1.1619,-1.1619,-1.1619,-1.1619,-1.1619,-1.1619,-1.1619,-1.1619,-1.1619,-1.1619,-1.1619,-1.1619,-1.1619,-1.1619,-1.1619,-1.1619,-1.1619,-1.1619,-1.1619,-1.1619,-1.1619,-1.1619,-1.1619,-1.1619,-1.1619,-1.1619,-1.1701,-1.1755,-1.1694,-1.1877,-1.204,-1.1972,-1.2081,-1.2182,-1.2182,-1.2244,-1.2291,-1.2291,-1.2413,-1.2501,-1.2501,-1.2501,-1.2501,-1.2501,-1.2501,-1.2501,-1.2501,-1.2501,-1.2501,-1.2501,-1.2501,-1.2501,-1.2501,-1.2501,-1.2454,-1.2352,-1.2237,-1.2162,-1.2121,-1.2013,-1.1993,-1.2054,-1.1843,-1.1721,0.0,0.0,0.0,0.0,0.0,0.0,0.0,0.0,0.0,0.0,0.0,0.0,0.0,0.0,0.0,0.0,0.0,0.0,0.0,0.0,0.0,0.0,0.0,0.0,0.0,0.0,0.0,0.0,0.0,0.0,0.0,-0.0072,-0.1869,-0.566,-0.5881,-0.7765,-1.1548,-1.1619,-1.1619,-1.1619,-1.1619,-1.1619,-1.1619,-1.1619,-1.1619,-1.1619,-1.1619,-1.1619,-1.1619,-1.1619,-1.1619,-1.1619,-1.1619,-1.1619,-1.1619,-1.1619,-1.1619,-1.1619,-1.1619,-1.1619,-1.1619,-1.1619,-1.1619,-1.1619,-1.1619,-1.1619,-1.1619,-1.1619,-1.1619,-1.1619,-1.1619,-1.1619,-1.1619,-1.1619,-1.1619,-1.166,-1.1796,-1.1952,-1.2101,-1.225,-1.2393,-1.2488,-1.2488,-1.2379,-1.2291,-1.2291,-1.2413,-1.2501,-1.2501,-1.2501,-1.2501,-1.2501,-1.2501,-1.2501,-1.2501,-1.2501,-1.2501,-1.2501,-1.2501,-1.2501,-1.2501,-1.2501,-1.2501,-1.2494,-1.2488,-1.242,-1.2284,-1.2277,-1.2203,-1.2135,-1.2128,-1.1965,0.0,0.0,0.0,0.0,0.0,0.0,0.0,0.0,0.0,0.0,0.0,0.0,0.0,0.0,0.0,0.0,0.0,0.0,0.0,0.0,0.0,0.0,0.0,0.0,0.0,0.0,0.0,0.0,0.0,0.0,0.0,0.0,-0.1228,-0.3801,-0.5135,-0.7038,-0.9646,-1.0959,-1.1619,-1.1619,-1.1619,-1.1619,-1.1619,-1.1619,-1.1619,-1.1619,-1.1619,-1.1619,-1.1619,-1.1619,-1.1619,-1.1619,-1.1619,-1.1619,-1.1619,-1.1619,-1.1619,-1.1619,-1.1619,-1.1619,-1.1619,-1.1619,-1.1619,-1.1619,-1.1619,-1.1619,-1.1619,-1.1619,-1.1619,-1.1619,-1.1619,-1.1619,-1.164,-1.1735,-1.1837,-1.1925,-1.1972,-1.2176,-1.2338,-1.2298,-1.2406,-1.2501,-1.2501,-1.2461,-1.2427,-1.2427,-1.2474,-1.2501,-1.2501,-1.2501,-1.2501,-1.2501,-1.2501,-1.2501,-1.2501,-1.2501,-1.2501,-1.2501,-1.2501,-1.2501,-1.2501,-1.2501,-1.2501,-1.2501,-1.2413,-1.2386,-1.2427,-1.2338,-1.2311,-1.2352,-1.2352,-1.2162,0.0,0.0,0.0,0.0,0.0,0.0,0.0,0.0,0.0,0.0,0.0,0.0,0.0,0.0,0.0,0.0,0.0,0.0,0.0,0.0,0.0,0.0,0.0,0.0,0.0,0.0,0.0,0.0,0.0,0.0,0.0,0.0,-0.0861,-0.2852,-0.4763,-0.6749,-0.8703,-1.0599,-1.1619,-1.1619,-1.1619,-1.1619,-1.1619,-1.1619,-1.1619,-1.1619,-1.1619,-1.1619,-1.1619,-1.1619,-1.1619,-1.1619,-1.1619,-1.1619,-1.1619,-1.1619,-1.1619,-1.1619,-1.1619,-1.1619,-1.1619,-1.1619,-1.1619,-1.1619,-1.1619,-1.1619,-1.1633,-1.1681,-1.1694,-1.1708,-1.1762,-1.1775,-1.1803,-1.1891,-1.1986,-1.2074,-1.2135,-1.2291,-1.2413,-1.2372,-1.244,-1.2501,-1.2501,-1.2501,-1.2501,-1.2501,-1.2501,-1.2501,-1.2501,-1.2501,-1.2501,-1.2501,-1.2501,-1.2501,-1.2501,-1.2501,-1.2501,-1.2501,-1.2501,-1.2501,-1.2501,-1.2501,-1.2528,-1.2583,-1.244,-1.2433,-1.2583,-1.2433,-1.2413,-1.2501,-1.2501,-1.2318]}]]